Wetterdaten: Donnerstag, 06.12.2018
Datum Zeit Temp. A. Feuchte A. Luftdruck Regen Wind Richtung Richtung Sonnenschein ET UV Solar Taupunkt Windchill Windböen
06.12.2018 00:00 3,7 °C 95 % 1019,4 hPa 0,0 mm 3,1 km/h (1 Bft) S 181 ° 0 min 0,000 mm 0,0 UV-I 0 W/m² 3,0 °C 3,7 °C 4,8 km/h (1 Bft)
06.12.2018 00:01 3,7 °C 95 % 1019,5 hPa 0,0 mm 1,1 km/h (1 Bft) S 181 ° 0 min 0,000 mm 0,0 UV-I 0 W/m² 3,0 °C 3,7 °C 3,2 km/h (1 Bft)
06.12.2018 00:02 3,7 °C 95 % 1019,5 hPa 0,0 mm 0,0 km/h (0 Bft) S 181 ° 0 min 0,000 mm 0,0 UV-I 0 W/m² 3,0 °C 3,7 °C 0,0 km/h (0 Bft)
06.12.2018 00:03 3,7 °C 95 % 1019,5 hPa 0,0 mm 0,0 km/h (0 Bft) S 181 ° 0 min 0,000 mm 0,0 UV-I 0 W/m² 3,0 °C 3,7 °C 0,0 km/h (0 Bft)
06.12.2018 00:04 3,7 °C 95 % 1019,6 hPa 0,0 mm 0,0 km/h (0 Bft) S 181 ° 0 min 0,000 mm 0,0 UV-I 0 W/m² 3,0 °C 3,7 °C 0,0 km/h (0 Bft)
06.12.2018 00:05 3,7 °C 95 % 1019,6 hPa 0,0 mm 0,5 km/h (0 Bft) S 181 ° 0 min 0,000 mm 0,0 UV-I 0 W/m² 3,0 °C 3,7 °C 1,6 km/h (1 Bft)
06.12.2018 00:06 3,7 °C 95 % 1019,5 hPa 0,0 mm 0,0 km/h (0 Bft) S 181 ° 0 min 0,000 mm 0,0 UV-I 0 W/m² 3,0 °C 3,7 °C 0,0 km/h (0 Bft)
06.12.2018 00:07 3,8 °C 95 % 1019,6 hPa 0,0 mm 0,4 km/h (0 Bft) S 181 ° 0 min 0,000 mm 0,0 UV-I 0 W/m² 3,1 °C 3,8 °C 1,6 km/h (1 Bft)
06.12.2018 00:08 3,7 °C 95 % 1019,6 hPa 0,0 mm 0,8 km/h (0 Bft) S 181 ° 0 min 0,000 mm 0,0 UV-I 0 W/m² 3,0 °C 3,7 °C 1,6 km/h (1 Bft)
06.12.2018 00:09 3,8 °C 95 % 1019,6 hPa 0,0 mm 0,0 km/h (0 Bft) S 181 ° 0 min 0,000 mm 0,0 UV-I 0 W/m² 3,1 °C 3,8 °C 0,0 km/h (0 Bft)
06.12.2018 00:10 3,8 °C 96 % 1019,5 hPa 0,0 mm 0,1 km/h (0 Bft) S 181 ° 0 min 0,000 mm 0,0 UV-I 0 W/m² 3,2 °C 3,8 °C 1,6 km/h (1 Bft)
06.12.2018 00:11 3,8 °C 95 % 1019,5 hPa 0,0 mm 2,6 km/h (1 Bft) S 181 ° 0 min 0,000 mm 0,0 UV-I 0 W/m² 3,1 °C 3,8 °C 4,8 km/h (1 Bft)
06.12.2018 00:12 3,8 °C 96 % 1019,5 hPa 0,0 mm 2,9 km/h (1 Bft) S 181 ° 0 min 0,000 mm 0,0 UV-I 0 W/m² 3,2 °C 3,8 °C 3,2 km/h (1 Bft)
06.12.2018 00:13 3,8 °C 96 % 1019,5 hPa 0,0 mm 2,3 km/h (1 Bft) S 181 ° 0 min 0,000 mm 0,0 UV-I 0 W/m² 3,2 °C 3,8 °C 3,2 km/h (1 Bft)
06.12.2018 00:14 3,8 °C 96 % 1019,5 hPa 0,0 mm 2,5 km/h (1 Bft) S 181 ° 0 min 0,000 mm 0,0 UV-I 0 W/m² 3,2 °C 3,8 °C 4,8 km/h (1 Bft)
06.12.2018 00:15 3,9 °C 96 % 1019,5 hPa 0,0 mm 1,9 km/h (1 Bft) S 181 ° 0 min 0,000 mm 0,0 UV-I 0 W/m² 3,3 °C 3,9 °C 3,2 km/h (1 Bft)
06.12.2018 00:16 3,9 °C 96 % 1019,5 hPa 0,0 mm 2,3 km/h (1 Bft) S 181 ° 0 min 0,000 mm 0,0 UV-I 0 W/m² 3,3 °C 3,9 °C 4,8 km/h (1 Bft)
06.12.2018 00:17 4,0 °C 96 % 1019,5 hPa 0,0 mm 2,1 km/h (1 Bft) S 181 ° 0 min 0,000 mm 0,0 UV-I 0 W/m² 3,4 °C 4,0 °C 3,2 km/h (1 Bft)
06.12.2018 00:18 4,0 °C 96 % 1019,5 hPa 0,0 mm 0,1 km/h (0 Bft) S 181 ° 0 min 0,000 mm 0,0 UV-I 0 W/m² 3,4 °C 4,0 °C 1,6 km/h (1 Bft)
06.12.2018 00:19 4,1 °C 96 % 1019,5 hPa 0,0 mm 0,0 km/h (0 Bft) S 181 ° 0 min 0,000 mm 0,0 UV-I 0 W/m² 3,5 °C 4,1 °C 0,0 km/h (0 Bft)
06.12.2018 00:20 4,1 °C 96 % 1019,5 hPa 0,0 mm 0,0 km/h (0 Bft) S 181 ° 0 min 0,000 mm 0,0 UV-I 0 W/m² 3,5 °C 4,1 °C 0,0 km/h (0 Bft)
06.12.2018 00:21 4,1 °C 96 % 1019,5 hPa 0,0 mm 0,3 km/h (0 Bft) S 181 ° 0 min 0,000 mm 0,0 UV-I 0 W/m² 3,5 °C 4,1 °C 1,6 km/h (1 Bft)
06.12.2018 00:22 4,2 °C 96 % 1019,5 hPa 0,0 mm 0,0 km/h (0 Bft) S 181 ° 0 min 0,000 mm 0,0 UV-I 0 W/m² 3,6 °C 4,2 °C 0,0 km/h (0 Bft)
06.12.2018 00:23 4,2 °C 96 % 1019,5 hPa 0,0 mm 3,1 km/h (1 Bft) S 181 ° 0 min 0,000 mm 0,0 UV-I 0 W/m² 3,6 °C 4,2 °C 4,8 km/h (1 Bft)
06.12.2018 00:24 4,2 °C 96 % 1019,5 hPa 0,0 mm 4,1 km/h (1 Bft) S 181 ° 0 min 0,000 mm 0,0 UV-I 0 W/m² 3,6 °C 4,2 °C 6,4 km/h (2 Bft)
06.12.2018 00:25 4,2 °C 96 % 1019,5 hPa 0,0 mm 1,1 km/h (1 Bft) S 181 ° 0 min 0,000 mm 0,0 UV-I 0 W/m² 3,6 °C 4,2 °C 3,2 km/h (1 Bft)
06.12.2018 00:26 4,3 °C 96 % 1019,5 hPa 0,0 mm 0,0 km/h (0 Bft) S 181 ° 0 min 0,000 mm 0,0 UV-I 0 W/m² 3,7 °C 4,3 °C 0,0 km/h (0 Bft)
06.12.2018 00:27 4,3 °C 96 % 1019,5 hPa 0,0 mm 0,5 km/h (0 Bft) S 181 ° 0 min 0,000 mm 0,0 UV-I 0 W/m² 3,7 °C 4,3 °C 3,2 km/h (1 Bft)
06.12.2018 00:28 4,3 °C 96 % 1019,5 hPa 0,0 mm 0,0 km/h (0 Bft) S 181 ° 0 min 0,000 mm 0,0 UV-I 0 W/m² 3,7 °C 4,3 °C 0,0 km/h (0 Bft)
06.12.2018 00:29 4,3 °C 96 % 1019,5 hPa 0,0 mm 0,0 km/h (0 Bft) S 181 ° 0 min 0,000 mm 0,0 UV-I 0 W/m² 3,7 °C 4,3 °C 0,0 km/h (0 Bft)
06.12.2018 00:30 4,3 °C 96 % 1019,5 hPa 0,0 mm 0,0 km/h (0 Bft) S 181 ° 0 min 0,000 mm 0,0 UV-I 0 W/m² 3,7 °C 4,3 °C 0,0 km/h (0 Bft)
06.12.2018 00:31 4,3 °C 96 % 1019,4 hPa 0,0 mm 0,0 km/h (0 Bft) S 181 ° 0 min 0,000 mm 0,0 UV-I 0 W/m² 3,7 °C 4,3 °C 0,0 km/h (0 Bft)
06.12.2018 00:32 4,3 °C 96 % 1019,5 hPa 0,0 mm 0,3 km/h (0 Bft) S 181 ° 0 min 0,000 mm 0,0 UV-I 0 W/m² 3,7 °C 4,3 °C 3,2 km/h (1 Bft)
06.12.2018 00:33 4,3 °C 96 % 1019,5 hPa 0,0 mm 0,2 km/h (0 Bft) W 281 ° 0 min 0,000 mm 0,0 UV-I 0 W/m² 3,7 °C 4,3 °C 3,2 km/h (1 Bft)
06.12.2018 00:34 4,3 °C 96 % 1019,5 hPa 0,0 mm 2,2 km/h (1 Bft) NW 312 ° 0 min 0,000 mm 0,0 UV-I 0 W/m² 3,7 °C 4,3 °C 4,8 km/h (1 Bft)
06.12.2018 00:35 4,3 °C 96 % 1019,5 hPa 0,0 mm 1,8 km/h (1 Bft) NW 315 ° 0 min 0,000 mm 0,0 UV-I 0 W/m² 3,7 °C 4,3 °C 3,2 km/h (1 Bft)
06.12.2018 00:36 4,3 °C 96 % 1019,6 hPa 0,0 mm 0,2 km/h (0 Bft) NW 315 ° 0 min 0,000 mm 0,0 UV-I 0 W/m² 3,7 °C 4,3 °C 1,6 km/h (1 Bft)
06.12.2018 00:37 4,2 °C 96 % 1019,6 hPa 0,0 mm 0,0 km/h (0 Bft) NW 315 ° 0 min 0,000 mm 0,0 UV-I 0 W/m² 3,6 °C 4,2 °C 0,0 km/h (0 Bft)
06.12.2018 00:38 4,2 °C 95 % 1019,5 hPa 0,0 mm 0,0 km/h (0 Bft) NW 315 ° 0 min 0,000 mm 0,0 UV-I 0 W/m² 3,5 °C 4,2 °C 0,0 km/h (0 Bft)
06.12.2018 00:39 4,2 °C 95 % 1019,6 hPa 0,0 mm 0,0 km/h (0 Bft) NW 315 ° 0 min 0,000 mm 0,0 UV-I 0 W/m² 3,5 °C 4,2 °C 0,0 km/h (0 Bft)
06.12.2018 00:40 4,2 °C 95 % 1019,6 hPa 0,0 mm 0,0 km/h (0 Bft) NW 315 ° 0 min 0,000 mm 0,0 UV-I 0 W/m² 3,5 °C 4,2 °C 0,0 km/h (0 Bft)
06.12.2018 00:41 4,2 °C 96 % 1019,6 hPa 0,0 mm 0,0 km/h (0 Bft) NW 315 ° 0 min 0,000 mm 0,0 UV-I 0 W/m² 3,6 °C 4,2 °C 0,0 km/h (0 Bft)
06.12.2018 00:42 4,2 °C 96 % 1019,7 hPa 0,0 mm 0,0 km/h (0 Bft) NW 315 ° 0 min 0,000 mm 0,0 UV-I 0 W/m² 3,6 °C 4,2 °C 0,0 km/h (0 Bft)
06.12.2018 00:43 4,2 °C 96 % 1019,7 hPa 0,0 mm 0,0 km/h (0 Bft) NW 315 ° 0 min 0,000 mm 0,0 UV-I 0 W/m² 3,6 °C 4,2 °C 0,0 km/h (0 Bft)
06.12.2018 00:44 4,2 °C 96 % 1019,7 hPa 0,0 mm 0,2 km/h (0 Bft) NW 315 ° 0 min 0,000 mm 0,0 UV-I 0 W/m² 3,6 °C 4,2 °C 1,6 km/h (1 Bft)
06.12.2018 00:45 4,2 °C 96 % 1019,7 hPa 0,0 mm 0,1 km/h (0 Bft) NW 315 ° 0 min 0,000 mm 0,0 UV-I 0 W/m² 3,6 °C 4,2 °C 1,6 km/h (1 Bft)
06.12.2018 00:46 4,2 °C 96 % 1019,6 hPa 0,0 mm 0,1 km/h (0 Bft) NW 315 ° 0 min 0,000 mm 0,0 UV-I 0 W/m² 3,6 °C 4,2 °C 1,6 km/h (1 Bft)
06.12.2018 00:47 4,2 °C 96 % 1019,6 hPa 0,0 mm 0,0 km/h (0 Bft) NW 315 ° 0 min 0,000 mm 0,0 UV-I 0 W/m² 3,6 °C 4,2 °C 0,0 km/h (0 Bft)
06.12.2018 00:48 4,2 °C 96 % 1019,7 hPa 0,0 mm 0,0 km/h (0 Bft) NW 315 ° 0 min 0,000 mm 0,0 UV-I 0 W/m² 3,6 °C 4,2 °C 0,0 km/h (0 Bft)
06.12.2018 00:49 4,2 °C 96 % 1019,6 hPa 0,0 mm 0,0 km/h (0 Bft) NW 315 ° 0 min 0,000 mm 0,0 UV-I 0 W/m² 3,6 °C 4,2 °C 0,0 km/h (0 Bft)
06.12.2018 00:50 4,1 °C 96 % 1019,4 hPa 0,0 mm 0,0 km/h (0 Bft) NW 315 ° 0 min 0,000 mm 0,0 UV-I 0 W/m² 3,5 °C 4,1 °C 0,0 km/h (0 Bft)
06.12.2018 00:51 4,1 °C 96 % 1019,4 hPa 0,0 mm 0,0 km/h (0 Bft) NW 315 ° 0 min 0,000 mm 0,0 UV-I 0 W/m² 3,5 °C 4,1 °C 0,0 km/h (0 Bft)
06.12.2018 00:52 4,2 °C 95 % 1019,4 hPa 0,0 mm 1,7 km/h (1 Bft) S-SW 195 ° 0 min 0,000 mm 0,0 UV-I 0 W/m² 3,5 °C 4,2 °C 3,2 km/h (1 Bft)
06.12.2018 00:53 4,2 °C 96 % 1019,4 hPa 0,0 mm 1,9 km/h (1 Bft) S-SW 195 ° 0 min 0,000 mm 0,0 UV-I 0 W/m² 3,6 °C 4,2 °C 4,8 km/h (1 Bft)
06.12.2018 00:54 4,3 °C 96 % 1019,4 hPa 0,0 mm 4,8 km/h (1 Bft) S-SW 195 ° 0 min 0,000 mm 0,0 UV-I 0 W/m² 3,7 °C 3,4 °C 6,4 km/h (2 Bft)
06.12.2018 00:55 4,4 °C 96 % 1019,4 hPa 0,0 mm 6,3 km/h (2 Bft) S-SW 196 ° 0 min 0,000 mm 0,0 UV-I 0 W/m² 3,8 °C 2,9 °C 8,0 km/h (2 Bft)
06.12.2018 00:56 4,5 °C 96 % 1019,5 hPa 0,0 mm 6,4 km/h (2 Bft) S-SW 211 ° 0 min 0,000 mm 0,0 UV-I 0 W/m² 3,9 °C 3,0 °C 11,3 km/h (2 Bft)
06.12.2018 00:57 4,7 °C 96 % 1019,4 hPa 0,0 mm 6,6 km/h (2 Bft) S-SW 206 ° 0 min 0,000 mm 0,0 UV-I 0 W/m² 4,1 °C 3,2 °C 9,7 km/h (2 Bft)
06.12.2018 00:58 4,8 °C 96 % 1019,4 hPa 0,0 mm 5,3 km/h (1 Bft) S-SW 205 ° 0 min 0,000 mm 0,0 UV-I 0 W/m² 4,2 °C 3,7 °C 8,0 km/h (2 Bft)
06.12.2018 00:59 4,9 °C 96 % 1019,4 hPa 0,0 mm 6,5 km/h (2 Bft) S-SW 198 ° 0 min 0,000 mm 0,0 UV-I 0 W/m² 4,3 °C 3,4 °C 9,7 km/h (2 Bft)
06.12.2018 01:00 5,0 °C 96 % 1019,4 hPa 0,0 mm 6,6 km/h (2 Bft) S 178 ° 0 min 0,000 mm 0,0 UV-I 0 W/m² 4,4 °C 3,5 °C 9,7 km/h (2 Bft)
06.12.2018 01:01 5,1 °C 96 % 1019,3 hPa 0,0 mm 4,6 km/h (1 Bft) S 175 ° 0 min 0,000 mm 0,0 UV-I 0 W/m² 4,5 °C 4,4 °C 11,3 km/h (2 Bft)
06.12.2018 01:02 5,2 °C 96 % 1019,2 hPa 0,0 mm 1,7 km/h (1 Bft) S 175 ° 0 min 0,000 mm 0,0 UV-I 0 W/m² 4,6 °C 5,2 °C 4,8 km/h (1 Bft)
06.12.2018 01:03 5,2 °C 96 % 1019,2 hPa 0,0 mm 5,9 km/h (2 Bft) S-SW 202 ° 0 min 0,000 mm 0,0 UV-I 0 W/m² 4,6 °C 4,0 °C 9,7 km/h (2 Bft)
06.12.2018 01:04 5,3 °C 96 % 1019,2 hPa 0,0 mm 7,3 km/h (2 Bft) S-SW 201 ° 0 min 0,000 mm 0,0 UV-I 0 W/m² 4,7 °C 3,7 °C 12,9 km/h (3 Bft)
06.12.2018 01:05 5,3 °C 96 % 1019,2 hPa 0,0 mm 3,6 km/h (1 Bft) S 176 ° 0 min 0,000 mm 0,0 UV-I 0 W/m² 4,7 °C 5,3 °C 6,4 km/h (2 Bft)
06.12.2018 01:06 5,4 °C 96 % 1019,2 hPa 0,0 mm 5,7 km/h (1 Bft) SW 234 ° 0 min 0,000 mm 0,0 UV-I 0 W/m² 4,8 °C 4,3 °C 9,7 km/h (2 Bft)
06.12.2018 01:07 5,4 °C 96 % 1019,2 hPa 0,0 mm 5,8 km/h (2 Bft) SW 215 ° 0 min 0,000 mm 0,0 UV-I 0 W/m² 4,8 °C 4,2 °C 11,3 km/h (2 Bft)
06.12.2018 01:08 5,6 °C 96 % 1019,2 hPa 0,0 mm 7,0 km/h (2 Bft) S-SW 199 ° 0 min 0,000 mm 0,0 UV-I 0 W/m² 5,0 °C 4,1 °C 11,3 km/h (2 Bft)
06.12.2018 01:09 5,7 °C 96 % 1019,2 hPa 0,0 mm 7,0 km/h (2 Bft) S-SW 197 ° 0 min 0,000 mm 0,0 UV-I 0 W/m² 5,1 °C 4,2 °C 12,9 km/h (3 Bft)
06.12.2018 01:10 5,8 °C 96 % 1019,3 hPa 0,0 mm 4,0 km/h (1 Bft) SW 232 ° 0 min 0,000 mm 0,0 UV-I 0 W/m² 5,2 °C 5,8 °C 6,4 km/h (2 Bft)
06.12.2018 01:11 5,8 °C 96 % 1019,3 hPa 0,0 mm 3,4 km/h (1 Bft) S-SW 200 ° 0 min 0,000 mm 0,0 UV-I 0 W/m² 5,2 °C 5,8 °C 6,4 km/h (2 Bft)
06.12.2018 01:12 5,9 °C 96 % 1019,3 hPa 0,0 mm 6,2 km/h (2 Bft) S-SW 198 ° 0 min 0,000 mm 0,0 UV-I 0 W/m² 5,3 °C 4,7 °C 11,3 km/h (2 Bft)
06.12.2018 01:13 6,0 °C 96 % 1019,3 hPa 0,0 mm 10,0 km/h (2 Bft) S 173 ° 0 min 0,000 mm 0,0 UV-I 0 W/m² 5,4 °C 3,9 °C 14,5 km/h (3 Bft)
06.12.2018 01:14 6,1 °C 96 % 1019,3 hPa 0,0 mm 7,1 km/h (2 Bft) S 171 ° 0 min 0,000 mm 0,0 UV-I 0 W/m² 5,5 °C 4,7 °C 11,3 km/h (2 Bft)
06.12.2018 01:15 6,2 °C 96 % 1019,2 hPa 0,0 mm 9,9 km/h (2 Bft) S-SW 210 ° 0 min 0,000 mm 0,0 UV-I 0 W/m² 5,6 °C 4,1 °C 14,5 km/h (3 Bft)
06.12.2018 01:16 6,2 °C 96 % 1019,2 hPa 0,0 mm 6,3 km/h (2 Bft) S-SW 200 ° 0 min 0,000 mm 0,0 UV-I 0 W/m² 5,6 °C 5,0 °C 9,7 km/h (2 Bft)
06.12.2018 01:17 6,3 °C 96 % 1019,2 hPa 0,0 mm 4,5 km/h (1 Bft) S 184 ° 0 min 0,000 mm 0,0 UV-I 0 W/m² 5,7 °C 6,3 °C 6,4 km/h (2 Bft)
06.12.2018 01:18 6,3 °C 96 % 1019,3 hPa 0,0 mm 2,0 km/h (1 Bft) W-NW 296 ° 0 min 0,000 mm 0,0 UV-I 0 W/m² 5,7 °C 6,3 °C 6,4 km/h (2 Bft)
06.12.2018 01:19 6,3 °C 95 % 1019,2 hPa 0,0 mm 0,0 km/h (0 Bft) S-SO 154 ° 0 min 0,000 mm 0,0 UV-I 0 W/m² 5,6 °C 6,3 °C 0,0 km/h (0 Bft)
06.12.2018 01:20 6,4 °C 95 % 1019,2 hPa 0,0 mm 2,2 km/h (1 Bft) S-SO 154 ° 0 min 0,000 mm 0,0 UV-I 0 W/m² 5,7 °C 6,4 °C 3,2 km/h (1 Bft)
06.12.2018 01:21 6,4 °C 95 % 1019,2 hPa 0,0 mm 2,5 km/h (1 Bft) S-SO 154 ° 0 min 0,000 mm 0,0 UV-I 0 W/m² 5,7 °C 6,4 °C 4,8 km/h (1 Bft)
06.12.2018 01:22 6,4 °C 95 % 1019,1 hPa 0,0 mm 2,1 km/h (1 Bft) S-SO 154 ° 0 min 0,000 mm 0,0 UV-I 0 W/m² 5,7 °C 6,4 °C 3,2 km/h (1 Bft)
06.12.2018 01:23 6,4 °C 96 % 1019,1 hPa 0,0 mm 0,9 km/h (0 Bft) S-SO 154 ° 0 min 0,000 mm 0,0 UV-I 0 W/m² 5,8 °C 6,4 °C 3,2 km/h (1 Bft)
06.12.2018 01:24 6,4 °C 96 % 1019,1 hPa 0,0 mm 1,5 km/h (1 Bft) S-SO 154 ° 0 min 0,000 mm 0,0 UV-I 0 W/m² 5,8 °C 6,4 °C 3,2 km/h (1 Bft)
06.12.2018 01:25 6,4 °C 96 % 1019,1 hPa 0,0 mm 1,9 km/h (1 Bft) S-SO 154 ° 0 min 0,000 mm 0,0 UV-I 0 W/m² 5,8 °C 6,4 °C 4,8 km/h (1 Bft)
06.12.2018 01:26 6,5 °C 96 % 1019,1 hPa 0,0 mm 0,7 km/h (0 Bft) S-SO 154 ° 0 min 0,000 mm 0,0 UV-I 0 W/m² 5,9 °C 6,5 °C 3,2 km/h (1 Bft)
06.12.2018 01:27 6,4 °C 95 % 1019,1 hPa 0,0 mm 0,0 km/h (0 Bft) S-SO 154 ° 0 min 0,000 mm 0,0 UV-I 0 W/m² 5,7 °C 6,4 °C 0,0 km/h (0 Bft)
06.12.2018 01:28 6,5 °C 95 % 1019,1 hPa 0,0 mm 0,5 km/h (0 Bft) S-SO 154 ° 0 min 0,000 mm 0,0 UV-I 0 W/m² 5,8 °C 6,5 °C 1,6 km/h (1 Bft)
06.12.2018 01:29 6,5 °C 95 % 1019,1 hPa 0,0 mm 0,4 km/h (0 Bft) S-SO 154 ° 0 min 0,000 mm 0,0 UV-I 0 W/m² 5,8 °C 6,5 °C 1,6 km/h (1 Bft)
06.12.2018 01:30 6,5 °C 95 % 1019,1 hPa 0,0 mm 0,0 km/h (0 Bft) S-SO 154 ° 0 min 0,000 mm 0,0 UV-I 0 W/m² 5,8 °C 6,5 °C 0,0 km/h (0 Bft)
06.12.2018 01:31 6,5 °C 95 % 1019,1 hPa 0,0 mm 0,0 km/h (0 Bft) S-SO 154 ° 0 min 0,000 mm 0,0 UV-I 0 W/m² 5,8 °C 6,5 °C 0,0 km/h (0 Bft)
06.12.2018 01:32 6,5 °C 95 % 1019,1 hPa 0,0 mm 0,1 km/h (0 Bft) S-SO 154 ° 0 min 0,000 mm 0,0 UV-I 0 W/m² 5,8 °C 6,5 °C 1,6 km/h (1 Bft)
06.12.2018 01:33 6,5 °C 95 % 1019,0 hPa 0,0 mm 1,1 km/h (1 Bft) S-SO 154 ° 0 min 0,000 mm 0,0 UV-I 0 W/m² 5,8 °C 6,5 °C 3,2 km/h (1 Bft)
06.12.2018 01:34 6,5 °C 95 % 1019,0 hPa 0,0 mm 2,9 km/h (1 Bft) N-NW 334 ° 0 min 0,000 mm 0,0 UV-I 0 W/m² 5,8 °C 6,5 °C 8,0 km/h (2 Bft)
06.12.2018 01:35 6,5 °C 95 % 1019,1 hPa 0,0 mm 5,8 km/h (2 Bft) N-NW 337 ° 0 min 0,000 mm 0,0 UV-I 0 W/m² 5,8 °C 5,5 °C 8,0 km/h (2 Bft)
06.12.2018 01:36 6,4 °C 95 % 1019,1 hPa 0,0 mm 2,1 km/h (1 Bft) N-NW 337 ° 0 min 0,000 mm 0,0 UV-I 0 W/m² 5,7 °C 6,4 °C 3,2 km/h (1 Bft)
06.12.2018 01:37 6,4 °C 95 % 1019,0 hPa 0,0 mm 2,5 km/h (1 Bft) O 80 ° 0 min 0,000 mm 0,0 UV-I 0 W/m² 5,7 °C 6,4 °C 3,2 km/h (1 Bft)
06.12.2018 01:38 6,4 °C 95 % 1019,0 hPa 0,0 mm 2,3 km/h (1 Bft) O 80 ° 0 min 0,000 mm 0,0 UV-I 0 W/m² 5,7 °C 6,4 °C 3,2 km/h (1 Bft)
06.12.2018 01:39 6,4 °C 95 % 1019,0 hPa 0,0 mm 0,6 km/h (0 Bft) O 80 ° 0 min 0,000 mm 0,0 UV-I 0 W/m² 5,7 °C 6,4 °C 3,2 km/h (1 Bft)
06.12.2018 01:40 6,3 °C 95 % 1019,0 hPa 0,0 mm 2,1 km/h (1 Bft) O 80 ° 0 min 0,000 mm 0,0 UV-I 0 W/m² 5,6 °C 6,3 °C 3,2 km/h (1 Bft)
06.12.2018 01:41 6,3 °C 95 % 1019,0 hPa 0,0 mm 0,3 km/h (0 Bft) O 80 ° 0 min 0,000 mm 0,0 UV-I 0 W/m² 5,6 °C 6,3 °C 1,6 km/h (1 Bft)
06.12.2018 01:42 6,3 °C 95 % 1019,1 hPa 0,0 mm 0,0 km/h (0 Bft) O 80 ° 0 min 0,000 mm 0,0 UV-I 0 W/m² 5,6 °C 6,3 °C 0,0 km/h (0 Bft)
06.12.2018 01:43 6,3 °C 95 % 1019,1 hPa 0,0 mm 0,0 km/h (0 Bft) O 80 ° 0 min 0,000 mm 0,0 UV-I 0 W/m² 5,6 °C 6,3 °C 0,0 km/h (0 Bft)
06.12.2018 01:44 6,3 °C 95 % 1019,0 hPa 0,0 mm 0,0 km/h (0 Bft) O 80 ° 0 min 0,000 mm 0,0 UV-I 0 W/m² 5,6 °C 6,3 °C 0,0 km/h (0 Bft)
06.12.2018 01:45 6,3 °C 95 % 1019,0 hPa 0,0 mm 0,0 km/h (0 Bft) O 80 ° 0 min 0,000 mm 0,0 UV-I 0 W/m² 5,6 °C 6,3 °C 0,0 km/h (0 Bft)
06.12.2018 01:46 6,3 °C 95 % 1019,0 hPa 0,0 mm 0,5 km/h (0 Bft) O 80 ° 0 min 0,000 mm 0,0 UV-I 0 W/m² 5,6 °C 6,3 °C 1,6 km/h (1 Bft)
06.12.2018 01:47 6,3 °C 95 % 1019,0 hPa 0,0 mm 0,0 km/h (0 Bft) O 80 ° 0 min 0,000 mm 0,0 UV-I 0 W/m² 5,6 °C 6,3 °C 0,0 km/h (0 Bft)
06.12.2018 01:48 6,3 °C 95 % 1019,1 hPa 0,0 mm 0,0 km/h (0 Bft) O 80 ° 0 min 0,000 mm 0,0 UV-I 0 W/m² 5,6 °C 6,3 °C 0,0 km/h (0 Bft)
06.12.2018 01:49 6,3 °C 95 % 1019,1 hPa 0,0 mm 0,8 km/h (0 Bft) O 80 ° 0 min 0,000 mm 0,0 UV-I 0 W/m² 5,6 °C 6,3 °C 3,2 km/h (1 Bft)
06.12.2018 01:50 6,2 °C 95 % 1019,2 hPa 0,0 mm 2,8 km/h (1 Bft) O 80 ° 0 min 0,000 mm 0,0 UV-I 0 W/m² 5,5 °C 6,2 °C 3,2 km/h (1 Bft)
06.12.2018 01:51 6,2 °C 95 % 1019,1 hPa 0,0 mm 4,0 km/h (1 Bft) O 89 ° 0 min 0,000 mm 0,0 UV-I 0 W/m² 5,5 °C 6,2 °C 6,4 km/h (2 Bft)
06.12.2018 01:52 6,2 °C 95 % 1019,1 hPa 0,0 mm 4,1 km/h (1 Bft) O-SO 123 ° 0 min 0,000 mm 0,0 UV-I 0 W/m² 5,5 °C 6,2 °C 6,4 km/h (2 Bft)
06.12.2018 01:53 6,1 °C 95 % 1019,1 hPa 0,0 mm 2,9 km/h (1 Bft) O-SO 123 ° 0 min 0,000 mm 0,0 UV-I 0 W/m² 5,4 °C 6,1 °C 4,8 km/h (1 Bft)
06.12.2018 01:54 6,1 °C 95 % 1019,1 hPa 0,0 mm 1,4 km/h (1 Bft) O-SO 123 ° 0 min 0,000 mm 0,0 UV-I 0 W/m² 5,4 °C 6,1 °C 3,2 km/h (1 Bft)
06.12.2018 01:55 6,1 °C 95 % 1019,1 hPa 0,0 mm 0,6 km/h (0 Bft) O-SO 123 ° 0 min 0,000 mm 0,0 UV-I 0 W/m² 5,4 °C 6,1 °C 1,6 km/h (1 Bft)
06.12.2018 01:56 6,1 °C 95 % 1019,2 hPa 0,0 mm 2,8 km/h (1 Bft) N-NO 19 ° 0 min 0,000 mm 0,0 UV-I 0 W/m² 5,4 °C 6,1 °C 4,8 km/h (1 Bft)
06.12.2018 01:57 6,1 °C 95 % 1019,3 hPa 0,0 mm 3,3 km/h (1 Bft) N-NO 19 ° 0 min 0,000 mm 0,0 UV-I 0 W/m² 5,4 °C 6,1 °C 4,8 km/h (1 Bft)
06.12.2018 01:58 6,1 °C 95 % 1019,3 hPa 0,0 mm 0,4 km/h (0 Bft) N-NO 19 ° 0 min 0,000 mm 0,0 UV-I 0 W/m² 5,4 °C 6,1 °C 1,6 km/h (1 Bft)
06.12.2018 01:59 6,1 °C 95 % 1019,3 hPa 0,0 mm 4,0 km/h (1 Bft) SO 146 ° 0 min 0,000 mm 0,0 UV-I 0 W/m² 5,4 °C 6,1 °C 4,8 km/h (1 Bft)
06.12.2018 02:00 6,0 °C 95 % 1019,2 hPa 0,0 mm 2,9 km/h (1 Bft) SO 146 ° 0 min 0,000 mm 0,0 UV-I 0 W/m² 5,3 °C 6,0 °C 4,8 km/h (1 Bft)
06.12.2018 02:01 6,0 °C 95 % 1019,3 hPa 0,0 mm 0,9 km/h (0 Bft) SO 146 ° 0 min 0,000 mm 0,0 UV-I 0 W/m² 5,3 °C 6,0 °C 1,6 km/h (1 Bft)
06.12.2018 02:02 6,0 °C 95 % 1019,3 hPa 0,0 mm 3,6 km/h (1 Bft) SO 146 ° 0 min 0,000 mm 0,0 UV-I 0 W/m² 5,3 °C 6,0 °C 4,8 km/h (1 Bft)
06.12.2018 02:03 6,0 °C 95 % 1019,2 hPa 0,0 mm 4,4 km/h (1 Bft) SO 146 ° 0 min 0,000 mm 0,0 UV-I 0 W/m² 5,3 °C 6,0 °C 4,8 km/h (1 Bft)
06.12.2018 02:04 6,0 °C 95 % 1019,2 hPa 0,0 mm 2,1 km/h (1 Bft) SO 146 ° 0 min 0,000 mm 0,0 UV-I 0 W/m² 5,3 °C 6,0 °C 3,2 km/h (1 Bft)
06.12.2018 02:05 5,9 °C 95 % 1019,2 hPa 0,0 mm 0,5 km/h (0 Bft) SO 146 ° 0 min 0,000 mm 0,0 UV-I 0 W/m² 5,2 °C 5,9 °C 1,6 km/h (1 Bft)
06.12.2018 02:06 5,9 °C 95 % 1019,3 hPa 0,0 mm 0,7 km/h (0 Bft) SO 146 ° 0 min 0,000 mm 0,0 UV-I 0 W/m² 5,2 °C 5,9 °C 3,2 km/h (1 Bft)
06.12.2018 02:07 5,9 °C 95 % 1019,4 hPa 0,0 mm 1,4 km/h (1 Bft) O-SO 111 ° 0 min 0,000 mm 0,0 UV-I 0 W/m² 5,2 °C 5,9 °C 3,2 km/h (1 Bft)
06.12.2018 02:08 5,9 °C 95 % 1019,4 hPa 0,0 mm 0,0 km/h (0 Bft) O-SO 111 ° 0 min 0,000 mm 0,0 UV-I 0 W/m² 5,2 °C 5,9 °C 0,0 km/h (0 Bft)
06.12.2018 02:09 5,9 °C 95 % 1019,4 hPa 0,0 mm 0,5 km/h (0 Bft) O-SO 111 ° 0 min 0,000 mm 0,0 UV-I 0 W/m² 5,2 °C 5,9 °C 3,2 km/h (1 Bft)
06.12.2018 02:10 5,9 °C 95 % 1019,5 hPa 0,0 mm 0,0 km/h (0 Bft) O-SO 111 ° 0 min 0,000 mm 0,0 UV-I 0 W/m² 5,2 °C 5,9 °C 0,0 km/h (0 Bft)
06.12.2018 02:11 5,9 °C 95 % 1019,5 hPa 0,0 mm 0,0 km/h (0 Bft) O-SO 111 ° 0 min 0,000 mm 0,0 UV-I 0 W/m² 5,2 °C 5,9 °C 0,0 km/h (0 Bft)
06.12.2018 02:12 5,9 °C 95 % 1019,5 hPa 0,0 mm 0,0 km/h (0 Bft) O-SO 111 ° 0 min 0,000 mm 0,0 UV-I 0 W/m² 5,2 °C 5,9 °C 0,0 km/h (0 Bft)
06.12.2018 02:13 5,9 °C 95 % 1019,5 hPa 0,0 mm 0,1 km/h (0 Bft) O-SO 111 ° 0 min 0,000 mm 0,0 UV-I 0 W/m² 5,2 °C 5,9 °C 1,6 km/h (1 Bft)
06.12.2018 02:14 5,9 °C 95 % 1019,6 hPa 0,0 mm 0,8 km/h (0 Bft) O-SO 111 ° 0 min 0,000 mm 0,0 UV-I 0 W/m² 5,2 °C 5,9 °C 3,2 km/h (1 Bft)
06.12.2018 02:15 5,9 °C 95 % 1019,6 hPa 0,0 mm 0,1 km/h (0 Bft) O-SO 111 ° 0 min 0,000 mm 0,0 UV-I 0 W/m² 5,2 °C 5,9 °C 1,6 km/h (1 Bft)
06.12.2018 02:16 5,9 °C 95 % 1019,6 hPa 0,0 mm 0,9 km/h (0 Bft) O-SO 111 ° 0 min 0,000 mm 0,0 UV-I 0 W/m² 5,2 °C 5,9 °C 1,6 km/h (1 Bft)
06.12.2018 02:17 5,9 °C 95 % 1019,7 hPa 0,0 mm 0,1 km/h (0 Bft) O-SO 111 ° 0 min 0,000 mm 0,0 UV-I 0 W/m² 5,2 °C 5,9 °C 1,6 km/h (1 Bft)
06.12.2018 02:18 5,9 °C 95 % 1019,7 hPa 0,0 mm 1,8 km/h (1 Bft) O-SO 111 ° 0 min 0,000 mm 0,0 UV-I 0 W/m² 5,2 °C 5,9 °C 3,2 km/h (1 Bft)
06.12.2018 02:19 5,9 °C 95 % 1019,7 hPa 0,0 mm 5,1 km/h (1 Bft) W 260 ° 0 min 0,000 mm 0,0 UV-I 0 W/m² 5,2 °C 5,1 °C 11,3 km/h (2 Bft)
06.12.2018 02:20 5,9 °C 95 % 1019,8 hPa 0,0 mm 10,1 km/h (2 Bft) W 265 ° 0 min 0,000 mm 0,0 UV-I 0 W/m² 5,2 °C 3,7 °C 12,9 km/h (3 Bft)
06.12.2018 02:21 6,0 °C 95 % 1019,9 hPa 0,0 mm 7,2 km/h (2 Bft) SW 234 ° 0 min 0,000 mm 0,0 UV-I 0 W/m² 5,3 °C 4,5 °C 12,9 km/h (3 Bft)
06.12.2018 02:22 6,1 °C 95 % 1019,9 hPa 0,0 mm 6,2 km/h (2 Bft) SW 225 ° 0 min 0,000 mm 0,0 UV-I 0 W/m² 5,4 °C 4,9 °C 12,9 km/h (3 Bft)
06.12.2018 02:23 6,1 °C 95 % 1019,9 hPa 0,0 mm 7,1 km/h (2 Bft) SW 235 ° 0 min 0,000 mm 0,0 UV-I 0 W/m² 5,4 °C 4,7 °C 12,9 km/h (3 Bft)
06.12.2018 02:24 6,2 °C 95 % 1019,9 hPa 0,0 mm 4,1 km/h (1 Bft) SW 234 ° 0 min 0,000 mm 0,0 UV-I 0 W/m² 5,5 °C 6,2 °C 8,0 km/h (2 Bft)
06.12.2018 02:25 6,2 °C 95 % 1019,9 hPa 0,0 mm 5,6 km/h (1 Bft) W 267 ° 0 min 0,000 mm 0,0 UV-I 0 W/m² 5,5 °C 5,2 °C 11,3 km/h (2 Bft)
06.12.2018 02:26 6,3 °C 95 % 1019,9 hPa 0,0 mm 9,5 km/h (2 Bft) W 264 ° 0 min 0,000 mm 0,0 UV-I 0 W/m² 5,6 °C 4,3 °C 14,5 km/h (3 Bft)
06.12.2018 02:27 6,3 °C 95 % 1020,0 hPa 0,0 mm 6,0 km/h (2 Bft) W-SW 254 ° 0 min 0,000 mm 0,0 UV-I 0 W/m² 5,6 °C 5,2 °C 12,9 km/h (3 Bft)
06.12.2018 02:28 6,4 °C 95 % 1020,0 hPa 0,0 mm 6,4 km/h (2 Bft) W 279 ° 0 min 0,000 mm 0,0 UV-I 0 W/m² 5,7 °C 5,2 °C 11,3 km/h (2 Bft)
06.12.2018 02:29 6,4 °C 95 % 1020,0 hPa 0,0 mm 4,5 km/h (1 Bft) W-NW 296 ° 0 min 0,000 mm 0,0 UV-I 0 W/m² 5,7 °C 6,4 °C 9,7 km/h (2 Bft)
06.12.2018 02:30 6,5 °C 95 % 1020,1 hPa 0,0 mm 1,8 km/h (1 Bft) W-NW 296 ° 0 min 0,000 mm 0,0 UV-I 0 W/m² 5,8 °C 6,5 °C 3,2 km/h (1 Bft)
06.12.2018 02:31 6,6 °C 95 % 1020,1 hPa 0,0 mm 1,6 km/h (1 Bft) W-NW 296 ° 0 min 0,000 mm 0,0 UV-I 0 W/m² 5,9 °C 6,6 °C 3,2 km/h (1 Bft)
06.12.2018 02:32 6,6 °C 94 % 1020,1 hPa 0,0 mm 3,8 km/h (1 Bft) W 277 ° 0 min 0,000 mm 0,0 UV-I 0 W/m² 5,7 °C 6,6 °C 6,4 km/h (2 Bft)
06.12.2018 02:33 6,7 °C 94 % 1020,1 hPa 0,0 mm 6,4 km/h (2 Bft) W-NW 285 ° 0 min 0,000 mm 0,0 UV-I 0 W/m² 5,8 °C 5,6 °C 9,7 km/h (2 Bft)
06.12.2018 02:34 6,7 °C 94 % 1020,2 hPa 0,0 mm 8,8 km/h (2 Bft) NW 304 ° 0 min 0,000 mm 0,0 UV-I 0 W/m² 5,8 °C 4,9 °C 16,1 km/h (3 Bft)
06.12.2018 02:35 6,7 °C 94 % 1020,3 hPa 0,0 mm 9,8 km/h (2 Bft) W-SW 248 ° 0 min 0,000 mm 0,0 UV-I 0 W/m² 5,8 °C 4,7 °C 19,3 km/h (3 Bft)
06.12.2018 02:36 6,8 °C 94 % 1020,2 hPa 0,0 mm 11,5 km/h (2 Bft) W-SW 251 ° 0 min 0,000 mm 0,0 UV-I 0 W/m² 5,9 °C 4,5 °C 17,7 km/h (3 Bft)
06.12.2018 02:37 6,8 °C 94 % 1020,3 hPa 0,0 mm 11,3 km/h (2 Bft) W-SW 244 ° 0 min 0,000 mm 0,0 UV-I 0 W/m² 5,9 °C 4,6 °C 14,5 km/h (3 Bft)
06.12.2018 02:38 6,8 °C 94 % 1020,3 hPa 0,0 mm 14,3 km/h (3 Bft) W-NW 294 ° 0 min 0,000 mm 0,0 UV-I 0 W/m² 5,9 °C 4,1 °C 20,9 km/h (4 Bft)
06.12.2018 02:39 6,9 °C 93 % 1020,3 hPa 0,0 mm 15,0 km/h (3 Bft) W 280 ° 0 min 0,000 mm 0,0 UV-I 0 W/m² 5,8 °C 4,1 °C 25,7 km/h (4 Bft)
06.12.2018 02:40 6,9 °C 93 % 1020,3 hPa 0,0 mm 10,5 km/h (2 Bft) W-SW 256 ° 0 min 0,000 mm 0,0 UV-I 0 W/m² 5,8 °C 4,8 °C 24,1 km/h (4 Bft)
06.12.2018 02:41 7,0 °C 93 % 1020,3 hPa 0,0 mm 13,5 km/h (3 Bft) W-SW 256 ° 0 min 0,000 mm 0,0 UV-I 0 W/m² 5,9 °C 4,4 °C 20,9 km/h (4 Bft)
06.12.2018 02:42 7,1 °C 93 % 1020,3 hPa 0,2 mm 7,2 km/h (2 Bft) W 259 ° 0 min 0,000 mm 0,0 UV-I 0 W/m² 6,0 °C 5,8 °C 12,9 km/h (3 Bft)
06.12.2018 02:43 7,1 °C 93 % 1020,3 hPa 0,0 mm 7,4 km/h (2 Bft) W-SW 257 ° 0 min 0,000 mm 0,0 UV-I 0 W/m² 6,0 °C 5,7 °C 14,5 km/h (3 Bft)
06.12.2018 02:44 7,2 °C 93 % 1020,3 hPa 0,0 mm 12,1 km/h (2 Bft) W-SW 257 ° 0 min 0,000 mm 0,0 UV-I 0 W/m² 6,1 °C 4,9 °C 16,1 km/h (3 Bft)
06.12.2018 02:45 7,2 °C 92 % 1020,3 hPa 0,0 mm 8,6 km/h (2 Bft) W 269 ° 0 min 0,000 mm 0,0 UV-I 0 W/m² 6,0 °C 5,6 °C 14,5 km/h (3 Bft)
06.12.2018 02:46 7,2 °C 92 % 1020,4 hPa 0,0 mm 7,3 km/h (2 Bft) W-SW 238 ° 0 min 0,000 mm 0,0 UV-I 0 W/m² 6,0 °C 5,9 °C 11,3 km/h (2 Bft)
06.12.2018 02:47 7,3 °C 92 % 1020,3 hPa 0,0 mm 6,7 km/h (2 Bft) W-SW 238 ° 0 min 0,000 mm 0,0 UV-I 0 W/m² 6,1 °C 6,2 °C 12,9 km/h (3 Bft)
06.12.2018 02:48 7,3 °C 92 % 1020,3 hPa 0,0 mm 8,8 km/h (2 Bft) S-SW 207 ° 0 min 0,000 mm 0,0 UV-I 0 W/m² 6,1 °C 5,7 °C 17,7 km/h (3 Bft)
06.12.2018 02:49 7,3 °C 92 % 1020,4 hPa 0,0 mm 4,4 km/h (1 Bft) W 259 ° 0 min 0,000 mm 0,0 UV-I 0 W/m² 6,1 °C 7,3 °C 11,3 km/h (2 Bft)
06.12.2018 02:50 7,3 °C 91 % 1020,3 hPa 0,2 mm 6,2 km/h (2 Bft) SW 236 ° 0 min 0,000 mm 0,0 UV-I 0 W/m² 5,9 °C 6,3 °C 11,3 km/h (2 Bft)
06.12.2018 02:51 7,3 °C 91 % 1020,3 hPa 0,0 mm 5,6 km/h (1 Bft) W 265 ° 0 min 0,000 mm 0,0 UV-I 0 W/m² 5,9 °C 6,5 °C 11,3 km/h (2 Bft)
06.12.2018 02:52 7,3 °C 91 % 1020,4 hPa 0,0 mm 7,5 km/h (2 Bft) SW 225 ° 0 min 0,000 mm 0,0 UV-I 0 W/m² 5,9 °C 6,0 °C 12,9 km/h (3 Bft)
06.12.2018 02:53 7,3 °C 91 % 1020,4 hPa 0,0 mm 5,1 km/h (1 Bft) S-SW 208 ° 0 min 0,000 mm 0,0 UV-I 0 W/m² 5,9 °C 6,7 °C 9,7 km/h (2 Bft)
06.12.2018 02:54 7,4 °C 91 % 1020,3 hPa 0,0 mm 3,9 km/h (1 Bft) W-SW 238 ° 0 min 0,000 mm 0,0 UV-I 0 W/m² 6,0 °C 7,4 °C 6,4 km/h (2 Bft)
06.12.2018 02:55 7,4 °C 91 % 1020,3 hPa 0,2 mm 4,3 km/h (1 Bft) SW 231 ° 0 min 0,000 mm 0,0 UV-I 0 W/m² 6,0 °C 7,4 °C 8,0 km/h (2 Bft)
06.12.2018 02:56 7,4 °C 91 % 1020,3 hPa 0,0 mm 5,0 km/h (1 Bft) S-SW 208 ° 0 min 0,000 mm 0,0 UV-I 0 W/m² 6,0 °C 6,8 °C 8,0 km/h (2 Bft)
06.12.2018 02:57 7,3 °C 91 % 1020,4 hPa 0,0 mm 3,2 km/h (1 Bft) W-SW 256 ° 0 min 0,000 mm 0,0 UV-I 0 W/m² 5,9 °C 7,3 °C 8,0 km/h (2 Bft)
06.12.2018 02:58 7,3 °C 91 % 1020,3 hPa 0,0 mm 4,2 km/h (1 Bft) W-SW 239 ° 0 min 0,000 mm 0,0 UV-I 0 W/m² 5,9 °C 7,3 °C 12,9 km/h (3 Bft)
06.12.2018 02:59 7,4 °C 91 % 1020,3 hPa 0,2 mm 4,1 km/h (1 Bft) S-SW 204 ° 0 min 0,000 mm 0,0 UV-I 0 W/m² 6,0 °C 7,4 °C 8,0 km/h (2 Bft)
06.12.2018 03:00 7,3 °C 91 % 1020,4 hPa 0,0 mm 3,1 km/h (1 Bft) W-SW 237 ° 0 min 0,000 mm 0,0 UV-I 0 W/m² 5,9 °C 7,3 °C 6,4 km/h (2 Bft)
06.12.2018 03:01 7,3 °C 91 % 1020,3 hPa 0,2 mm 5,6 km/h (1 Bft) S-SW 209 ° 0 min 0,000 mm 0,0 UV-I 0 W/m² 5,9 °C 6,5 °C 8,0 km/h (2 Bft)
06.12.2018 03:02 7,3 °C 91 % 1020,3 hPa 0,0 mm 3,9 km/h (1 Bft) SW 221 ° 0 min 0,000 mm 0,0 UV-I 0 W/m² 5,9 °C 7,3 °C 4,8 km/h (1 Bft)
06.12.2018 03:03 7,3 °C 91 % 1020,3 hPa 0,2 mm 3,8 km/h (1 Bft) SW 235 ° 0 min 0,000 mm 0,0 UV-I 0 W/m² 5,9 °C 7,3 °C 4,8 km/h (1 Bft)
06.12.2018 03:04 7,3 °C 91 % 1020,3 hPa 0,0 mm 3,2 km/h (1 Bft) S-SW 201 ° 0 min 0,000 mm 0,0 UV-I 0 W/m² 5,9 °C 7,3 °C 4,8 km/h (1 Bft)
06.12.2018 03:05 7,3 °C 91 % 1020,3 hPa 0,0 mm 4,5 km/h (1 Bft) SW 222 ° 0 min 0,000 mm 0,0 UV-I 0 W/m² 5,9 °C 7,3 °C 6,4 km/h (2 Bft)
06.12.2018 03:06 7,2 °C 91 % 1020,3 hPa 0,2 mm 5,1 km/h (1 Bft) S-SW 198 ° 0 min 0,000 mm 0,0 UV-I 0 W/m² 5,8 °C 6,5 °C 8,0 km/h (2 Bft)
06.12.2018 03:07 7,2 °C 91 % 1020,3 hPa 0,0 mm 5,1 km/h (1 Bft) SW 235 ° 0 min 0,000 mm 0,0 UV-I 0 W/m² 5,8 °C 6,5 °C 9,7 km/h (2 Bft)
06.12.2018 03:08 7,2 °C 91 % 1020,3 hPa 0,0 mm 2,4 km/h (1 Bft) SW 234 ° 0 min 0,000 mm 0,0 UV-I 0 W/m² 5,8 °C 7,2 °C 4,8 km/h (1 Bft)
06.12.2018 03:09 7,2 °C 91 % 1020,3 hPa 0,0 mm 4,7 km/h (1 Bft) S-SW 203 ° 0 min 0,000 mm 0,0 UV-I 0 W/m² 5,8 °C 6,7 °C 8,0 km/h (2 Bft)
06.12.2018 03:10 7,2 °C 91 % 1020,2 hPa 0,0 mm 1,7 km/h (1 Bft) S-SW 192 ° 0 min 0,000 mm 0,0 UV-I 0 W/m² 5,8 °C 7,2 °C 4,8 km/h (1 Bft)
06.12.2018 03:11 7,1 °C 91 % 1020,2 hPa 0,2 mm 2,7 km/h (1 Bft) S-SW 198 ° 0 min 0,000 mm 0,0 UV-I 0 W/m² 5,7 °C 7,1 °C 4,8 km/h (1 Bft)
06.12.2018 03:12 7,1 °C 91 % 1020,2 hPa 0,0 mm 3,8 km/h (1 Bft) W-SW 248 ° 0 min 0,000 mm 0,0 UV-I 0 W/m² 5,7 °C 7,1 °C 6,4 km/h (2 Bft)
06.12.2018 03:13 7,1 °C 91 % 1020,2 hPa 0,0 mm 3,0 km/h (1 Bft) SW 234 ° 0 min 0,000 mm 0,0 UV-I 0 W/m² 5,7 °C 7,1 °C 4,8 km/h (1 Bft)
06.12.2018 03:14 7,1 °C 91 % 1020,1 hPa 0,0 mm 3,7 km/h (1 Bft) S-SW 199 ° 0 min 0,000 mm 0,0 UV-I 0 W/m² 5,7 °C 7,1 °C 8,0 km/h (2 Bft)
06.12.2018 03:15 7,1 °C 91 % 1020,1 hPa 0,0 mm 5,7 km/h (1 Bft) SW 214 ° 0 min 0,000 mm 0,0 UV-I 0 W/m² 5,7 °C 6,2 °C 8,0 km/h (2 Bft)
06.12.2018 03:16 7,0 °C 91 % 1020,1 hPa 0,0 mm 5,8 km/h (2 Bft) SW 233 ° 0 min 0,000 mm 0,0 UV-I 0 W/m² 5,6 °C 6,1 °C 9,7 km/h (2 Bft)
06.12.2018 03:17 7,0 °C 91 % 1020,1 hPa 0,0 mm 3,7 km/h (1 Bft) S-SW 194 ° 0 min 0,000 mm 0,0 UV-I 0 W/m² 5,6 °C 7,0 °C 6,4 km/h (2 Bft)
06.12.2018 03:18 7,0 °C 91 % 1020,1 hPa 0,0 mm 5,5 km/h (1 Bft) S 191 ° 0 min 0,000 mm 0,0 UV-I 0 W/m² 5,6 °C 6,2 °C 9,7 km/h (2 Bft)
06.12.2018 03:19 6,9 °C 92 % 1020,1 hPa 0,0 mm 6,2 km/h (2 Bft) S-SW 198 ° 0 min 0,000 mm 0,0 UV-I 0 W/m² 5,7 °C 5,8 °C 8,0 km/h (2 Bft)
06.12.2018 03:20 6,9 °C 92 % 1020,1 hPa 0,2 mm 8,2 km/h (2 Bft) S 177 ° 0 min 0,000 mm 0,0 UV-I 0 W/m² 5,7 °C 5,3 °C 11,3 km/h (2 Bft)
06.12.2018 03:21 6,9 °C 92 % 1020,1 hPa 0,0 mm 4,5 km/h (1 Bft) SW 219 ° 0 min 0,000 mm 0,0 UV-I 0 W/m² 5,7 °C 6,9 °C 8,0 km/h (2 Bft)
06.12.2018 03:22 6,9 °C 92 % 1020,1 hPa 0,0 mm 4,7 km/h (1 Bft) SW 221 ° 0 min 0,000 mm 0,0 UV-I 0 W/m² 5,7 °C 6,3 °C 8,0 km/h (2 Bft)
06.12.2018 03:23 6,9 °C 92 % 1020,0 hPa 0,0 mm 4,2 km/h (1 Bft) S-SW 195 ° 0 min 0,000 mm 0,0 UV-I 0 W/m² 5,7 °C 6,9 °C 6,4 km/h (2 Bft)
06.12.2018 03:24 6,9 °C 92 % 1020,0 hPa 0,0 mm 3,2 km/h (1 Bft) S-SW 202 ° 0 min 0,000 mm 0,0 UV-I 0 W/m² 5,7 °C 6,9 °C 4,8 km/h (1 Bft)
06.12.2018 03:25 6,9 °C 92 % 1020,0 hPa 0,0 mm 2,3 km/h (1 Bft) S-SW 203 ° 0 min 0,000 mm 0,0 UV-I 0 W/m² 5,7 °C 6,9 °C 4,8 km/h (1 Bft)
06.12.2018 03:26 6,9 °C 92 % 1020,0 hPa 0,0 mm 3,4 km/h (1 Bft) S-SW 198 ° 0 min 0,000 mm 0,0 UV-I 0 W/m² 5,7 °C 6,9 °C 6,4 km/h (2 Bft)
06.12.2018 03:27 6,9 °C 92 % 1020,0 hPa 0,2 mm 2,0 km/h (1 Bft) S-SW 198 ° 0 min 0,000 mm 0,0 UV-I 0 W/m² 5,7 °C 6,9 °C 4,8 km/h (1 Bft)
06.12.2018 03:28 6,9 °C 92 % 1020,0 hPa 0,0 mm 1,7 km/h (1 Bft) S-SW 198 ° 0 min 0,000 mm 0,0 UV-I 0 W/m² 5,7 °C 6,9 °C 3,2 km/h (1 Bft)
06.12.2018 03:29 6,8 °C 92 % 1020,0 hPa 0,0 mm 1,3 km/h (1 Bft) S-SW 198 ° 0 min 0,000 mm 0,0 UV-I 0 W/m² 5,6 °C 6,8 °C 3,2 km/h (1 Bft)
06.12.2018 03:30 6,9 °C 92 % 1020,0 hPa 0,0 mm 3,8 km/h (1 Bft) S-SW 200 ° 0 min 0,000 mm 0,0 UV-I 0 W/m² 5,7 °C 6,9 °C 9,7 km/h (2 Bft)
06.12.2018 03:31 6,8 °C 92 % 1019,9 hPa 0,0 mm 5,0 km/h (1 Bft) S 182 ° 0 min 0,000 mm 0,0 UV-I 0 W/m² 5,6 °C 6,1 °C 8,0 km/h (2 Bft)
06.12.2018 03:32 6,9 °C 92 % 1019,9 hPa 0,0 mm 2,3 km/h (1 Bft) S-SW 207 ° 0 min 0,000 mm 0,0 UV-I 0 W/m² 5,7 °C 6,9 °C 4,8 km/h (1 Bft)
06.12.2018 03:33 6,8 °C 92 % 1019,9 hPa 0,0 mm 1,9 km/h (1 Bft) SW 235 ° 0 min 0,000 mm 0,0 UV-I 0 W/m² 5,6 °C 6,8 °C 4,8 km/h (1 Bft)
06.12.2018 03:34 6,9 °C 92 % 1019,9 hPa 0,2 mm 0,6 km/h (0 Bft) SW 235 ° 0 min 0,000 mm 0,0 UV-I 0 W/m² 5,7 °C 6,9 °C 3,2 km/h (1 Bft)
06.12.2018 03:35 6,8 °C 92 % 1019,9 hPa 0,0 mm 0,0 km/h (0 Bft) SW 235 ° 0 min 0,000 mm 0,0 UV-I 0 W/m² 5,6 °C 6,8 °C 0,0 km/h (0 Bft)
06.12.2018 03:36 6,8 °C 92 % 1019,9 hPa 0,0 mm 0,0 km/h (0 Bft) SW 235 ° 0 min 0,000 mm 0,0 UV-I 0 W/m² 5,6 °C 6,8 °C 0,0 km/h (0 Bft)
06.12.2018 03:37 6,8 °C 92 % 1019,9 hPa 0,0 mm 0,0 km/h (0 Bft) SW 235 ° 0 min 0,000 mm 0,0 UV-I 0 W/m² 5,6 °C 6,8 °C 0,0 km/h (0 Bft)
06.12.2018 03:38 6,8 °C 92 % 1019,7 hPa 0,0 mm 0,0 km/h (0 Bft) SW 235 ° 0 min 0,000 mm 0,0 UV-I 0 W/m² 5,6 °C 6,8 °C 0,0 km/h (0 Bft)
06.12.2018 03:39 6,8 °C 92 % 1019,7 hPa 0,0 mm 0,0 km/h (0 Bft) S 188 ° 0 min 0,000 mm 0,0 UV-I 0 W/m² 5,6 °C 6,8 °C 0,0 km/h (0 Bft)
06.12.2018 03:40 6,8 °C 92 % 1019,6 hPa 0,0 mm 0,0 km/h (0 Bft) S 188 ° 0 min 0,000 mm 0,0 UV-I 0 W/m² 5,6 °C 6,8 °C 0,0 km/h (0 Bft)
06.12.2018 03:41 6,8 °C 92 % 1019,6 hPa 0,0 mm 0,0 km/h (0 Bft) S 188 ° 0 min 0,000 mm 0,0 UV-I 0 W/m² 5,6 °C 6,8 °C 0,0 km/h (0 Bft)
06.12.2018 03:42 6,8 °C 92 % 1019,6 hPa 0,2 mm 0,0 km/h (0 Bft) S 188 ° 0 min 0,000 mm 0,0 UV-I 0 W/m² 5,6 °C 6,8 °C 0,0 km/h (0 Bft)
06.12.2018 03:43 6,8 °C 92 % 1019,5 hPa 0,0 mm 0,0 km/h (0 Bft) S 188 ° 0 min 0,000 mm 0,0 UV-I 0 W/m² 5,6 °C 6,8 °C 0,0 km/h (0 Bft)
06.12.2018 03:44 6,8 °C 92 % 1019,5 hPa 0,0 mm 0,0 km/h (0 Bft) S 188 ° 0 min 0,000 mm 0,0 UV-I 0 W/m² 5,6 °C 6,8 °C 0,0 km/h (0 Bft)
06.12.2018 03:45 6,8 °C 92 % 1019,4 hPa 0,0 mm 0,0 km/h (0 Bft) S 188 ° 0 min 0,000 mm 0,0 UV-I 0 W/m² 5,6 °C 6,8 °C 0,0 km/h (0 Bft)
06.12.2018 03:46 6,8 °C 92 % 1019,5 hPa 0,0 mm 0,0 km/h (0 Bft) S 188 ° 0 min 0,000 mm 0,0 UV-I 0 W/m² 5,6 °C 6,8 °C 0,0 km/h (0 Bft)
06.12.2018 03:47 6,7 °C 92 % 1019,4 hPa 0,0 mm 0,0 km/h (0 Bft) S 188 ° 0 min 0,000 mm 0,0 UV-I 0 W/m² 5,5 °C 6,7 °C 0,0 km/h (0 Bft)
06.12.2018 03:48 6,8 °C 92 % 1019,4 hPa 0,0 mm 0,0 km/h (0 Bft) S 188 ° 0 min 0,000 mm 0,0 UV-I 0 W/m² 5,6 °C 6,8 °C 0,0 km/h (0 Bft)
06.12.2018 03:49 6,8 °C 93 % 1019,3 hPa 0,0 mm 0,0 km/h (0 Bft) S 188 ° 0 min 0,000 mm 0,0 UV-I 0 W/m² 5,7 °C 6,8 °C 0,0 km/h (0 Bft)
06.12.2018 03:50 6,7 °C 93 % 1019,3 hPa 0,0 mm 0,0 km/h (0 Bft) S 188 ° 0 min 0,000 mm 0,0 UV-I 0 W/m² 5,6 °C 6,7 °C 0,0 km/h (0 Bft)
06.12.2018 03:51 6,8 °C 93 % 1019,3 hPa 0,0 mm 0,0 km/h (0 Bft) S 188 ° 0 min 0,000 mm 0,0 UV-I 0 W/m² 5,7 °C 6,8 °C 0,0 km/h (0 Bft)
06.12.2018 03:52 6,7 °C 93 % 1019,3 hPa 0,2 mm 0,0 km/h (0 Bft) S 188 ° 0 min 0,000 mm 0,0 UV-I 0 W/m² 5,6 °C 6,7 °C 0,0 km/h (0 Bft)
06.12.2018 03:53 6,7 °C 93 % 1019,3 hPa 0,0 mm 0,0 km/h (0 Bft) S 188 ° 0 min 0,000 mm 0,0 UV-I 0 W/m² 5,6 °C 6,7 °C 0,0 km/h (0 Bft)
06.12.2018 03:54 6,7 °C 93 % 1019,2 hPa 0,0 mm 0,0 km/h (0 Bft) S 188 ° 0 min 0,000 mm 0,0 UV-I 0 W/m² 5,6 °C 6,7 °C 0,0 km/h (0 Bft)
06.12.2018 03:55 6,7 °C 93 % 1019,2 hPa 0,0 mm 0,0 km/h (0 Bft) S 188 ° 0 min 0,000 mm 0,0 UV-I 0 W/m² 5,6 °C 6,7 °C 0,0 km/h (0 Bft)
06.12.2018 03:56 6,7 °C 93 % 1019,1 hPa 0,0 mm 0,0 km/h (0 Bft) S 188 ° 0 min 0,000 mm 0,0 UV-I 0 W/m² 5,6 °C 6,7 °C 0,0 km/h (0 Bft)
06.12.2018 03:57 6,7 °C 93 % 1019,1 hPa 0,0 mm 0,0 km/h (0 Bft) S 188 ° 0 min 0,000 mm 0,0 UV-I 0 W/m² 5,6 °C 6,7 °C 0,0 km/h (0 Bft)
06.12.2018 03:58 6,7 °C 93 % 1019,1 hPa 0,0 mm 0,0 km/h (0 Bft) S 188 ° 0 min 0,000 mm 0,0 UV-I 0 W/m² 5,6 °C 6,7 °C 0,0 km/h (0 Bft)
06.12.2018 03:59 6,7 °C 93 % 1019,1 hPa 0,0 mm 0,0 km/h (0 Bft) S 188 ° 0 min 0,000 mm 0,0 UV-I 0 W/m² 5,6 °C 6,7 °C 0,0 km/h (0 Bft)
06.12.2018 04:00 6,7 °C 93 % 1019,1 hPa 0,0 mm 0,0 km/h (0 Bft) S 188 ° 0 min 0,000 mm 0,0 UV-I 0 W/m² 5,6 °C 6,7 °C 0,0 km/h (0 Bft)
06.12.2018 04:01 6,6 °C 93 % 1019,1 hPa 0,0 mm 0,0 km/h (0 Bft) S 188 ° 0 min 0,000 mm 0,0 UV-I 0 W/m² 5,6 °C 6,6 °C 0,0 km/h (0 Bft)
06.12.2018 04:02 6,6 °C 93 % 1019,1 hPa 0,0 mm 0,0 km/h (0 Bft) S 188 ° 0 min 0,000 mm 0,0 UV-I 0 W/m² 5,6 °C 6,6 °C 0,0 km/h (0 Bft)
06.12.2018 04:03 6,6 °C 93 % 1019,0 hPa 0,0 mm 0,0 km/h (0 Bft) S 188 ° 0 min 0,000 mm 0,0 UV-I 0 W/m² 5,6 °C 6,6 °C 0,0 km/h (0 Bft)
06.12.2018 04:04 6,6 °C 93 % 1019,0 hPa 0,0 mm 0,0 km/h (0 Bft) S 188 ° 0 min 0,000 mm 0,0 UV-I 0 W/m² 5,6 °C 6,6 °C 0,0 km/h (0 Bft)
06.12.2018 04:05 6,6 °C 93 % 1019,0 hPa 0,0 mm 0,0 km/h (0 Bft) S 188 ° 0 min 0,000 mm 0,0 UV-I 0 W/m² 5,6 °C 6,6 °C 0,0 km/h (0 Bft)
06.12.2018 04:06 6,6 °C 93 % 1019,0 hPa 0,0 mm 0,0 km/h (0 Bft) S 188 ° 0 min 0,000 mm 0,0 UV-I 0 W/m² 5,6 °C 6,6 °C 0,0 km/h (0 Bft)
06.12.2018 04:07 6,6 °C 93 % 1019,0 hPa 0,0 mm 0,0 km/h (0 Bft) S 188 ° 0 min 0,000 mm 0,0 UV-I 0 W/m² 5,6 °C 6,6 °C 0,0 km/h (0 Bft)
06.12.2018 04:08 6,6 °C 93 % 1018,9 hPa 0,0 mm 0,0 km/h (0 Bft) S 188 ° 0 min 0,000 mm 0,0 UV-I 0 W/m² 5,6 °C 6,6 °C 0,0 km/h (0 Bft)
06.12.2018 04:09 6,5 °C 93 % 1018,9 hPa 0,0 mm 0,0 km/h (0 Bft) S 188 ° 0 min 0,000 mm 0,0 UV-I 0 W/m² 5,5 °C 6,5 °C 0,0 km/h (0 Bft)
06.12.2018 04:10 6,5 °C 93 % 1019,0 hPa 0,0 mm 0,0 km/h (0 Bft) S 188 ° 0 min 0,000 mm 0,0 UV-I 0 W/m² 5,5 °C 6,5 °C 0,0 km/h (0 Bft)
06.12.2018 04:11 6,5 °C 93 % 1019,0 hPa 0,0 mm 0,0 km/h (0 Bft) S 188 ° 0 min 0,000 mm 0,0 UV-I 0 W/m² 5,5 °C 6,5 °C 0,0 km/h (0 Bft)
06.12.2018 04:12 6,5 °C 93 % 1018,9 hPa 0,0 mm 0,0 km/h (0 Bft) S 188 ° 0 min 0,000 mm 0,0 UV-I 0 W/m² 5,5 °C 6,5 °C 0,0 km/h (0 Bft)
06.12.2018 04:13 6,5 °C 93 % 1019,0 hPa 0,0 mm 0,0 km/h (0 Bft) S 188 ° 0 min 0,000 mm 0,0 UV-I 0 W/m² 5,5 °C 6,5 °C 0,0 km/h (0 Bft)
06.12.2018 04:14 6,4 °C 93 % 1019,0 hPa 0,0 mm 0,0 km/h (0 Bft) S 188 ° 0 min 0,000 mm 0,0 UV-I 0 W/m² 5,4 °C 6,4 °C 0,0 km/h (0 Bft)
06.12.2018 04:15 6,4 °C 93 % 1019,0 hPa 0,0 mm 0,0 km/h (0 Bft) S 188 ° 0 min 0,000 mm 0,0 UV-I 0 W/m² 5,4 °C 6,4 °C 0,0 km/h (0 Bft)
06.12.2018 04:16 6,4 °C 93 % 1018,9 hPa 0,0 mm 0,0 km/h (0 Bft) S 188 ° 0 min 0,000 mm 0,0 UV-I 0 W/m² 5,4 °C 6,4 °C 0,0 km/h (0 Bft)
06.12.2018 04:17 6,4 °C 93 % 1018,9 hPa 0,0 mm 0,0 km/h (0 Bft) S 188 ° 0 min 0,000 mm 0,0 UV-I 0 W/m² 5,4 °C 6,4 °C 0,0 km/h (0 Bft)
06.12.2018 04:18 6,4 °C 93 % 1018,9 hPa 0,0 mm 0,0 km/h (0 Bft) S 188 ° 0 min 0,000 mm 0,0 UV-I 0 W/m² 5,4 °C 6,4 °C 0,0 km/h (0 Bft)
06.12.2018 04:19 6,4 °C 93 % 1018,9 hPa 0,0 mm 0,0 km/h (0 Bft) S 188 ° 0 min 0,000 mm 0,0 UV-I 0 W/m² 5,4 °C 6,4 °C 0,0 km/h (0 Bft)
06.12.2018 04:20 6,4 °C 93 % 1018,9 hPa 0,0 mm 0,0 km/h (0 Bft) S 188 ° 0 min 0,000 mm 0,0 UV-I 0 W/m² 5,4 °C 6,4 °C 0,0 km/h (0 Bft)
06.12.2018 04:21 6,4 °C 93 % 1018,9 hPa 0,0 mm 0,0 km/h (0 Bft) S 188 ° 0 min 0,000 mm 0,0 UV-I 0 W/m² 5,4 °C 6,4 °C 0,0 km/h (0 Bft)
06.12.2018 04:22 6,4 °C 93 % 1018,9 hPa 0,0 mm 0,0 km/h (0 Bft) S 188 ° 0 min 0,000 mm 0,0 UV-I 0 W/m² 5,4 °C 6,4 °C 0,0 km/h (0 Bft)
06.12.2018 04:23 6,4 °C 93 % 1018,9 hPa 0,0 mm 0,0 km/h (0 Bft) S 188 ° 0 min 0,000 mm 0,0 UV-I 0 W/m² 5,4 °C 6,4 °C 0,0 km/h (0 Bft)
06.12.2018 04:24 6,4 °C 93 % 1018,9 hPa 0,0 mm 0,0 km/h (0 Bft) S 188 ° 0 min 0,000 mm 0,0 UV-I 0 W/m² 5,4 °C 6,4 °C 0,0 km/h (0 Bft)
06.12.2018 04:25 6,4 °C 93 % 1018,9 hPa 0,0 mm 0,0 km/h (0 Bft) S 188 ° 0 min 0,000 mm 0,0 UV-I 0 W/m² 5,4 °C 6,4 °C 0,0 km/h (0 Bft)
06.12.2018 04:26 6,3 °C 93 % 1018,9 hPa 0,0 mm 0,0 km/h (0 Bft) S 188 ° 0 min 0,000 mm 0,0 UV-I 0 W/m² 5,3 °C 6,3 °C 0,0 km/h (0 Bft)
06.12.2018 04:27 6,3 °C 93 % 1018,9 hPa 0,0 mm 0,0 km/h (0 Bft) S 188 ° 0 min 0,000 mm 0,0 UV-I 0 W/m² 5,3 °C 6,3 °C 0,0 km/h (0 Bft)
06.12.2018 04:28 6,3 °C 93 % 1018,9 hPa 0,0 mm 0,0 km/h (0 Bft) S 188 ° 0 min 0,000 mm 0,0 UV-I 0 W/m² 5,3 °C 6,3 °C 0,0 km/h (0 Bft)
06.12.2018 04:29 6,3 °C 93 % 1018,9 hPa 0,0 mm 0,0 km/h (0 Bft) S 188 ° 0 min 0,000 mm 0,0 UV-I 0 W/m² 5,3 °C 6,3 °C 0,0 km/h (0 Bft)
06.12.2018 04:30 6,3 °C 93 % 1018,8 hPa 0,0 mm 0,0 km/h (0 Bft) S 188 ° 0 min 0,000 mm 0,0 UV-I 0 W/m² 5,3 °C 6,3 °C 0,0 km/h (0 Bft)
06.12.2018 04:31 6,3 °C 93 % 1018,8 hPa 0,0 mm 0,0 km/h (0 Bft) S 188 ° 0 min 0,000 mm 0,0 UV-I 0 W/m² 5,3 °C 6,3 °C 0,0 km/h (0 Bft)
06.12.2018 04:32 6,3 °C 93 % 1018,8 hPa 0,0 mm 0,0 km/h (0 Bft) S 188 ° 0 min 0,000 mm 0,0 UV-I 0 W/m² 5,3 °C 6,3 °C 0,0 km/h (0 Bft)
06.12.2018 04:33 6,3 °C 93 % 1018,8 hPa 0,0 mm 0,0 km/h (0 Bft) S 188 ° 0 min 0,000 mm 0,0 UV-I 0 W/m² 5,3 °C 6,3 °C 0,0 km/h (0 Bft)
06.12.2018 04:34 6,3 °C 93 % 1018,9 hPa 0,0 mm 0,0 km/h (0 Bft) S 188 ° 0 min 0,000 mm 0,0 UV-I 0 W/m² 5,3 °C 6,3 °C 0,0 km/h (0 Bft)
06.12.2018 04:35 6,3 °C 93 % 1018,8 hPa 0,0 mm 0,0 km/h (0 Bft) S 188 ° 0 min 0,000 mm 0,0 UV-I 0 W/m² 5,3 °C 6,3 °C 0,0 km/h (0 Bft)
06.12.2018 04:36 6,3 °C 93 % 1018,9 hPa 0,0 mm 0,0 km/h (0 Bft) SW 229 ° 0 min 0,000 mm 0,0 UV-I 0 W/m² 5,3 °C 6,3 °C 0,0 km/h (0 Bft)
06.12.2018 04:37 6,3 °C 93 % 1018,8 hPa 0,0 mm 0,0 km/h (0 Bft) SW 229 ° 0 min 0,000 mm 0,0 UV-I 0 W/m² 5,3 °C 6,3 °C 0,0 km/h (0 Bft)
06.12.2018 04:38 6,3 °C 93 % 1018,9 hPa 0,0 mm 0,0 km/h (0 Bft) SW 229 ° 0 min 0,000 mm 0,0 UV-I 0 W/m² 5,3 °C 6,3 °C 0,0 km/h (0 Bft)
06.12.2018 04:39 6,3 °C 93 % 1018,8 hPa 0,0 mm 0,0 km/h (0 Bft) SW 229 ° 0 min 0,000 mm 0,0 UV-I 0 W/m² 5,3 °C 6,3 °C 0,0 km/h (0 Bft)
06.12.2018 04:40 6,3 °C 93 % 1018,8 hPa 0,0 mm 0,0 km/h (0 Bft) SW 229 ° 0 min 0,000 mm 0,0 UV-I 0 W/m² 5,3 °C 6,3 °C 0,0 km/h (0 Bft)
06.12.2018 04:41 6,3 °C 93 % 1018,8 hPa 0,0 mm 0,0 km/h (0 Bft) SW 229 ° 0 min 0,000 mm 0,0 UV-I 0 W/m² 5,3 °C 6,3 °C 0,0 km/h (0 Bft)
06.12.2018 04:42 6,3 °C 93 % 1018,8 hPa 0,0 mm 0,0 km/h (0 Bft) SW 229 ° 0 min 0,000 mm 0,0 UV-I 0 W/m² 5,3 °C 6,3 °C 0,0 km/h (0 Bft)
06.12.2018 04:43 6,3 °C 93 % 1018,8 hPa 0,0 mm 0,0 km/h (0 Bft) SW 229 ° 0 min 0,000 mm 0,0 UV-I 0 W/m² 5,3 °C 6,3 °C 0,0 km/h (0 Bft)
06.12.2018 04:44 6,3 °C 93 % 1018,8 hPa 0,0 mm 0,0 km/h (0 Bft) SW 229 ° 0 min 0,000 mm 0,0 UV-I 0 W/m² 5,3 °C 6,3 °C 0,0 km/h (0 Bft)
06.12.2018 04:45 6,3 °C 93 % 1018,8 hPa 0,0 mm 0,0 km/h (0 Bft) SW 229 ° 0 min 0,000 mm 0,0 UV-I 0 W/m² 5,3 °C 6,3 °C 0,0 km/h (0 Bft)
06.12.2018 04:46 6,2 °C 93 % 1018,8 hPa 0,0 mm 0,0 km/h (0 Bft) SW 229 ° 0 min 0,000 mm 0,0 UV-I 0 W/m² 5,2 °C 6,2 °C 0,0 km/h (0 Bft)
06.12.2018 04:47 6,2 °C 93 % 1018,8 hPa 0,0 mm 0,0 km/h (0 Bft) SW 229 ° 0 min 0,000 mm 0,0 UV-I 0 W/m² 5,2 °C 6,2 °C 0,0 km/h (0 Bft)
06.12.2018 04:48 6,2 °C 93 % 1018,8 hPa 0,0 mm 0,0 km/h (0 Bft) SW 229 ° 0 min 0,000 mm 0,0 UV-I 0 W/m² 5,2 °C 6,2 °C 0,0 km/h (0 Bft)
06.12.2018 04:49 6,2 °C 93 % 1018,8 hPa 0,0 mm 0,0 km/h (0 Bft) SW 229 ° 0 min 0,000 mm 0,0 UV-I 0 W/m² 5,2 °C 6,2 °C 0,0 km/h (0 Bft)
06.12.2018 04:50 6,2 °C 93 % 1018,7 hPa 0,0 mm 0,0 km/h (0 Bft) SW 229 ° 0 min 0,000 mm 0,0 UV-I 0 W/m² 5,2 °C 6,2 °C 0,0 km/h (0 Bft)
06.12.2018 04:51 6,2 °C 93 % 1018,7 hPa 0,0 mm 0,0 km/h (0 Bft) SW 229 ° 0 min 0,000 mm 0,0 UV-I 0 W/m² 5,2 °C 6,2 °C 0,0 km/h (0 Bft)
06.12.2018 04:52 6,2 °C 93 % 1018,8 hPa 0,0 mm 0,0 km/h (0 Bft) SW 229 ° 0 min 0,000 mm 0,0 UV-I 0 W/m² 5,2 °C 6,2 °C 0,0 km/h (0 Bft)
06.12.2018 04:53 6,2 °C 93 % 1018,7 hPa 0,0 mm 0,0 km/h (0 Bft) SW 229 ° 0 min 0,000 mm 0,0 UV-I 0 W/m² 5,2 °C 6,2 °C 0,0 km/h (0 Bft)
06.12.2018 04:54 6,2 °C 93 % 1018,7 hPa 0,0 mm 0,0 km/h (0 Bft) SW 229 ° 0 min 0,000 mm 0,0 UV-I 0 W/m² 5,2 °C 6,2 °C 0,0 km/h (0 Bft)
06.12.2018 04:55 6,2 °C 93 % 1018,7 hPa 0,0 mm 0,0 km/h (0 Bft) SW 229 ° 0 min 0,000 mm 0,0 UV-I 0 W/m² 5,2 °C 6,2 °C 0,0 km/h (0 Bft)
06.12.2018 04:56 6,2 °C 93 % 1018,7 hPa 0,0 mm 0,0 km/h (0 Bft) SW 229 ° 0 min 0,000 mm 0,0 UV-I 0 W/m² 5,2 °C 6,2 °C 0,0 km/h (0 Bft)
06.12.2018 04:57 6,2 °C 93 % 1018,8 hPa 0,0 mm 0,0 km/h (0 Bft) SW 229 ° 0 min 0,000 mm 0,0 UV-I 0 W/m² 5,2 °C 6,2 °C 0,0 km/h (0 Bft)
06.12.2018 04:58 6,2 °C 93 % 1018,7 hPa 0,0 mm 0,0 km/h (0 Bft) SW 229 ° 0 min 0,000 mm 0,0 UV-I 0 W/m² 5,2 °C 6,2 °C 0,0 km/h (0 Bft)
06.12.2018 04:59 6,1 °C 93 % 1018,8 hPa 0,0 mm 0,0 km/h (0 Bft) SW 229 ° 0 min 0,000 mm 0,0 UV-I 0 W/m² 5,1 °C 6,1 °C 0,0 km/h (0 Bft)
06.12.2018 05:00 6,2 °C 93 % 1018,7 hPa 0,0 mm 0,0 km/h (0 Bft) SW 229 ° 0 min 0,000 mm 0,0 UV-I 0 W/m² 5,2 °C 6,2 °C 0,0 km/h (0 Bft)
06.12.2018 05:01 6,2 °C 93 % 1018,8 hPa 0,0 mm 0,0 km/h (0 Bft) SW 229 ° 0 min 0,000 mm 0,0 UV-I 0 W/m² 5,2 °C 6,2 °C 0,0 km/h (0 Bft)
06.12.2018 05:02 6,1 °C 93 % 1018,8 hPa 0,0 mm 0,0 km/h (0 Bft) SW 229 ° 0 min 0,000 mm 0,0 UV-I 0 W/m² 5,1 °C 6,1 °C 0,0 km/h (0 Bft)
06.12.2018 05:03 6,1 °C 93 % 1018,7 hPa 0,0 mm 0,0 km/h (0 Bft) SW 229 ° 0 min 0,000 mm 0,0 UV-I 0 W/m² 5,1 °C 6,1 °C 0,0 km/h (0 Bft)
06.12.2018 05:04 6,1 °C 93 % 1018,7 hPa 0,0 mm 0,0 km/h (0 Bft) SW 229 ° 0 min 0,000 mm 0,0 UV-I 0 W/m² 5,1 °C 6,1 °C 0,0 km/h (0 Bft)
06.12.2018 05:05 6,1 °C 94 % 1018,7 hPa 0,0 mm 0,0 km/h (0 Bft) SW 229 ° 0 min 0,000 mm 0,0 UV-I 0 W/m² 5,2 °C 6,1 °C 0,0 km/h (0 Bft)
06.12.2018 05:06 6,1 °C 94 % 1018,8 hPa 0,0 mm 0,0 km/h (0 Bft) SW 229 ° 0 min 0,000 mm 0,0 UV-I 0 W/m² 5,2 °C 6,1 °C 0,0 km/h (0 Bft)
06.12.2018 05:07 6,1 °C 93 % 1018,8 hPa 0,0 mm 0,0 km/h (0 Bft) SW 229 ° 0 min 0,000 mm 0,0 UV-I 0 W/m² 5,1 °C 6,1 °C 0,0 km/h (0 Bft)
06.12.2018 05:08 6,1 °C 94 % 1018,7 hPa 0,0 mm 0,0 km/h (0 Bft) SW 229 ° 0 min 0,000 mm 0,0 UV-I 0 W/m² 5,2 °C 6,1 °C 0,0 km/h (0 Bft)
06.12.2018 05:09 6,1 °C 94 % 1018,7 hPa 0,0 mm 0,0 km/h (0 Bft) SW 229 ° 0 min 0,000 mm 0,0 UV-I 0 W/m² 5,2 °C 6,1 °C 0,0 km/h (0 Bft)
06.12.2018 05:10 6,0 °C 94 % 1018,7 hPa 0,0 mm 0,0 km/h (0 Bft) SW 229 ° 0 min 0,000 mm 0,0 UV-I 0 W/m² 5,1 °C 6,0 °C 0,0 km/h (0 Bft)
06.12.2018 05:11 6,1 °C 94 % 1018,7 hPa 0,0 mm 0,0 km/h (0 Bft) SW 229 ° 0 min 0,000 mm 0,0 UV-I 0 W/m² 5,2 °C 6,1 °C 0,0 km/h (0 Bft)
06.12.2018 05:12 6,0 °C 94 % 1018,6 hPa 0,0 mm 0,0 km/h (0 Bft) SW 229 ° 0 min 0,000 mm 0,0 UV-I 0 W/m² 5,1 °C 6,0 °C 0,0 km/h (0 Bft)
06.12.2018 05:13 6,0 °C 94 % 1018,7 hPa 0,0 mm 0,0 km/h (0 Bft) SW 229 ° 0 min 0,000 mm 0,0 UV-I 0 W/m² 5,1 °C 6,0 °C 0,0 km/h (0 Bft)
06.12.2018 05:14 6,0 °C 94 % 1018,7 hPa 0,0 mm 0,0 km/h (0 Bft) SW 229 ° 0 min 0,000 mm 0,0 UV-I 0 W/m² 5,1 °C 6,0 °C 0,0 km/h (0 Bft)
06.12.2018 05:15 5,9 °C 94 % 1018,6 hPa 0,0 mm 0,0 km/h (0 Bft) SW 229 ° 0 min 0,000 mm 0,0 UV-I 0 W/m² 5,0 °C 5,9 °C 0,0 km/h (0 Bft)
06.12.2018 05:16 5,9 °C 94 % 1018,6 hPa 0,0 mm 0,0 km/h (0 Bft) SW 229 ° 0 min 0,000 mm 0,0 UV-I 0 W/m² 5,0 °C 5,9 °C 0,0 km/h (0 Bft)
06.12.2018 05:17 5,9 °C 94 % 1018,6 hPa 0,0 mm 0,0 km/h (0 Bft) SW 229 ° 0 min 0,000 mm 0,0 UV-I 0 W/m² 5,0 °C 5,9 °C 0,0 km/h (0 Bft)
06.12.2018 05:18 5,9 °C 94 % 1018,6 hPa 0,0 mm 0,0 km/h (0 Bft) SW 229 ° 0 min 0,000 mm 0,0 UV-I 0 W/m² 5,0 °C 5,9 °C 0,0 km/h (0 Bft)
06.12.2018 05:19 5,9 °C 94 % 1018,6 hPa 0,0 mm 0,0 km/h (0 Bft) SW 229 ° 0 min 0,000 mm 0,0 UV-I 0 W/m² 5,0 °C 5,9 °C 0,0 km/h (0 Bft)
06.12.2018 05:20 5,9 °C 94 % 1018,5 hPa 0,0 mm 0,0 km/h (0 Bft) SW 229 ° 0 min 0,000 mm 0,0 UV-I 0 W/m² 5,0 °C 5,9 °C 0,0 km/h (0 Bft)
06.12.2018 05:21 5,9 °C 94 % 1018,5 hPa 0,0 mm 0,0 km/h (0 Bft) SW 229 ° 0 min 0,000 mm 0,0 UV-I 0 W/m² 5,0 °C 5,9 °C 0,0 km/h (0 Bft)
06.12.2018 05:22 5,9 °C 94 % 1018,6 hPa 0,0 mm 0,0 km/h (0 Bft) SW 229 ° 0 min 0,000 mm 0,0 UV-I 0 W/m² 5,0 °C 5,9 °C 0,0 km/h (0 Bft)
06.12.2018 05:23 5,9 °C 94 % 1018,5 hPa 0,0 mm 0,0 km/h (0 Bft) SW 229 ° 0 min 0,000 mm 0,0 UV-I 0 W/m² 5,0 °C 5,9 °C 0,0 km/h (0 Bft)
06.12.2018 05:24 5,9 °C 94 % 1018,5 hPa 0,0 mm 0,0 km/h (0 Bft) SW 229 ° 0 min 0,000 mm 0,0 UV-I 0 W/m² 5,0 °C 5,9 °C 0,0 km/h (0 Bft)
06.12.2018 05:25 5,9 °C 93 % 1018,5 hPa 0,0 mm 0,0 km/h (0 Bft) SW 229 ° 0 min 0,000 mm 0,0 UV-I 0 W/m² 4,9 °C 5,9 °C 0,0 km/h (0 Bft)
06.12.2018 05:26 5,9 °C 94 % 1018,5 hPa 0,0 mm 0,0 km/h (0 Bft) SW 229 ° 0 min 0,000 mm 0,0 UV-I 0 W/m² 5,0 °C 5,9 °C 0,0 km/h (0 Bft)
06.12.2018 05:27 5,9 °C 94 % 1018,5 hPa 0,0 mm 0,0 km/h (0 Bft) SW 229 ° 0 min 0,000 mm 0,0 UV-I 0 W/m² 5,0 °C 5,9 °C 0,0 km/h (0 Bft)
06.12.2018 05:28 5,9 °C 94 % 1018,5 hPa 0,0 mm 0,0 km/h (0 Bft) SW 229 ° 0 min 0,000 mm 0,0 UV-I 0 W/m² 5,0 °C 5,9 °C 0,0 km/h (0 Bft)
06.12.2018 05:29 5,9 °C 94 % 1018,5 hPa 0,0 mm 0,0 km/h (0 Bft) SW 229 ° 0 min 0,000 mm 0,0 UV-I 0 W/m² 5,0 °C 5,9 °C 0,0 km/h (0 Bft)
06.12.2018 05:30 5,9 °C 94 % 1018,5 hPa 0,0 mm 0,0 km/h (0 Bft) SW 229 ° 0 min 0,000 mm 0,0 UV-I 0 W/m² 5,0 °C 5,9 °C 0,0 km/h (0 Bft)
06.12.2018 05:31 5,8 °C 94 % 1018,4 hPa 0,0 mm 0,0 km/h (0 Bft) SW 229 ° 0 min 0,000 mm 0,0 UV-I 0 W/m² 4,9 °C 5,8 °C 0,0 km/h (0 Bft)
06.12.2018 05:32 5,8 °C 94 % 1018,4 hPa 0,0 mm 0,0 km/h (0 Bft) SW 229 ° 0 min 0,000 mm 0,0 UV-I 0 W/m² 4,9 °C 5,8 °C 0,0 km/h (0 Bft)
06.12.2018 05:33 5,8 °C 94 % 1018,5 hPa 0,0 mm 0,0 km/h (0 Bft) SW 229 ° 0 min 0,000 mm 0,0 UV-I 0 W/m² 4,9 °C 5,8 °C 0,0 km/h (0 Bft)
06.12.2018 05:34 5,8 °C 94 % 1018,4 hPa 0,0 mm 0,0 km/h (0 Bft) SW 229 ° 0 min 0,000 mm 0,0 UV-I 0 W/m² 4,9 °C 5,8 °C 0,0 km/h (0 Bft)
06.12.2018 05:35 5,8 °C 94 % 1018,4 hPa 0,0 mm 0,0 km/h (0 Bft) SW 229 ° 0 min 0,000 mm 0,0 UV-I 0 W/m² 4,9 °C 5,8 °C 0,0 km/h (0 Bft)
06.12.2018 05:36 5,8 °C 93 % 1018,4 hPa 0,0 mm 0,0 km/h (0 Bft) SW 229 ° 0 min 0,000 mm 0,0 UV-I 0 W/m² 4,8 °C 5,8 °C 0,0 km/h (0 Bft)
06.12.2018 05:37 5,8 °C 94 % 1018,4 hPa 0,0 mm 0,0 km/h (0 Bft) SW 229 ° 0 min 0,000 mm 0,0 UV-I 0 W/m² 4,9 °C 5,8 °C 0,0 km/h (0 Bft)
06.12.2018 05:38 5,8 °C 94 % 1018,4 hPa 0,0 mm 0,0 km/h (0 Bft) SW 229 ° 0 min 0,000 mm 0,0 UV-I 0 W/m² 4,9 °C 5,8 °C 0,0 km/h (0 Bft)
06.12.2018 05:39 5,8 °C 94 % 1018,4 hPa 0,0 mm 0,0 km/h (0 Bft) SW 229 ° 0 min 0,000 mm 0,0 UV-I 0 W/m² 4,9 °C 5,8 °C 0,0 km/h (0 Bft)
06.12.2018 05:40 5,8 °C 94 % 1018,3 hPa 0,0 mm 0,0 km/h (0 Bft) SW 229 ° 0 min 0,000 mm 0,0 UV-I 0 W/m² 4,9 °C 5,8 °C 0,0 km/h (0 Bft)
06.12.2018 05:41 5,8 °C 94 % 1018,3 hPa 0,0 mm 0,0 km/h (0 Bft) SW 229 ° 0 min 0,000 mm 0,0 UV-I 0 W/m² 4,9 °C 5,8 °C 0,0 km/h (0 Bft)
06.12.2018 05:42 5,7 °C 94 % 1018,3 hPa 0,0 mm 0,0 km/h (0 Bft) SW 229 ° 0 min 0,000 mm 0,0 UV-I 0 W/m² 4,8 °C 5,7 °C 0,0 km/h (0 Bft)
06.12.2018 05:43 5,7 °C 94 % 1018,3 hPa 0,0 mm 0,0 km/h (0 Bft) SW 229 ° 0 min 0,000 mm 0,0 UV-I 0 W/m² 4,8 °C 5,7 °C 0,0 km/h (0 Bft)
06.12.2018 05:44 5,7 °C 94 % 1018,3 hPa 0,0 mm 0,0 km/h (0 Bft) SW 229 ° 0 min 0,000 mm 0,0 UV-I 0 W/m² 4,8 °C 5,7 °C 0,0 km/h (0 Bft)
06.12.2018 05:45 5,7 °C 94 % 1018,3 hPa 0,0 mm 0,0 km/h (0 Bft) SW 229 ° 0 min 0,000 mm 0,0 UV-I 0 W/m² 4,8 °C 5,7 °C 0,0 km/h (0 Bft)
06.12.2018 05:46 5,7 °C 94 % 1018,3 hPa 0,0 mm 0,0 km/h (0 Bft) SW 229 ° 0 min 0,000 mm 0,0 UV-I 0 W/m² 4,8 °C 5,7 °C 0,0 km/h (0 Bft)
06.12.2018 05:47 5,7 °C 94 % 1018,3 hPa 0,0 mm 0,0 km/h (0 Bft) SW 229 ° 0 min 0,000 mm 0,0 UV-I 0 W/m² 4,8 °C 5,7 °C 0,0 km/h (0 Bft)
06.12.2018 05:48 5,6 °C 94 % 1018,4 hPa 0,0 mm 0,0 km/h (0 Bft) SW 229 ° 0 min 0,000 mm 0,0 UV-I 0 W/m² 4,7 °C 5,6 °C 0,0 km/h (0 Bft)
06.12.2018 05:49 5,6 °C 94 % 1018,3 hPa 0,0 mm 0,0 km/h (0 Bft) SW 229 ° 0 min 0,000 mm 0,0 UV-I 0 W/m² 4,7 °C 5,6 °C 0,0 km/h (0 Bft)
06.12.2018 05:50 5,6 °C 94 % 1018,3 hPa 0,0 mm 0,0 km/h (0 Bft) SW 229 ° 0 min 0,000 mm 0,0 UV-I 0 W/m² 4,7 °C 5,6 °C 0,0 km/h (0 Bft)
06.12.2018 05:51 5,6 °C 94 % 1018,4 hPa 0,0 mm 0,0 km/h (0 Bft) SW 229 ° 0 min 0,000 mm 0,0 UV-I 0 W/m² 4,7 °C 5,6 °C 0,0 km/h (0 Bft)
06.12.2018 05:52 5,6 °C 94 % 1018,4 hPa 0,0 mm 0,0 km/h (0 Bft) SW 229 ° 0 min 0,000 mm 0,0 UV-I 0 W/m² 4,7 °C 5,6 °C 0,0 km/h (0 Bft)
06.12.2018 05:53 5,6 °C 94 % 1018,4 hPa 0,0 mm 0,0 km/h (0 Bft) SW 229 ° 0 min 0,000 mm 0,0 UV-I 0 W/m² 4,7 °C 5,6 °C 0,0 km/h (0 Bft)
06.12.2018 05:54 5,6 °C 94 % 1018,3 hPa 0,0 mm 0,0 km/h (0 Bft) SW 229 ° 0 min 0,000 mm 0,0 UV-I 0 W/m² 4,7 °C 5,6 °C 0,0 km/h (0 Bft)
06.12.2018 05:55 5,6 °C 94 % 1018,3 hPa 0,0 mm 0,0 km/h (0 Bft) SW 229 ° 0 min 0,000 mm 0,0 UV-I 0 W/m² 4,7 °C 5,6 °C 0,0 km/h (0 Bft)
06.12.2018 05:56 5,6 °C 94 % 1018,3 hPa 0,0 mm 0,0 km/h (0 Bft) SW 229 ° 0 min 0,000 mm 0,0 UV-I 0 W/m² 4,7 °C 5,6 °C 0,0 km/h (0 Bft)
06.12.2018 05:57 5,6 °C 94 % 1018,4 hPa 0,0 mm 0,0 km/h (0 Bft) SW 229 ° 0 min 0,000 mm 0,0 UV-I 0 W/m² 4,7 °C 5,6 °C 0,0 km/h (0 Bft)
06.12.2018 05:58 5,6 °C 94 % 1018,3 hPa 0,0 mm 0,0 km/h (0 Bft) SW 229 ° 0 min 0,000 mm 0,0 UV-I 0 W/m² 4,7 °C 5,6 °C 0,0 km/h (0 Bft)
06.12.2018 05:59 5,6 °C 94 % 1018,4 hPa 0,0 mm 0,0 km/h (0 Bft) SW 229 ° 0 min 0,000 mm 0,0 UV-I 0 W/m² 4,7 °C 5,6 °C 0,0 km/h (0 Bft)
06.12.2018 06:00 5,5 °C 94 % 1018,3 hPa 0,0 mm 0,0 km/h (0 Bft) SW 229 ° 0 min 0,000 mm 0,0 UV-I 0 W/m² 4,6 °C 5,5 °C 0,0 km/h (0 Bft)
06.12.2018 06:01 5,6 °C 94 % 1018,3 hPa 0,0 mm 0,0 km/h (0 Bft) SW 229 ° 0 min 0,000 mm 0,0 UV-I 0 W/m² 4,7 °C 5,6 °C 0,0 km/h (0 Bft)
06.12.2018 06:02 5,5 °C 94 % 1018,3 hPa 0,0 mm 0,0 km/h (0 Bft) SW 229 ° 0 min 0,000 mm 0,0 UV-I 0 W/m² 4,6 °C 5,5 °C 0,0 km/h (0 Bft)
06.12.2018 06:03 5,5 °C 94 % 1018,3 hPa 0,0 mm 0,0 km/h (0 Bft) SW 229 ° 0 min 0,000 mm 0,0 UV-I 0 W/m² 4,6 °C 5,5 °C 0,0 km/h (0 Bft)
06.12.2018 06:04 5,5 °C 94 % 1018,3 hPa 0,0 mm 0,0 km/h (0 Bft) SW 229 ° 0 min 0,000 mm 0,0 UV-I 0 W/m² 4,6 °C 5,5 °C 0,0 km/h (0 Bft)
06.12.2018 06:05 5,5 °C 94 % 1018,3 hPa 0,0 mm 0,0 km/h (0 Bft) SW 229 ° 0 min 0,000 mm 0,0 UV-I 0 W/m² 4,6 °C 5,5 °C 0,0 km/h (0 Bft)
06.12.2018 06:06 5,5 °C 94 % 1018,3 hPa 0,0 mm 0,0 km/h (0 Bft) SW 229 ° 0 min 0,000 mm 0,0 UV-I 0 W/m² 4,6 °C 5,5 °C 0,0 km/h (0 Bft)
06.12.2018 06:07 5,5 °C 94 % 1018,3 hPa 0,0 mm 0,0 km/h (0 Bft) SW 229 ° 0 min 0,000 mm 0,0 UV-I 0 W/m² 4,6 °C 5,5 °C 0,0 km/h (0 Bft)
06.12.2018 06:08 5,5 °C 94 % 1018,3 hPa 0,0 mm 0,0 km/h (0 Bft) SW 229 ° 0 min 0,000 mm 0,0 UV-I 0 W/m² 4,6 °C 5,5 °C 0,0 km/h (0 Bft)
06.12.2018 06:09 5,5 °C 94 % 1018,3 hPa 0,0 mm 0,0 km/h (0 Bft) SW 229 ° 0 min 0,000 mm 0,0 UV-I 0 W/m² 4,6 °C 5,5 °C 0,0 km/h (0 Bft)
06.12.2018 06:10 5,5 °C 94 % 1018,3 hPa 0,0 mm 0,0 km/h (0 Bft) SW 229 ° 0 min 0,000 mm 0,0 UV-I 0 W/m² 4,6 °C 5,5 °C 0,0 km/h (0 Bft)
06.12.2018 06:11 5,5 °C 94 % 1018,4 hPa 0,0 mm 0,0 km/h (0 Bft) SW 229 ° 0 min 0,000 mm 0,0 UV-I 0 W/m² 4,6 °C 5,5 °C 0,0 km/h (0 Bft)
06.12.2018 06:12 5,5 °C 94 % 1018,4 hPa 0,0 mm 0,0 km/h (0 Bft) SW 229 ° 0 min 0,000 mm 0,0 UV-I 0 W/m² 4,6 °C 5,5 °C 0,0 km/h (0 Bft)
06.12.2018 06:13 5,6 °C 94 % 1018,4 hPa 0,0 mm 0,0 km/h (0 Bft) SW 229 ° 0 min 0,000 mm 0,0 UV-I 0 W/m² 4,7 °C 5,6 °C 0,0 km/h (0 Bft)
06.12.2018 06:14 5,6 °C 94 % 1018,5 hPa 0,0 mm 0,0 km/h (0 Bft) SW 229 ° 0 min 0,000 mm 0,0 UV-I 0 W/m² 4,7 °C 5,6 °C 0,0 km/h (0 Bft)
06.12.2018 06:15 5,6 °C 94 % 1018,5 hPa 0,0 mm 0,0 km/h (0 Bft) SW 229 ° 0 min 0,000 mm 0,0 UV-I 0 W/m² 4,7 °C 5,6 °C 0,0 km/h (0 Bft)
06.12.2018 06:16 5,6 °C 94 % 1018,5 hPa 0,0 mm 0,0 km/h (0 Bft) SW 229 ° 0 min 0,000 mm 0,0 UV-I 0 W/m² 4,7 °C 5,6 °C 0,0 km/h (0 Bft)
06.12.2018 06:17 5,6 °C 94 % 1018,5 hPa 0,0 mm 0,0 km/h (0 Bft) SW 229 ° 0 min 0,000 mm 0,0 UV-I 0 W/m² 4,7 °C 5,6 °C 0,0 km/h (0 Bft)
06.12.2018 06:18 5,6 °C 94 % 1018,5 hPa 0,0 mm 0,0 km/h (0 Bft) SW 229 ° 0 min 0,000 mm 0,0 UV-I 0 W/m² 4,7 °C 5,6 °C 0,0 km/h (0 Bft)
06.12.2018 06:19 5,6 °C 94 % 1018,5 hPa 0,0 mm 0,0 km/h (0 Bft) SW 229 ° 0 min 0,000 mm 0,0 UV-I 0 W/m² 4,7 °C 5,6 °C 0,0 km/h (0 Bft)
06.12.2018 06:20 5,6 °C 94 % 1018,6 hPa 0,0 mm 0,0 km/h (0 Bft) SW 229 ° 0 min 0,000 mm 0,0 UV-I 0 W/m² 4,7 °C 5,6 °C 0,0 km/h (0 Bft)
06.12.2018 06:21 5,6 °C 94 % 1018,6 hPa 0,0 mm 0,0 km/h (0 Bft) SW 229 ° 0 min 0,000 mm 0,0 UV-I 0 W/m² 4,7 °C 5,6 °C 0,0 km/h (0 Bft)
06.12.2018 06:22 5,6 °C 94 % 1018,6 hPa 0,0 mm 0,0 km/h (0 Bft) SW 229 ° 0 min 0,000 mm 0,0 UV-I 0 W/m² 4,7 °C 5,6 °C 0,0 km/h (0 Bft)
06.12.2018 06:23 5,6 °C 94 % 1018,6 hPa 0,0 mm 0,0 km/h (0 Bft) SW 229 ° 0 min 0,000 mm 0,0 UV-I 0 W/m² 4,7 °C 5,6 °C 0,0 km/h (0 Bft)
06.12.2018 06:24 5,6 °C 94 % 1018,6 hPa 0,0 mm 0,0 km/h (0 Bft) SW 229 ° 0 min 0,000 mm 0,0 UV-I 0 W/m² 4,7 °C 5,6 °C 0,0 km/h (0 Bft)
06.12.2018 06:25 5,6 °C 94 % 1018,6 hPa 0,0 mm 0,0 km/h (0 Bft) SW 229 ° 0 min 0,000 mm 0,0 UV-I 0 W/m² 4,7 °C 5,6 °C 0,0 km/h (0 Bft)
06.12.2018 06:26 5,6 °C 94 % 1018,6 hPa 0,0 mm 0,0 km/h (0 Bft) SW 229 ° 0 min 0,000 mm 0,0 UV-I 0 W/m² 4,7 °C 5,6 °C 0,0 km/h (0 Bft)
06.12.2018 06:27 5,6 °C 94 % 1018,6 hPa 0,0 mm 0,0 km/h (0 Bft) SW 229 ° 0 min 0,000 mm 0,0 UV-I 0 W/m² 4,7 °C 5,6 °C 0,0 km/h (0 Bft)
06.12.2018 06:28 5,6 °C 94 % 1018,7 hPa 0,0 mm 0,0 km/h (0 Bft) SW 229 ° 0 min 0,000 mm 0,0 UV-I 0 W/m² 4,7 °C 5,6 °C 0,0 km/h (0 Bft)
06.12.2018 06:29 5,6 °C 94 % 1018,8 hPa 0,0 mm 0,0 km/h (0 Bft) SW 229 ° 0 min 0,000 mm 0,0 UV-I 0 W/m² 4,7 °C 5,6 °C 0,0 km/h (0 Bft)
06.12.2018 06:30 5,6 °C 94 % 1018,8 hPa 0,0 mm 0,0 km/h (0 Bft) SW 229 ° 0 min 0,000 mm 0,0 UV-I 0 W/m² 4,7 °C 5,6 °C 0,0 km/h (0 Bft)
06.12.2018 06:31 5,6 °C 94 % 1018,8 hPa 0,0 mm 0,0 km/h (0 Bft) SW 229 ° 0 min 0,000 mm 0,0 UV-I 0 W/m² 4,7 °C 5,6 °C 0,0 km/h (0 Bft)
06.12.2018 06:32 5,6 °C 94 % 1018,8 hPa 0,0 mm 0,0 km/h (0 Bft) SW 229 ° 0 min 0,000 mm 0,0 UV-I 0 W/m² 4,7 °C 5,6 °C 0,0 km/h (0 Bft)
06.12.2018 06:33 5,6 °C 94 % 1018,9 hPa 0,0 mm 0,0 km/h (0 Bft) SW 229 ° 0 min 0,000 mm 0,0 UV-I 0 W/m² 4,7 °C 5,6 °C 0,0 km/h (0 Bft)
06.12.2018 06:34 5,6 °C 94 % 1019,0 hPa 0,0 mm 1,7 km/h (1 Bft) W 264 ° 0 min 0,000 mm 0,0 UV-I 0 W/m² 4,7 °C 5,6 °C 6,4 km/h (2 Bft)
06.12.2018 06:35 5,6 °C 94 % 1019,0 hPa 0,0 mm 8,0 km/h (2 Bft) W 259 ° 0 min 0,000 mm 0,0 UV-I 0 W/m² 4,7 °C 3,8 °C 11,3 km/h (2 Bft)
06.12.2018 06:36 5,6 °C 94 % 1019,2 hPa 0,0 mm 8,6 km/h (2 Bft) W 273 ° 0 min 0,000 mm 0,0 UV-I 0 W/m² 4,7 °C 3,7 °C 12,9 km/h (3 Bft)
06.12.2018 06:37 5,6 °C 94 % 1019,2 hPa 0,0 mm 6,3 km/h (2 Bft) W 279 ° 0 min 0,000 mm 0,0 UV-I 0 W/m² 4,7 °C 4,3 °C 9,7 km/h (2 Bft)
06.12.2018 06:38 5,6 °C 94 % 1019,2 hPa 0,0 mm 8,8 km/h (2 Bft) SW 225 ° 0 min 0,000 mm 0,0 UV-I 0 W/m² 4,7 °C 3,6 °C 14,5 km/h (3 Bft)
06.12.2018 06:39 5,6 °C 94 % 1019,2 hPa 0,0 mm 2,8 km/h (1 Bft) W-SW 257 ° 0 min 0,000 mm 0,0 UV-I 0 W/m² 4,7 °C 5,6 °C 8,0 km/h (2 Bft)
06.12.2018 06:40 5,6 °C 94 % 1019,2 hPa 0,0 mm 5,1 km/h (1 Bft) W-SW 255 ° 0 min 0,000 mm 0,0 UV-I 0 W/m² 4,7 °C 4,7 °C 8,0 km/h (2 Bft)
06.12.2018 06:41 5,6 °C 94 % 1019,3 hPa 0,0 mm 6,2 km/h (2 Bft) W-SW 240 ° 0 min 0,000 mm 0,0 UV-I 0 W/m² 4,7 °C 4,3 °C 11,3 km/h (2 Bft)
06.12.2018 06:42 5,6 °C 94 % 1019,3 hPa 0,0 mm 4,1 km/h (1 Bft) W 267 ° 0 min 0,000 mm 0,0 UV-I 0 W/m² 4,7 °C 5,6 °C 6,4 km/h (2 Bft)
06.12.2018 06:43 5,6 °C 94 % 1019,3 hPa 0,0 mm 4,4 km/h (1 Bft) W 273 ° 0 min 0,000 mm 0,0 UV-I 0 W/m² 4,7 °C 5,6 °C 9,7 km/h (2 Bft)
06.12.2018 06:44 5,7 °C 94 % 1019,3 hPa 0,0 mm 9,3 km/h (2 Bft) W-SW 250 ° 0 min 0,000 mm 0,0 UV-I 0 W/m² 4,8 °C 3,6 °C 12,9 km/h (3 Bft)
06.12.2018 06:45 5,7 °C 94 % 1019,3 hPa 0,0 mm 8,0 km/h (2 Bft) W-NW 291 ° 0 min 0,000 mm 0,0 UV-I 0 W/m² 4,8 °C 4,0 °C 11,3 km/h (2 Bft)
06.12.2018 06:46 5,7 °C 94 % 1019,4 hPa 0,0 mm 8,0 km/h (2 Bft) W-SW 254 ° 0 min 0,000 mm 0,0 UV-I 0 W/m² 4,8 °C 4,0 °C 11,3 km/h (2 Bft)
06.12.2018 06:47 5,7 °C 94 % 1019,4 hPa 0,0 mm 5,4 km/h (1 Bft) W 269 ° 0 min 0,000 mm 0,0 UV-I 0 W/m² 4,8 °C 4,7 °C 9,7 km/h (2 Bft)
06.12.2018 06:48 5,8 °C 94 % 1019,4 hPa 0,0 mm 8,6 km/h (2 Bft) W 265 ° 0 min 0,000 mm 0,0 UV-I 0 W/m² 4,9 °C 3,9 °C 12,9 km/h (3 Bft)
06.12.2018 06:49 5,8 °C 94 % 1019,5 hPa 0,0 mm 5,3 km/h (1 Bft) W-SW 237 ° 0 min 0,000 mm 0,0 UV-I 0 W/m² 4,9 °C 4,9 °C 11,3 km/h (2 Bft)
06.12.2018 06:50 5,8 °C 94 % 1019,5 hPa 0,0 mm 6,2 km/h (2 Bft) W 261 ° 0 min 0,000 mm 0,0 UV-I 0 W/m² 4,9 °C 4,6 °C 9,7 km/h (2 Bft)
06.12.2018 06:51 5,8 °C 94 % 1019,5 hPa 0,0 mm 5,4 km/h (1 Bft) W 259 ° 0 min 0,000 mm 0,0 UV-I 0 W/m² 4,9 °C 4,8 °C 8,0 km/h (2 Bft)
06.12.2018 06:52 5,9 °C 95 % 1019,5 hPa 0,0 mm 7,8 km/h (2 Bft) W-SW 251 ° 0 min 0,000 mm 0,0 UV-I 0 W/m² 5,2 °C 4,2 °C 12,9 km/h (3 Bft)
06.12.2018 06:53 5,9 °C 95 % 1019,5 hPa 0,2 mm 7,3 km/h (2 Bft) W 266 ° 0 min 0,000 mm 0,0 UV-I 0 W/m² 5,2 °C 4,4 °C 11,3 km/h (2 Bft)
06.12.2018 06:54 5,9 °C 94 % 1019,5 hPa 0,0 mm 8,0 km/h (2 Bft) W 272 ° 0 min 0,000 mm 0,0 UV-I 0 W/m² 5,0 °C 4,2 °C 11,3 km/h (2 Bft)
06.12.2018 06:55 5,9 °C 95 % 1019,5 hPa 0,0 mm 9,4 km/h (2 Bft) W-SW 258 ° 0 min 0,000 mm 0,0 UV-I 0 W/m² 5,2 °C 3,9 °C 14,5 km/h (3 Bft)
06.12.2018 06:56 5,9 °C 94 % 1019,5 hPa 0,0 mm 7,2 km/h (2 Bft) W 268 ° 0 min 0,000 mm 0,0 UV-I 0 W/m² 5,0 °C 4,4 °C 12,9 km/h (3 Bft)
06.12.2018 06:57 5,9 °C 95 % 1019,6 hPa 0,0 mm 8,0 km/h (2 Bft) SW 225 ° 0 min 0,000 mm 0,0 UV-I 0 W/m² 5,2 °C 4,2 °C 11,3 km/h (2 Bft)
06.12.2018 06:58 5,9 °C 94 % 1019,6 hPa 0,0 mm 8,5 km/h (2 Bft) W-SW 253 ° 0 min 0,000 mm 0,0 UV-I 0 W/m² 5,0 °C 4,1 °C 11,3 km/h (2 Bft)
06.12.2018 06:59 6,0 °C 94 % 1019,5 hPa 0,0 mm 9,9 km/h (2 Bft) W-SW 256 ° 0 min 0,000 mm 0,0 UV-I 0 W/m² 5,1 °C 3,9 °C 17,7 km/h (3 Bft)
06.12.2018 07:00 6,0 °C 94 % 1019,6 hPa 0,2 mm 8,0 km/h (2 Bft) SW 234 ° 0 min 0,000 mm 0,0 UV-I 0 W/m² 5,1 °C 4,3 °C 19,3 km/h (3 Bft)
06.12.2018 07:01 6,1 °C 94 % 1019,7 hPa 0,0 mm 10,1 km/h (2 Bft) W-SW 252 ° 0 min 0,000 mm 0,0 UV-I 0 W/m² 5,2 °C 4,0 °C 17,7 km/h (3 Bft)
06.12.2018 07:02 6,1 °C 94 % 1019,7 hPa 0,0 mm 9,1 km/h (2 Bft) NW 324 ° 0 min 0,000 mm 0,0 UV-I 0 W/m² 5,2 °C 4,2 °C 14,5 km/h (3 Bft)
06.12.2018 07:03 6,1 °C 94 % 1019,7 hPa 0,0 mm 8,0 km/h (2 Bft) W-SW 254 ° 0 min 0,000 mm 0,0 UV-I 0 W/m² 5,2 °C 4,4 °C 16,1 km/h (3 Bft)
06.12.2018 07:04 6,1 °C 94 % 1019,7 hPa 0,0 mm 5,9 km/h (2 Bft) SW 234 ° 0 min 0,000 mm 0,0 UV-I 0 W/m² 5,2 °C 5,0 °C 9,7 km/h (2 Bft)
06.12.2018 07:05 6,1 °C 94 % 1019,7 hPa 0,2 mm 7,5 km/h (2 Bft) W 261 ° 0 min 0,000 mm 0,0 UV-I 0 W/m² 5,2 °C 4,6 °C 12,9 km/h (3 Bft)
06.12.2018 07:06 6,1 °C 95 % 1019,7 hPa 0,0 mm 8,4 km/h (2 Bft) W-SW 250 ° 0 min 0,000 mm 0,0 UV-I 0 W/m² 5,4 °C 4,3 °C 11,3 km/h (2 Bft)
06.12.2018 07:07 6,1 °C 95 % 1019,7 hPa 0,0 mm 13,5 km/h (3 Bft) W-SW 242 ° 0 min 0,000 mm 0,0 UV-I 0 W/m² 5,4 °C 3,3 °C 20,9 km/h (4 Bft)
06.12.2018 07:08 6,1 °C 95 % 1019,8 hPa 0,0 mm 10,7 km/h (2 Bft) W 263 ° 0 min 0,000 mm 0,0 UV-I 0 W/m² 5,4 °C 3,8 °C 19,3 km/h (3 Bft)
06.12.2018 07:09 6,2 °C 95 % 1019,7 hPa 0,2 mm 14,2 km/h (3 Bft) W 273 ° 0 min 0,000 mm 0,0 UV-I 0 W/m² 5,5 °C 3,3 °C 19,3 km/h (3 Bft)
06.12.2018 07:10 6,2 °C 95 % 1019,7 hPa 0,0 mm 12,7 km/h (3 Bft) SW 233 ° 0 min 0,000 mm 0,0 UV-I 0 W/m² 5,5 °C 3,6 °C 17,7 km/h (3 Bft)
06.12.2018 07:11 6,2 °C 95 % 1019,7 hPa 0,0 mm 7,4 km/h (2 Bft) SW 230 ° 0 min 0,000 mm 0,0 UV-I 0 W/m² 5,5 °C 4,7 °C 11,3 km/h (2 Bft)
06.12.2018 07:12 6,2 °C 95 % 1019,7 hPa 0,0 mm 5,6 km/h (1 Bft) W-SW 238 ° 0 min 0,000 mm 0,0 UV-I 0 W/m² 5,5 °C 5,2 °C 11,3 km/h (2 Bft)
06.12.2018 07:13 6,2 °C 95 % 1019,7 hPa 0,2 mm 6,9 km/h (2 Bft) W 269 ° 0 min 0,000 mm 0,0 UV-I 0 W/m² 5,5 °C 4,8 °C 11,3 km/h (2 Bft)
06.12.2018 07:14 6,2 °C 95 % 1019,7 hPa 0,0 mm 4,8 km/h (1 Bft) W-NW 288 ° 0 min 0,000 mm 0,0 UV-I 0 W/m² 5,5 °C 5,5 °C 8,0 km/h (2 Bft)
06.12.2018 07:15 6,2 °C 95 % 1019,7 hPa 0,0 mm 5,8 km/h (2 Bft) W-SW 242 ° 0 min 0,000 mm 0,0 UV-I 0 W/m² 5,5 °C 5,2 °C 9,7 km/h (2 Bft)
06.12.2018 07:16 6,2 °C 94 % 1019,7 hPa 0,0 mm 5,2 km/h (1 Bft) SW 221 ° 0 min 0,000 mm 0,0 UV-I 0 W/m² 5,3 °C 5,4 °C 6,4 km/h (2 Bft)
06.12.2018 07:17 6,2 °C 94 % 1019,7 hPa 0,0 mm 4,9 km/h (1 Bft) SW 229 ° 0 min 0,000 mm 0,0 UV-I 0 W/m² 5,3 °C 5,5 °C 11,3 km/h (2 Bft)
06.12.2018 07:18 6,2 °C 94 % 1019,7 hPa 0,0 mm 4,6 km/h (1 Bft) S-SW 210 ° 0 min 0,000 mm 0,0 UV-I 0 W/m² 5,3 °C 5,6 °C 6,4 km/h (2 Bft)
06.12.2018 07:19 6,2 °C 95 % 1019,7 hPa 0,2 mm 3,0 km/h (1 Bft) SW 233 ° 0 min 0,000 mm 0,0 UV-I 0 W/m² 5,5 °C 6,2 °C 4,8 km/h (1 Bft)
06.12.2018 07:20 6,2 °C 94 % 1019,6 hPa 0,0 mm 5,5 km/h (1 Bft) SW 235 ° 0 min 0,000 mm 0,0 UV-I 0 W/m² 5,3 °C 5,3 °C 9,7 km/h (2 Bft)
06.12.2018 07:21 6,3 °C 94 % 1019,6 hPa 0,0 mm 3,4 km/h (1 Bft) S-SW 209 ° 0 min 0,000 mm 0,0 UV-I 0 W/m² 5,4 °C 6,3 °C 6,4 km/h (2 Bft)
06.12.2018 07:22 6,3 °C 94 % 1019,7 hPa 0,0 mm 3,4 km/h (1 Bft) SW 225 ° 0 min 0,000 mm 0,0 UV-I 0 W/m² 5,4 °C 6,3 °C 4,8 km/h (1 Bft)
06.12.2018 07:23 6,3 °C 94 % 1019,6 hPa 0,0 mm 4,1 km/h (1 Bft) W-SW 247 ° 0 min 0,000 mm 0,0 UV-I 0 W/m² 5,4 °C 6,3 °C 11,3 km/h (2 Bft)
06.12.2018 07:24 6,3 °C 94 % 1019,6 hPa 0,0 mm 8,9 km/h (2 Bft) S-SW 203 ° 0 min 0,000 mm 0,0 UV-I 0 W/m² 5,4 °C 4,4 °C 11,3 km/h (2 Bft)
06.12.2018 07:25 6,3 °C 94 % 1019,6 hPa 0,0 mm 4,9 km/h (1 Bft) W 273 ° 0 min 0,000 mm 0,0 UV-I 0 W/m² 5,4 °C 5,6 °C 6,4 km/h (2 Bft)
06.12.2018 07:26 6,3 °C 94 % 1019,6 hPa 0,0 mm 4,3 km/h (1 Bft) SW 232 ° 0 min 0,000 mm 0,0 UV-I 0 W/m² 5,4 °C 6,3 °C 6,4 km/h (2 Bft)
06.12.2018 07:27 6,3 °C 94 % 1019,6 hPa 0,0 mm 3,6 km/h (1 Bft) S 190 ° 0 min 0,000 mm 0,0 UV-I 0 W/m² 5,4 °C 6,3 °C 6,4 km/h (2 Bft)
06.12.2018 07:28 6,3 °C 94 % 1019,6 hPa 0,0 mm 3,2 km/h (1 Bft) S-SW 210 ° 0 min 0,000 mm 0,0 UV-I 0 W/m² 5,4 °C 6,3 °C 8,0 km/h (2 Bft)
06.12.2018 07:29 6,3 °C 94 % 1019,7 hPa 0,0 mm 4,8 km/h (1 Bft) SW 223 ° 0 min 0,000 mm 0,0 UV-I 0 W/m² 5,4 °C 5,6 °C 6,4 km/h (2 Bft)
06.12.2018 07:30 6,4 °C 94 % 1019,7 hPa 0,0 mm 5,6 km/h (1 Bft) SW 229 ° 0 min 0,000 mm 0,0 UV-I 0 W/m² 5,5 °C 5,5 °C 8,0 km/h (2 Bft)
06.12.2018 07:31 6,4 °C 94 % 1019,7 hPa 0,2 mm 3,4 km/h (1 Bft) S-SW 207 ° 0 min 0,000 mm 0,0 UV-I 0 W/m² 5,5 °C 6,4 °C 6,4 km/h (2 Bft)
06.12.2018 07:32 6,4 °C 94 % 1019,7 hPa 0,0 mm 6,1 km/h (2 Bft) W 261 ° 0 min 0,000 mm 0,0 UV-I 0 W/m² 5,5 °C 5,3 °C 11,3 km/h (2 Bft)
06.12.2018 07:33 6,4 °C 94 % 1019,7 hPa 0,0 mm 3,4 km/h (1 Bft) SW 234 ° 0 min 0,000 mm 0,0 UV-I 0 W/m² 5,5 °C 6,4 °C 6,4 km/h (2 Bft)
06.12.2018 07:34 6,4 °C 94 % 1019,6 hPa 0,0 mm 2,5 km/h (1 Bft) W-SW 242 ° 0 min 0,000 mm 0,0 UV-I 0 W/m² 5,5 °C 6,4 °C 4,8 km/h (1 Bft)
06.12.2018 07:35 6,4 °C 94 % 1019,6 hPa 0,0 mm 6,2 km/h (2 Bft) W 269 ° 0 min 0,000 mm 0,0 UV-I 0 W/m² 5,5 °C 5,3 °C 9,7 km/h (2 Bft)
06.12.2018 07:36 6,4 °C 94 % 1019,7 hPa 0,0 mm 6,4 km/h (2 Bft) W-SW 241 ° 0 min 0,000 mm 0,0 UV-I 0 W/m² 5,5 °C 5,2 °C 11,3 km/h (2 Bft)
06.12.2018 07:37 6,4 °C 94 % 1019,6 hPa 0,0 mm 3,5 km/h (1 Bft) SW 232 ° 0 min 0,000 mm 0,0 UV-I 0 W/m² 5,5 °C 6,4 °C 6,4 km/h (2 Bft)
06.12.2018 07:38 6,4 °C 94 % 1019,7 hPa 0,0 mm 2,3 km/h (1 Bft) W-SW 253 ° 0 min 0,000 mm 0,0 UV-I 0 W/m² 5,5 °C 6,4 °C 4,8 km/h (1 Bft)
06.12.2018 07:39 6,4 °C 94 % 1019,6 hPa 0,0 mm 4,9 km/h (1 Bft) W-SW 243 ° 0 min 0,000 mm 0,0 UV-I 0 W/m² 5,5 °C 5,7 °C 8,0 km/h (2 Bft)
06.12.2018 07:40 6,4 °C 94 % 1019,7 hPa 0,0 mm 4,2 km/h (1 Bft) W-SW 248 ° 0 min 0,000 mm 0,0 UV-I 0 W/m² 5,5 °C 6,4 °C 6,4 km/h (2 Bft)
06.12.2018 07:41 6,4 °C 94 % 1019,6 hPa 0,0 mm 3,1 km/h (1 Bft) SW 236 ° 0 min 0,000 mm 0,0 UV-I 0 W/m² 5,5 °C 6,4 °C 4,8 km/h (1 Bft)
06.12.2018 07:42 6,4 °C 94 % 1019,7 hPa 0,0 mm 4,4 km/h (1 Bft) W-SW 238 ° 0 min 0,000 mm 0,0 UV-I 0 W/m² 5,5 °C 6,4 °C 9,7 km/h (2 Bft)
06.12.2018 07:43 6,4 °C 94 % 1019,7 hPa 0,0 mm 5,8 km/h (2 Bft) W-SW 247 ° 0 min 0,000 mm 0,0 UV-I 0 W/m² 5,5 °C 5,4 °C 9,7 km/h (2 Bft)
06.12.2018 07:44 6,4 °C 94 % 1019,7 hPa 0,0 mm 8,9 km/h (2 Bft) S-SW 198 ° 0 min 0,000 mm 0,0 UV-I 0 W/m² 5,5 °C 4,6 °C 12,9 km/h (3 Bft)
06.12.2018 07:45 6,4 °C 94 % 1019,7 hPa 0,0 mm 4,8 km/h (1 Bft) SW 214 ° 0 min 0,000 mm 0,0 UV-I 0 W/m² 5,5 °C 5,7 °C 8,0 km/h (2 Bft)
06.12.2018 07:46 6,4 °C 94 % 1019,7 hPa 0,0 mm 6,3 km/h (2 Bft) W-SW 246 ° 0 min 0,000 mm 0,0 UV-I 0 W/m² 5,5 °C 5,2 °C 11,3 km/h (2 Bft)
06.12.2018 07:47 6,4 °C 94 % 1019,7 hPa 0,0 mm 5,5 km/h (1 Bft) W 263 ° 0 min 0,000 mm 0,0 UV-I 0 W/m² 5,5 °C 5,5 °C 14,5 km/h (3 Bft)
06.12.2018 07:48 6,4 °C 94 % 1019,7 hPa 0,0 mm 7,4 km/h (2 Bft) SW 227 ° 0 min 0,000 mm 0,0 UV-I 0 W/m² 5,5 °C 4,9 °C 14,5 km/h (3 Bft)
06.12.2018 07:49 6,4 °C 94 % 1019,8 hPa 0,0 mm 5,2 km/h (1 Bft) SW 227 ° 0 min 0,000 mm 0,0 UV-I 0 W/m² 5,5 °C 5,6 °C 9,7 km/h (2 Bft)
06.12.2018 07:50 6,4 °C 94 % 1019,8 hPa 0,0 mm 7,6 km/h (2 Bft) SW 215 ° 0 min 0,000 mm 0,0 UV-I 0 W/m² 5,5 °C 4,9 °C 12,9 km/h (3 Bft)
06.12.2018 07:51 6,5 °C 94 % 1019,8 hPa 0,0 mm 6,9 km/h (2 Bft) W-SW 241 ° 0 min 0,000 mm 0,0 UV-I 0 W/m² 5,6 °C 5,2 °C 11,3 km/h (2 Bft)
06.12.2018 07:52 6,5 °C 94 % 1019,8 hPa 0,0 mm 4,2 km/h (1 Bft) W-SW 246 ° 0 min 0,000 mm 0,0 UV-I 0 W/m² 5,6 °C 6,5 °C 6,4 km/h (2 Bft)
06.12.2018 07:53 6,5 °C 94 % 1019,8 hPa 0,0 mm 1,7 km/h (1 Bft) S-SW 200 ° 0 min 0,000 mm 0,0 UV-I 0 W/m² 5,6 °C 6,5 °C 4,8 km/h (1 Bft)
06.12.2018 07:54 6,5 °C 94 % 1019,8 hPa 0,0 mm 4,8 km/h (1 Bft) SW 217 ° 0 min 0,000 mm 0,0 UV-I 0 W/m² 5,6 °C 5,9 °C 6,4 km/h (2 Bft)
06.12.2018 07:55 6,5 °C 94 % 1019,8 hPa 0,0 mm 4,6 km/h (1 Bft) SW 215 ° 0 min 0,000 mm 0,0 UV-I 0 W/m² 5,6 °C 5,9 °C 6,4 km/h (2 Bft)
06.12.2018 07:56 6,5 °C 94 % 1019,8 hPa 0,2 mm 4,8 km/h (1 Bft) S-SW 199 ° 0 min 0,000 mm 0,0 UV-I 0 W/m² 5,6 °C 5,9 °C 8,0 km/h (2 Bft)
06.12.2018 07:57 6,5 °C 93 % 1019,8 hPa 0,0 mm 3,4 km/h (1 Bft) W-SW 254 ° 0 min 0,000 mm 0,0 UV-I 0 W/m² 5,5 °C 6,5 °C 6,4 km/h (2 Bft)
06.12.2018 07:58 6,6 °C 93 % 1019,8 hPa 0,0 mm 4,3 km/h (1 Bft) SW 229 ° 0 min 0,000 mm 0,0 UV-I 5 W/m² 5,6 °C 6,6 °C 6,4 km/h (2 Bft)
06.12.2018 07:59 6,6 °C 93 % 1019,8 hPa 0,0 mm 2,7 km/h (1 Bft) S-SW 207 ° 0 min 0,000 mm 0,0 UV-I 5 W/m² 5,6 °C 6,6 °C 4,8 km/h (1 Bft)
06.12.2018 08:00 6,6 °C 93 % 1019,8 hPa 0,0 mm 4,6 km/h (1 Bft) W-SW 239 ° 0 min 0,000 mm 0,0 UV-I 7 W/m² 5,6 °C 6,0 °C 9,7 km/h (2 Bft)
06.12.2018 08:01 6,6 °C 93 % 1019,8 hPa 0,0 mm 6,5 km/h (2 Bft) S 183 ° 0 min 0,000 mm 0,0 UV-I 7 W/m² 5,6 °C 5,4 °C 9,7 km/h (2 Bft)
06.12.2018 08:02 6,6 °C 93 % 1019,8 hPa 0,0 mm 6,6 km/h (2 Bft) S-SW 209 ° 0 min 0,000 mm 0,0 UV-I 7 W/m² 5,6 °C 5,4 °C 9,7 km/h (2 Bft)
06.12.2018 08:03 6,6 °C 93 % 1019,8 hPa 0,0 mm 5,5 km/h (1 Bft) S-SW 199 ° 0 min 0,000 mm 0,0 UV-I 7 W/m² 5,6 °C 5,7 °C 9,7 km/h (2 Bft)
06.12.2018 08:04 6,6 °C 93 % 1019,8 hPa 0,0 mm 3,9 km/h (1 Bft) W-SW 242 ° 0 min 0,000 mm 0,0 UV-I 9 W/m² 5,6 °C 6,6 °C 11,3 km/h (2 Bft)
06.12.2018 08:05 6,6 °C 93 % 1019,9 hPa 0,0 mm 6,8 km/h (2 Bft) SW 222 ° 0 min 0,000 mm 0,0 UV-I 9 W/m² 5,6 °C 5,3 °C 11,3 km/h (2 Bft)
06.12.2018 08:06 6,6 °C 93 % 1019,8 hPa 0,0 mm 4,7 km/h (1 Bft) SW 234 ° 0 min 0,000 mm 0,0 UV-I 11 W/m² 5,6 °C 6,0 °C 6,4 km/h (2 Bft)
06.12.2018 08:07 6,6 °C 93 % 1019,8 hPa 0,0 mm 7,3 km/h (2 Bft) S-SW 196 ° 0 min 0,000 mm 0,0 UV-I 11 W/m² 5,6 °C 5,2 °C 11,3 km/h (2 Bft)
06.12.2018 08:08 6,7 °C 93 % 1019,8 hPa 0,0 mm 6,7 km/h (2 Bft) S-SW 213 ° 0 min 0,000 mm 0,0 UV-I 11 W/m² 5,6 °C 5,5 °C 11,3 km/h (2 Bft)
06.12.2018 08:09 6,7 °C 93 % 1019,7 hPa 0,0 mm 6,8 km/h (2 Bft) S-SW 193 ° 0 min 0,000 mm 0,0 UV-I 12 W/m² 5,6 °C 5,4 °C 12,9 km/h (3 Bft)
06.12.2018 08:10 6,7 °C 93 % 1019,8 hPa 0,0 mm 9,1 km/h (2 Bft) SW 231 ° 0 min 0,000 mm 0,0 UV-I 12 W/m² 5,6 °C 4,9 °C 14,5 km/h (3 Bft)
06.12.2018 08:11 6,7 °C 93 % 1019,8 hPa 0,0 mm 7,2 km/h (2 Bft) W-SW 240 ° 0 min 0,000 mm 0,0 UV-I 14 W/m² 5,6 °C 5,3 °C 12,9 km/h (3 Bft)
06.12.2018 08:12 6,7 °C 93 % 1019,8 hPa 0,0 mm 6,8 km/h (2 Bft) SW 224 ° 0 min 0,000 mm 0,0 UV-I 14 W/m² 5,6 °C 5,4 °C 11,3 km/h (2 Bft)
06.12.2018 08:13 6,8 °C 93 % 1019,8 hPa 0,0 mm 5,9 km/h (2 Bft) W-SW 246 ° 0 min 0,000 mm 0,0 UV-I 14 W/m² 5,7 °C 5,8 °C 11,3 km/h (2 Bft)
06.12.2018 08:14 6,8 °C 93 % 1019,8 hPa 0,0 mm 6,4 km/h (2 Bft) SW 224 ° 0 min 0,000 mm 0,0 UV-I 16 W/m² 5,7 °C 5,7 °C 11,3 km/h (2 Bft)
06.12.2018 08:15 6,8 °C 93 % 1019,8 hPa 0,0 mm 5,0 km/h (1 Bft) W-SW 247 ° 0 min 0,000 mm 0,0 UV-I 16 W/m² 5,7 °C 6,1 °C 9,7 km/h (2 Bft)
06.12.2018 08:16 6,8 °C 93 % 1019,8 hPa 0,0 mm 4,5 km/h (1 Bft) S-SW 205 ° 0 min 0,000 mm 0,0 UV-I 18 W/m² 5,7 °C 6,8 °C 8,0 km/h (2 Bft)
06.12.2018 08:17 6,8 °C 92 % 1019,8 hPa 0,0 mm 7,9 km/h (2 Bft) S-SW 208 ° 0 min 0,000 mm 0,0 UV-I 18 W/m² 5,6 °C 5,3 °C 11,3 km/h (2 Bft)
06.12.2018 08:18 6,8 °C 92 % 1019,8 hPa 0,0 mm 4,6 km/h (1 Bft) S 190 ° 0 min 0,000 mm 0,0 UV-I 18 W/m² 5,6 °C 6,3 °C 6,4 km/h (2 Bft)
06.12.2018 08:19 6,8 °C 92 % 1019,9 hPa 0,0 mm 4,3 km/h (1 Bft) S-SW 206 ° 0 min 0,000 mm 0,0 UV-I 19 W/m² 5,6 °C 6,8 °C 8,0 km/h (2 Bft)
06.12.2018 08:20 6,8 °C 92 % 1019,9 hPa 0,0 mm 4,7 km/h (1 Bft) S-SW 202 ° 0 min 0,000 mm 0,0 UV-I 19 W/m² 5,6 °C 6,2 °C 6,4 km/h (2 Bft)
06.12.2018 08:21 6,8 °C 92 % 1019,8 hPa 0,0 mm 6,0 km/h (2 Bft) SW 220 ° 0 min 0,000 mm 0,0 UV-I 21 W/m² 5,6 °C 5,8 °C 9,7 km/h (2 Bft)
06.12.2018 08:22 6,8 °C 92 % 1019,8 hPa 0,0 mm 4,3 km/h (1 Bft) S-SW 201 ° 0 min 0,000 mm 0,0 UV-I 21 W/m² 5,6 °C 6,8 °C 6,4 km/h (2 Bft)
06.12.2018 08:23 6,8 °C 92 % 1019,9 hPa 0,0 mm 5,4 km/h (1 Bft) S-SW 206 ° 0 min 0,000 mm 0,0 UV-I 21 W/m² 5,6 °C 6,0 °C 8,0 km/h (2 Bft)
06.12.2018 08:24 6,8 °C 92 % 1019,9 hPa 0,0 mm 7,6 km/h (2 Bft) W-SW 257 ° 0 min 0,000 mm 0,0 UV-I 21 W/m² 5,6 °C 5,3 °C 11,3 km/h (2 Bft)
06.12.2018 08:25 6,8 °C 92 % 1019,9 hPa 0,0 mm 6,3 km/h (2 Bft) W-SW 240 ° 0 min 0,000 mm 0,0 UV-I 21 W/m² 5,6 °C 5,7 °C 9,7 km/h (2 Bft)
06.12.2018 08:26 6,8 °C 92 % 1019,9 hPa 0,0 mm 2,2 km/h (1 Bft) W-SW 244 ° 0 min 0,000 mm 0,0 UV-I 19 W/m² 5,6 °C 6,8 °C 4,8 km/h (1 Bft)
06.12.2018 08:27 6,8 °C 92 % 1019,9 hPa 0,0 mm 5,8 km/h (2 Bft) S-SW 194 ° 0 min 0,000 mm 0,0 UV-I 19 W/m² 5,6 °C 5,9 °C 8,0 km/h (2 Bft)
06.12.2018 08:28 6,9 °C 92 % 1019,9 hPa 0,0 mm 2,7 km/h (1 Bft) SW 229 ° 0 min 0,000 mm 0,0 UV-I 19 W/m² 5,7 °C 6,9 °C 4,8 km/h (1 Bft)
06.12.2018 08:29 6,8 °C 92 % 1020,0 hPa 0,0 mm 3,4 km/h (1 Bft) W-NW 298 ° 0 min 0,000 mm 0,0 UV-I 19 W/m² 5,6 °C 6,8 °C 8,0 km/h (2 Bft)
06.12.2018 08:30 6,8 °C 92 % 1019,9 hPa 0,0 mm 8,0 km/h (2 Bft) W 259 ° 0 min 0,000 mm 0,0 UV-I 19 W/m² 5,6 °C 5,2 °C 16,1 km/h (3 Bft)
06.12.2018 08:31 6,9 °C 92 % 1019,9 hPa 0,0 mm 3,8 km/h (1 Bft) S-SW 206 ° 0 min 0,000 mm 0,0 UV-I 19 W/m² 5,7 °C 6,9 °C 6,4 km/h (2 Bft)
06.12.2018 08:32 6,9 °C 92 % 1019,9 hPa 0,0 mm 3,2 km/h (1 Bft) S-SW 207 ° 0 min 0,000 mm 0,0 UV-I 19 W/m² 5,7 °C 6,9 °C 8,0 km/h (2 Bft)
06.12.2018 08:33 6,8 °C 92 % 1019,9 hPa 0,0 mm 7,3 km/h (2 Bft) SW 226 ° 0 min 0,000 mm 0,0 UV-I 21 W/m² 5,6 °C 5,4 °C 14,5 km/h (3 Bft)
06.12.2018 08:34 6,9 °C 92 % 1019,9 hPa 0,0 mm 3,5 km/h (1 Bft) SW 221 ° 0 min 0,000 mm 0,0 UV-I 21 W/m² 5,7 °C 6,9 °C 4,8 km/h (1 Bft)
06.12.2018 08:35 6,9 °C 92 % 1019,9 hPa 0,0 mm 3,9 km/h (1 Bft) SW 223 ° 0 min 0,000 mm 0,0 UV-I 21 W/m² 5,7 °C 6,9 °C 8,0 km/h (2 Bft)
06.12.2018 08:36 6,8 °C 92 % 1019,9 hPa 0,0 mm 4,0 km/h (1 Bft) S 181 ° 0 min 0,000 mm 0,0 UV-I 21 W/m² 5,6 °C 6,8 °C 6,4 km/h (2 Bft)
06.12.2018 08:37 6,8 °C 92 % 1019,9 hPa 0,0 mm 3,6 km/h (1 Bft) W-SW 246 ° 0 min 0,000 mm 0,0 UV-I 21 W/m² 5,6 °C 6,8 °C 4,8 km/h (1 Bft)
06.12.2018 08:38 6,9 °C 92 % 1019,9 hPa 0,0 mm 3,4 km/h (1 Bft) S-SW 206 ° 0 min 0,000 mm 0,0 UV-I 21 W/m² 5,7 °C 6,9 °C 6,4 km/h (2 Bft)
06.12.2018 08:39 6,9 °C 92 % 1019,9 hPa 0,0 mm 4,9 km/h (1 Bft) S 187 ° 0 min 0,000 mm 0,0 UV-I 23 W/m² 5,7 °C 6,3 °C 6,4 km/h (2 Bft)
06.12.2018 08:40 6,8 °C 91 % 1019,9 hPa 0,0 mm 3,8 km/h (1 Bft) S-SW 198 ° 0 min 0,000 mm 0,0 UV-I 23 W/m² 5,4 °C 6,8 °C 6,4 km/h (2 Bft)
06.12.2018 08:41 6,8 °C 91 % 1019,9 hPa 0,0 mm 3,3 km/h (1 Bft) S-SW 199 ° 0 min 0,000 mm 0,0 UV-I 25 W/m² 5,4 °C 6,8 °C 4,8 km/h (1 Bft)
06.12.2018 08:42 6,9 °C 91 % 1019,9 hPa 0,0 mm 3,6 km/h (1 Bft) S 182 ° 0 min 0,000 mm 0,0 UV-I 25 W/m² 5,5 °C 6,9 °C 6,4 km/h (2 Bft)
06.12.2018 08:43 6,9 °C 91 % 1019,9 hPa 0,0 mm 6,5 km/h (2 Bft) W-SW 238 ° 0 min 0,000 mm 0,0 UV-I 25 W/m² 5,5 °C 5,8 °C 12,9 km/h (3 Bft)
06.12.2018 08:44 6,8 °C 91 % 1019,9 hPa 0,0 mm 5,3 km/h (1 Bft) S 189 ° 0 min 0,000 mm 0,0 UV-I 26 W/m² 5,4 °C 6,0 °C 11,3 km/h (2 Bft)
06.12.2018 08:45 6,9 °C 91 % 1019,9 hPa 0,0 mm 5,4 km/h (1 Bft) SW 221 ° 0 min 0,000 mm 0,0 UV-I 32 W/m² 5,5 °C 6,1 °C 9,7 km/h (2 Bft)
06.12.2018 08:46 6,9 °C 91 % 1019,9 hPa 0,0 mm 3,2 km/h (1 Bft) S-SW 201 ° 0 min 0,000 mm 0,0 UV-I 35 W/m² 5,5 °C 6,9 °C 8,0 km/h (2 Bft)
06.12.2018 08:47 6,9 °C 91 % 1019,9 hPa 0,0 mm 1,8 km/h (1 Bft) S-SW 213 ° 0 min 0,000 mm 0,0 UV-I 37 W/m² 5,5 °C 6,9 °C 3,2 km/h (1 Bft)
06.12.2018 08:48 6,9 °C 91 % 1019,9 hPa 0,0 mm 5,1 km/h (1 Bft) S 181 ° 0 min 0,000 mm 0,0 UV-I 35 W/m² 5,5 °C 6,2 °C 9,7 km/h (2 Bft)
06.12.2018 08:49 6,9 °C 91 % 1019,9 hPa 0,0 mm 5,3 km/h (1 Bft) S-SW 202 ° 0 min 0,000 mm 0,0 UV-I 35 W/m² 5,5 °C 6,1 °C 9,7 km/h (2 Bft)
06.12.2018 08:50 6,9 °C 91 % 1019,9 hPa 0,0 mm 4,1 km/h (1 Bft) S-SW 194 ° 0 min 0,000 mm 0,0 UV-I 33 W/m² 5,5 °C 6,9 °C 8,0 km/h (2 Bft)
06.12.2018 08:51 6,9 °C 91 % 1019,9 hPa 0,0 mm 2,7 km/h (1 Bft) S-SW 203 ° 0 min 0,000 mm 0,0 UV-I 33 W/m² 5,5 °C 6,9 °C 6,4 km/h (2 Bft)
06.12.2018 08:52 6,9 °C 91 % 1019,9 hPa 0,0 mm 4,3 km/h (1 Bft) W 277 ° 0 min 0,000 mm 0,0 UV-I 32 W/m² 5,5 °C 6,9 °C 9,7 km/h (2 Bft)
06.12.2018 08:53 6,9 °C 91 % 1019,9 hPa 0,0 mm 7,6 km/h (2 Bft) S-SW 195 ° 0 min 0,000 mm 0,0 UV-I 32 W/m² 5,5 °C 5,5 °C 9,7 km/h (2 Bft)
06.12.2018 08:54 6,9 °C 91 % 1019,8 hPa 0,0 mm 6,0 km/h (2 Bft) SW 222 ° 0 min 0,000 mm 0,0 UV-I 32 W/m² 5,5 °C 5,9 °C 9,7 km/h (2 Bft)
06.12.2018 08:55 6,9 °C 91 % 1019,9 hPa 0,0 mm 4,8 km/h (1 Bft) S-SW 213 ° 0 min 0,000 mm 0,0 UV-I 33 W/m² 5,5 °C 6,3 °C 9,7 km/h (2 Bft)
06.12.2018 08:56 6,9 °C 91 % 1019,9 hPa 0,0 mm 3,0 km/h (1 Bft) W 263 ° 0 min 0,000 mm 0,0 UV-I 35 W/m² 5,5 °C 6,9 °C 4,8 km/h (1 Bft)
06.12.2018 08:57 6,9 °C 91 % 1019,9 hPa 0,0 mm 3,2 km/h (1 Bft) SW 215 ° 0 min 0,000 mm 0,0 UV-I 33 W/m² 5,5 °C 6,9 °C 4,8 km/h (1 Bft)
06.12.2018 08:58 6,9 °C 91 % 1019,9 hPa 0,0 mm 3,4 km/h (1 Bft) S-SW 208 ° 0 min 0,000 mm 0,0 UV-I 32 W/m² 5,5 °C 6,9 °C 4,8 km/h (1 Bft)
06.12.2018 08:59 6,9 °C 91 % 1019,9 hPa 0,0 mm 2,3 km/h (1 Bft) S-SW 208 ° 0 min 0,000 mm 0,0 UV-I 32 W/m² 5,5 °C 6,9 °C 4,8 km/h (1 Bft)
06.12.2018 09:00 6,9 °C 91 % 1019,9 hPa 0,0 mm 2,3 km/h (1 Bft) S-SW 207 ° 0 min 0,025 mm 0,0 UV-I 32 W/m² 5,5 °C 6,9 °C 4,8 km/h (1 Bft)
06.12.2018 09:01 6,9 °C 91 % 1019,9 hPa 0,0 mm 4,0 km/h (1 Bft) S-SW 206 ° 0 min 0,000 mm 0,0 UV-I 33 W/m² 5,5 °C 6,9 °C 6,4 km/h (2 Bft)
06.12.2018 09:02 6,9 °C 91 % 1019,9 hPa 0,0 mm 0,4 km/h (0 Bft) S-SW 206 ° 0 min 0,000 mm 0,0 UV-I 40 W/m² 5,5 °C 6,9 °C 1,6 km/h (1 Bft)
06.12.2018 09:03 6,9 °C 91 % 1019,9 hPa 0,0 mm 3,5 km/h (1 Bft) S-SW 203 ° 0 min 0,000 mm 0,0 UV-I 44 W/m² 5,5 °C 6,9 °C 4,8 km/h (1 Bft)
06.12.2018 09:04 6,9 °C 91 % 1019,9 hPa 0,0 mm 6,3 km/h (2 Bft) S 190 ° 0 min 0,000 mm 0,0 UV-I 46 W/m² 5,5 °C 5,8 °C 9,7 km/h (2 Bft)
06.12.2018 09:05 6,9 °C 91 % 1019,9 hPa 0,0 mm 6,8 km/h (2 Bft) S-SW 195 ° 0 min 0,000 mm 0,0 UV-I 46 W/m² 5,5 °C 5,7 °C 12,9 km/h (3 Bft)
06.12.2018 09:06 6,9 °C 91 % 1019,9 hPa 0,0 mm 3,4 km/h (1 Bft) S-SW 209 ° 0 min 0,000 mm 0,0 UV-I 46 W/m² 5,5 °C 6,9 °C 8,0 km/h (2 Bft)
06.12.2018 09:07 6,9 °C 91 % 1019,9 hPa 0,0 mm 1,1 km/h (1 Bft) S-SW 209 ° 0 min 0,000 mm 0,0 UV-I 44 W/m² 5,5 °C 6,9 °C 3,2 km/h (1 Bft)
06.12.2018 09:08 6,9 °C 91 % 1019,9 hPa 0,0 mm 1,3 km/h (1 Bft) S-SW 209 ° 0 min 0,000 mm 0,0 UV-I 37 W/m² 5,5 °C 6,9 °C 3,2 km/h (1 Bft)
06.12.2018 09:09 6,9 °C 91 % 1019,9 hPa 0,0 mm 1,3 km/h (1 Bft) S-SW 212 ° 0 min 0,000 mm 0,0 UV-I 35 W/m² 5,5 °C 6,9 °C 3,2 km/h (1 Bft)
06.12.2018 09:10 6,9 °C 91 % 1019,9 hPa 0,0 mm 1,2 km/h (1 Bft) S-SW 212 ° 0 min 0,000 mm 0,0 UV-I 33 W/m² 5,5 °C 6,9 °C 3,2 km/h (1 Bft)
06.12.2018 09:11 6,9 °C 91 % 1019,9 hPa 0,0 mm 0,5 km/h (0 Bft) S-SW 212 ° 0 min 0,000 mm 0,0 UV-I 33 W/m² 5,5 °C 6,9 °C 1,6 km/h (1 Bft)
06.12.2018 09:12 7,0 °C 91 % 1019,9 hPa 0,0 mm 0,1 km/h (0 Bft) S-SW 212 ° 0 min 0,000 mm 0,0 UV-I 35 W/m² 5,6 °C 7,0 °C 1,6 km/h (1 Bft)
06.12.2018 09:13 6,9 °C 91 % 1019,9 hPa 0,0 mm 1,6 km/h (1 Bft) S-SW 212 ° 0 min 0,000 mm 0,0 UV-I 37 W/m² 5,5 °C 6,9 °C 3,2 km/h (1 Bft)
06.12.2018 09:14 6,9 °C 91 % 1019,9 hPa 0,0 mm 1,0 km/h (0 Bft) S-SW 212 ° 0 min 0,000 mm 0,0 UV-I 32 W/m² 5,5 °C 6,9 °C 3,2 km/h (1 Bft)
06.12.2018 09:15 7,0 °C 91 % 1019,9 hPa 0,0 mm 0,1 km/h (0 Bft) S-SW 212 ° 0 min 0,000 mm 0,0 UV-I 33 W/m² 5,6 °C 7,0 °C 1,6 km/h (1 Bft)
06.12.2018 09:16 7,0 °C 91 % 1019,9 hPa 0,0 mm 0,0 km/h (0 Bft) S-SW 212 ° 0 min 0,000 mm 0,0 UV-I 39 W/m² 5,6 °C 7,0 °C 0,0 km/h (0 Bft)
06.12.2018 09:17 7,0 °C 91 % 1019,9 hPa 0,0 mm 2,4 km/h (1 Bft) S-SW 209 ° 0 min 0,000 mm 0,0 UV-I 40 W/m² 5,6 °C 7,0 °C 4,8 km/h (1 Bft)
06.12.2018 09:18 6,9 °C 91 % 1019,9 hPa 0,0 mm 2,5 km/h (1 Bft) S-SW 208 ° 0 min 0,000 mm 0,0 UV-I 40 W/m² 5,5 °C 6,9 °C 4,8 km/h (1 Bft)
06.12.2018 09:19 7,0 °C 91 % 1019,8 hPa 0,0 mm 0,0 km/h (0 Bft) S-SW 209 ° 0 min 0,000 mm 0,0 UV-I 42 W/m² 5,6 °C 7,0 °C 0,0 km/h (0 Bft)
06.12.2018 09:20 6,9 °C 91 % 1019,9 hPa 0,0 mm 0,0 km/h (0 Bft) S-SW 209 ° 0 min 0,000 mm 0,0 UV-I 37 W/m² 5,5 °C 6,9 °C 0,0 km/h (0 Bft)
06.12.2018 09:21 7,0 °C 91 % 1019,9 hPa 0,0 mm 0,0 km/h (0 Bft) S-SW 209 ° 0 min 0,000 mm 0,0 UV-I 35 W/m² 5,6 °C 7,0 °C 0,0 km/h (0 Bft)
06.12.2018 09:22 7,0 °C 91 % 1019,9 hPa 0,0 mm 0,0 km/h (0 Bft) S-SW 208 ° 0 min 0,000 mm 0,0 UV-I 35 W/m² 5,6 °C 7,0 °C 0,0 km/h (0 Bft)
06.12.2018 09:23 7,0 °C 91 % 1019,9 hPa 0,0 mm 0,0 km/h (0 Bft) S-SW 208 ° 0 min 0,000 mm 0,0 UV-I 32 W/m² 5,6 °C 7,0 °C 0,0 km/h (0 Bft)
06.12.2018 09:24 6,9 °C 91 % 1020,0 hPa 0,0 mm 0,0 km/h (0 Bft) S-SW 208 ° 0 min 0,000 mm 0,0 UV-I 28 W/m² 5,5 °C 6,9 °C 0,0 km/h (0 Bft)
06.12.2018 09:25 7,0 °C 91 % 1020,0 hPa 0,0 mm 0,0 km/h (0 Bft) S-SW 209 ° 0 min 0,000 mm 0,0 UV-I 26 W/m² 5,6 °C 7,0 °C 0,0 km/h (0 Bft)
06.12.2018 09:26 7,0 °C 91 % 1019,9 hPa 0,0 mm 0,0 km/h (0 Bft) S-SW 209 ° 0 min 0,000 mm 0,0 UV-I 26 W/m² 5,6 °C 7,0 °C 0,0 km/h (0 Bft)
06.12.2018 09:27 7,0 °C 91 % 1020,0 hPa 0,0 mm 0,0 km/h (0 Bft) S-SW 209 ° 0 min 0,000 mm 0,0 UV-I 25 W/m² 5,6 °C 7,0 °C 0,0 km/h (0 Bft)
06.12.2018 09:28 6,9 °C 92 % 1019,9 hPa 0,0 mm 0,0 km/h (0 Bft) S-SW 209 ° 0 min 0,000 mm 0,0 UV-I 25 W/m² 5,7 °C 6,9 °C 0,0 km/h (0 Bft)
06.12.2018 09:29 6,9 °C 92 % 1019,9 hPa 0,0 mm 0,0 km/h (0 Bft) S-SW 209 ° 0 min 0,000 mm 0,0 UV-I 25 W/m² 5,7 °C 6,9 °C 0,0 km/h (0 Bft)
06.12.2018 09:30 6,9 °C 92 % 1020,0 hPa 0,0 mm 0,0 km/h (0 Bft) S-SW 209 ° 0 min 0,000 mm 0,0 UV-I 25 W/m² 5,7 °C 6,9 °C 0,0 km/h (0 Bft)
06.12.2018 09:31 6,9 °C 92 % 1020,0 hPa 0,0 mm 2,4 km/h (1 Bft) S-SW 208 ° 0 min 0,000 mm 0,0 UV-I 26 W/m² 5,7 °C 6,9 °C 4,8 km/h (1 Bft)
06.12.2018 09:32 6,9 °C 92 % 1020,1 hPa 0,0 mm 1,9 km/h (1 Bft) S-SW 204 ° 0 min 0,000 mm 0,0 UV-I 28 W/m² 5,7 °C 6,9 °C 6,4 km/h (2 Bft)
06.12.2018 09:33 6,8 °C 92 % 1020,0 hPa 0,0 mm 2,5 km/h (1 Bft) W-SW 246 ° 0 min 0,000 mm 0,0 UV-I 30 W/m² 5,6 °C 6,8 °C 3,2 km/h (1 Bft)
06.12.2018 09:34 6,8 °C 92 % 1020,1 hPa 0,0 mm 3,0 km/h (1 Bft) W-SW 256 ° 0 min 0,000 mm 0,0 UV-I 35 W/m² 5,6 °C 6,8 °C 4,8 km/h (1 Bft)
06.12.2018 09:35 6,8 °C 92 % 1020,1 hPa 0,0 mm 2,4 km/h (1 Bft) W-SW 256 ° 0 min 0,000 mm 0,0 UV-I 44 W/m² 5,6 °C 6,8 °C 4,8 km/h (1 Bft)
06.12.2018 09:36 6,8 °C 91 % 1020,1 hPa 0,0 mm 1,9 km/h (1 Bft) W-SW 256 ° 0 min 0,000 mm 0,0 UV-I 51 W/m² 5,4 °C 6,8 °C 3,2 km/h (1 Bft)
06.12.2018 09:37 6,8 °C 91 % 1020,2 hPa 0,0 mm 0,0 km/h (0 Bft) W-SW 256 ° 0 min 0,000 mm 0,5 UV-I 69 W/m² 5,4 °C 6,8 °C 0,0 km/h (0 Bft)
06.12.2018 09:38 6,8 °C 91 % 1020,1 hPa 0,0 mm 0,0 km/h (0 Bft) W-SW 256 ° 0 min 0,000 mm 0,5 UV-I 104 W/m² 5,4 °C 6,8 °C 0,0 km/h (0 Bft)
06.12.2018 09:39 6,7 °C 92 % 1020,3 hPa 0,0 mm 0,3 km/h (0 Bft) W-SW 256 ° 0 min 0,000 mm 0,0 UV-I 100 W/m² 5,5 °C 6,7 °C 1,6 km/h (1 Bft)
06.12.2018 09:40 6,7 °C 92 % 1020,3 hPa 0,0 mm 0,0 km/h (0 Bft) W-SW 256 ° 0 min 0,000 mm 0,0 UV-I 98 W/m² 5,5 °C 6,7 °C 0,0 km/h (0 Bft)
06.12.2018 09:41 6,7 °C 92 % 1020,3 hPa 0,0 mm 0,1 km/h (0 Bft) W-SW 256 ° 0 min 0,000 mm 0,0 UV-I 90 W/m² 5,5 °C 6,7 °C 1,6 km/h (1 Bft)
06.12.2018 09:42 6,7 °C 92 % 1020,3 hPa 0,0 mm 0,0 km/h (0 Bft) W-SW 256 ° 0 min 0,000 mm 0,0 UV-I 77 W/m² 5,5 °C 6,7 °C 0,0 km/h (0 Bft)
06.12.2018 09:43 6,7 °C 93 % 1020,4 hPa 0,0 mm 0,0 km/h (0 Bft) W-SW 256 ° 0 min 0,000 mm 0,0 UV-I 60 W/m² 5,6 °C 6,7 °C 0,0 km/h (0 Bft)
06.12.2018 09:44 6,7 °C 93 % 1020,4 hPa 0,0 mm 0,1 km/h (0 Bft) W-SW 256 ° 0 min 0,000 mm 0,0 UV-I 54 W/m² 5,6 °C 6,7 °C 1,6 km/h (1 Bft)
06.12.2018 09:45 6,8 °C 93 % 1020,4 hPa 0,0 mm 0,0 km/h (0 Bft) W-SW 256 ° 0 min 0,000 mm 0,0 UV-I 54 W/m² 5,7 °C 6,8 °C 0,0 km/h (0 Bft)
06.12.2018 09:46 6,8 °C 93 % 1020,5 hPa 0,0 mm 0,0 km/h (0 Bft) W-SW 256 ° 0 min 0,000 mm 0,0 UV-I 53 W/m² 5,7 °C 6,8 °C 0,0 km/h (0 Bft)
06.12.2018 09:47 6,8 °C 93 % 1020,5 hPa 0,0 mm 0,0 km/h (0 Bft) W-SW 256 ° 0 min 0,000 mm 0,0 UV-I 53 W/m² 5,7 °C 6,8 °C 0,0 km/h (0 Bft)
06.12.2018 09:48 6,8 °C 93 % 1020,5 hPa 0,0 mm 0,0 km/h (0 Bft) W-SW 256 ° 0 min 0,000 mm 0,0 UV-I 51 W/m² 5,7 °C 6,8 °C 0,0 km/h (0 Bft)
06.12.2018 09:49 6,8 °C 93 % 1020,6 hPa 0,0 mm 0,0 km/h (0 Bft) W-SW 256 ° 0 min 0,000 mm 0,0 UV-I 54 W/m² 5,7 °C 6,8 °C 0,0 km/h (0 Bft)
06.12.2018 09:50 6,8 °C 93 % 1020,5 hPa 0,0 mm 0,0 km/h (0 Bft) W-SW 256 ° 0 min 0,000 mm 0,0 UV-I 56 W/m² 5,7 °C 6,8 °C 0,0 km/h (0 Bft)
06.12.2018 09:51 6,9 °C 93 % 1020,6 hPa 0,0 mm 0,4 km/h (0 Bft) W-SW 256 ° 0 min 0,000 mm 0,0 UV-I 62 W/m² 5,8 °C 6,9 °C 1,6 km/h (1 Bft)
06.12.2018 09:52 6,9 °C 93 % 1020,6 hPa 0,0 mm 0,4 km/h (0 Bft) W-SW 256 ° 0 min 0,000 mm 0,0 UV-I 67 W/m² 5,8 °C 6,9 °C 1,6 km/h (1 Bft)
06.12.2018 09:53 6,9 °C 93 % 1020,6 hPa 0,0 mm 0,0 km/h (0 Bft) W-SW 256 ° 0 min 0,000 mm 0,0 UV-I 69 W/m² 5,8 °C 6,9 °C 0,0 km/h (0 Bft)
06.12.2018 09:54 6,9 °C 93 % 1020,6 hPa 0,0 mm 1,1 km/h (1 Bft) W-SW 256 ° 0 min 0,000 mm 0,0 UV-I 69 W/m² 5,8 °C 6,9 °C 3,2 km/h (1 Bft)
06.12.2018 09:55 6,9 °C 93 % 1020,6 hPa 0,0 mm 2,1 km/h (1 Bft) W-SW 256 ° 0 min 0,000 mm 0,0 UV-I 70 W/m² 5,8 °C 6,9 °C 3,2 km/h (1 Bft)
06.12.2018 09:56 6,9 °C 93 % 1020,6 hPa 0,0 mm 1,7 km/h (1 Bft) W-SW 256 ° 0 min 0,000 mm 0,0 UV-I 67 W/m² 5,8 °C 6,9 °C 3,2 km/h (1 Bft)
06.12.2018 09:57 7,0 °C 93 % 1020,6 hPa 0,0 mm 2,7 km/h (1 Bft) W-SW 240 ° 0 min 0,000 mm 0,0 UV-I 60 W/m² 5,9 °C 7,0 °C 3,2 km/h (1 Bft)
06.12.2018 09:58 7,1 °C 93 % 1020,6 hPa 0,0 mm 2,4 km/h (1 Bft) W-SW 237 ° 0 min 0,000 mm 0,0 UV-I 54 W/m² 6,0 °C 7,1 °C 6,4 km/h (2 Bft)
06.12.2018 09:59 7,1 °C 93 % 1020,7 hPa 0,0 mm 2,6 km/h (1 Bft) SW 236 ° 0 min 0,000 mm 0,0 UV-I 53 W/m² 6,0 °C 7,1 °C 6,4 km/h (2 Bft)
06.12.2018 10:00 7,1 °C 93 % 1020,6 hPa 0,0 mm 2,1 km/h (1 Bft) SW 227 ° 0 min 0,026 mm 0,0 UV-I 53 W/m² 6,0 °C 7,1 °C 4,8 km/h (1 Bft)
06.12.2018 10:01 7,1 °C 93 % 1020,6 hPa 0,0 mm 3,7 km/h (1 Bft) W-SW 252 ° 0 min 0,000 mm 0,0 UV-I 54 W/m² 6,0 °C 7,1 °C 11,3 km/h (2 Bft)
06.12.2018 10:02 7,1 °C 93 % 1020,6 hPa 0,0 mm 6,4 km/h (2 Bft) W-SW 251 ° 0 min 0,000 mm 0,0 UV-I 58 W/m² 6,0 °C 6,0 °C 9,7 km/h (2 Bft)
06.12.2018 10:03 7,1 °C 93 % 1020,7 hPa 0,0 mm 9,7 km/h (2 Bft) W 273 ° 0 min 0,000 mm 0,0 UV-I 63 W/m² 6,0 °C 5,2 °C 16,1 km/h (3 Bft)
06.12.2018 10:04 7,2 °C 93 % 1020,7 hPa 0,0 mm 7,2 km/h (2 Bft) W-SW 251 ° 0 min 0,000 mm 0,0 UV-I 70 W/m² 6,1 °C 5,9 °C 9,7 km/h (2 Bft)
06.12.2018 10:05 7,2 °C 93 % 1020,7 hPa 0,0 mm 9,9 km/h (2 Bft) W 276 ° 0 min 0,000 mm 0,0 UV-I 70 W/m² 6,1 °C 5,3 °C 16,1 km/h (3 Bft)
06.12.2018 10:06 7,2 °C 93 % 1020,7 hPa 0,0 mm 7,9 km/h (2 Bft) W-SW 239 ° 0 min 0,000 mm 0,0 UV-I 74 W/m² 6,1 °C 5,7 °C 17,7 km/h (3 Bft)
06.12.2018 10:07 7,3 °C 93 % 1020,7 hPa 0,0 mm 11,0 km/h (2 Bft) SW 224 ° 0 min 0,000 mm 0,0 UV-I 81 W/m² 6,2 °C 5,2 °C 14,5 km/h (3 Bft)
06.12.2018 10:08 7,3 °C 92 % 1020,7 hPa 0,0 mm 8,6 km/h (2 Bft) W 264 ° 0 min 0,000 mm 0,5 UV-I 86 W/m² 6,1 °C 5,7 °C 12,9 km/h (3 Bft)
06.12.2018 10:09 7,4 °C 92 % 1020,7 hPa 0,0 mm 9,2 km/h (2 Bft) W-SW 251 ° 0 min 0,000 mm 0,5 UV-I 91 W/m² 6,2 °C 5,7 °C 16,1 km/h (3 Bft)
06.12.2018 10:10 7,4 °C 92 % 1020,8 hPa 0,0 mm 14,7 km/h (3 Bft) W-SW 256 ° 0 min 0,000 mm 0,5 UV-I 91 W/m² 6,2 °C 4,8 °C 17,7 km/h (3 Bft)
06.12.2018 10:11 7,4 °C 92 % 1020,8 hPa 0,0 mm 14,8 km/h (3 Bft) W 276 ° 0 min 0,000 mm 0,6 UV-I 97 W/m² 6,2 °C 4,7 °C 19,3 km/h (3 Bft)
06.12.2018 10:12 7,4 °C 92 % 1020,8 hPa 0,0 mm 11,7 km/h (2 Bft) W-SW 254 ° 0 min 0,000 mm 0,5 UV-I 97 W/m² 6,2 °C 5,2 °C 17,7 km/h (3 Bft)
06.12.2018 10:13 7,5 °C 92 % 1020,9 hPa 0,0 mm 11,4 km/h (2 Bft) W 263 ° 0 min 0,000 mm 0,5 UV-I 90 W/m² 6,3 °C 5,4 °C 16,1 km/h (3 Bft)
06.12.2018 10:14 7,5 °C 92 % 1020,9 hPa 0,0 mm 11,2 km/h (2 Bft) SW 229 ° 0 min 0,000 mm 0,0 UV-I 67 W/m² 6,3 °C 5,4 °C 14,5 km/h (3 Bft)
06.12.2018 10:15 7,5 °C 92 % 1020,9 hPa 0,0 mm 8,6 km/h (2 Bft) W-SW 252 ° 0 min 0,000 mm 0,0 UV-I 56 W/m² 6,3 °C 5,9 °C 14,5 km/h (3 Bft)
06.12.2018 10:16 7,5 °C 91 % 1020,9 hPa 0,0 mm 13,2 km/h (3 Bft) W 279 ° 0 min 0,000 mm 0,0 UV-I 46 W/m² 6,1 °C 5,1 °C 16,1 km/h (3 Bft)
06.12.2018 10:17 7,5 °C 91 % 1020,9 hPa 0,0 mm 5,3 km/h (1 Bft) W-SW 252 ° 0 min 0,000 mm 0,0 UV-I 44 W/m² 6,1 °C 6,8 °C 11,3 km/h (2 Bft)
06.12.2018 10:18 7,5 °C 91 % 1020,9 hPa 0,0 mm 5,7 km/h (1 Bft) SW 234 ° 0 min 0,000 mm 0,0 UV-I 51 W/m² 6,1 °C 6,7 °C 8,0 km/h (2 Bft)
06.12.2018 10:19 7,5 °C 91 % 1020,9 hPa 0,0 mm 5,0 km/h (1 Bft) W-SW 237 ° 0 min 0,000 mm 0,0 UV-I 46 W/m² 6,1 °C 6,9 °C 8,0 km/h (2 Bft)
06.12.2018 10:20 7,5 °C 91 % 1020,9 hPa 0,0 mm 8,6 km/h (2 Bft) W 273 ° 0 min 0,000 mm 0,0 UV-I 42 W/m² 6,1 °C 5,9 °C 14,5 km/h (3 Bft)
06.12.2018 10:21 7,5 °C 91 % 1021,0 hPa 0,0 mm 8,5 km/h (2 Bft) W-SW 255 ° 0 min 0,000 mm 0,0 UV-I 44 W/m² 6,1 °C 6,0 °C 14,5 km/h (3 Bft)
06.12.2018 10:22 7,5 °C 91 % 1021,0 hPa 0,0 mm 7,4 km/h (2 Bft) SW 215 ° 0 min 0,000 mm 0,0 UV-I 40 W/m² 6,1 °C 6,2 °C 12,9 km/h (3 Bft)
06.12.2018 10:23 7,5 °C 91 % 1021,0 hPa 0,0 mm 5,5 km/h (1 Bft) W 275 ° 0 min 0,000 mm 0,0 UV-I 42 W/m² 6,1 °C 6,8 °C 9,7 km/h (2 Bft)
06.12.2018 10:24 7,5 °C 91 % 1021,0 hPa 0,0 mm 14,1 km/h (3 Bft) W 264 ° 0 min 0,000 mm 0,0 UV-I 49 W/m² 6,1 °C 5,0 °C 19,3 km/h (3 Bft)
06.12.2018 10:25 7,5 °C 91 % 1021,0 hPa 0,0 mm 7,9 km/h (2 Bft) W-SW 244 ° 0 min 0,000 mm 0,0 UV-I 54 W/m² 6,1 °C 6,1 °C 14,5 km/h (3 Bft)
06.12.2018 10:26 7,4 °C 91 % 1020,9 hPa 0,0 mm 6,7 km/h (2 Bft) SW 232 ° 0 min 0,000 mm 0,5 UV-I 60 W/m² 6,0 °C 6,3 °C 11,3 km/h (2 Bft)
06.12.2018 10:27 7,4 °C 91 % 1021,0 hPa 0,0 mm 10,3 km/h (2 Bft) W 263 ° 0 min 0,000 mm 0,0 UV-I 54 W/m² 6,0 °C 5,5 °C 14,5 km/h (3 Bft)
06.12.2018 10:28 7,4 °C 91 % 1021,0 hPa 0,0 mm 5,7 km/h (1 Bft) W 265 ° 0 min 0,000 mm 0,0 UV-I 49 W/m² 6,0 °C 6,6 °C 11,3 km/h (2 Bft)
06.12.2018 10:29 7,4 °C 91 % 1021,0 hPa 0,0 mm 7,3 km/h (2 Bft) W-NW 287 ° 0 min 0,000 mm 0,0 UV-I 51 W/m² 6,0 °C 6,1 °C 11,3 km/h (2 Bft)
06.12.2018 10:30 7,4 °C 91 % 1020,9 hPa 0,0 mm 6,6 km/h (2 Bft) W-SW 237 ° 0 min 0,000 mm 0,0 UV-I 53 W/m² 6,0 °C 6,3 °C 9,7 km/h (2 Bft)
06.12.2018 10:31 7,4 °C 91 % 1020,9 hPa 0,0 mm 8,0 km/h (2 Bft) SW 236 ° 0 min 0,000 mm 0,0 UV-I 56 W/m² 6,0 °C 6,0 °C 11,3 km/h (2 Bft)
06.12.2018 10:32 7,4 °C 91 % 1020,9 hPa 0,0 mm 11,5 km/h (2 Bft) W-SW 249 ° 0 min 0,000 mm 0,5 UV-I 62 W/m² 6,0 °C 5,2 °C 17,7 km/h (3 Bft)
06.12.2018 10:33 7,4 °C 91 % 1020,9 hPa 0,0 mm 9,4 km/h (2 Bft) SW 220 ° 0 min 0,000 mm 0,5 UV-I 63 W/m² 6,0 °C 5,6 °C 14,5 km/h (3 Bft)
06.12.2018 10:34 7,4 °C 91 % 1021,0 hPa 0,0 mm 10,0 km/h (2 Bft) W-SW 242 ° 0 min 0,000 mm 0,5 UV-I 67 W/m² 6,0 °C 5,5 °C 16,1 km/h (3 Bft)
06.12.2018 10:35 7,4 °C 91 % 1021,0 hPa 0,0 mm 8,6 km/h (2 Bft) W-SW 257 ° 0 min 0,000 mm 0,5 UV-I 86 W/m² 6,0 °C 5,8 °C 16,1 km/h (3 Bft)
06.12.2018 10:36 7,4 °C 91 % 1021,0 hPa 0,0 mm 13,7 km/h (3 Bft) W 271 ° 0 min 0,000 mm 0,5 UV-I 63 W/m² 6,0 °C 4,9 °C 17,7 km/h (3 Bft)
06.12.2018 10:37 7,4 °C 91 % 1021,0 hPa 0,0 mm 10,7 km/h (2 Bft) W-SW 249 ° 0 min 0,000 mm 0,0 UV-I 60 W/m² 6,0 °C 5,4 °C 17,7 km/h (3 Bft)
06.12.2018 10:38 7,4 °C 91 % 1021,1 hPa 0,0 mm 7,3 km/h (2 Bft) W-SW 250 ° 0 min 0,000 mm 0,0 UV-I 51 W/m² 6,0 °C 6,1 °C 11,3 km/h (2 Bft)
06.12.2018 10:39 7,4 °C 91 % 1021,1 hPa 0,0 mm 9,5 km/h (2 Bft) W-SW 257 ° 0 min 0,000 mm 0,0 UV-I 53 W/m² 6,0 °C 5,6 °C 16,1 km/h (3 Bft)
06.12.2018 10:40 7,4 °C 91 % 1021,1 hPa 0,0 mm 8,5 km/h (2 Bft) W-SW 253 ° 0 min 0,000 mm 0,0 UV-I 47 W/m² 6,0 °C 5,8 °C 12,9 km/h (3 Bft)
06.12.2018 10:41 7,4 °C 91 % 1021,1 hPa 0,0 mm 7,0 km/h (2 Bft) SW 230 ° 0 min 0,000 mm 0,0 UV-I 46 W/m² 6,0 °C 6,2 °C 11,3 km/h (2 Bft)
06.12.2018 10:42 7,4 °C 91 % 1021,1 hPa 0,0 mm 6,4 km/h (2 Bft) W 266 ° 0 min 0,000 mm 0,0 UV-I 44 W/m² 6,0 °C 6,4 °C 11,3 km/h (2 Bft)
06.12.2018 10:43 7,4 °C 91 % 1021,1 hPa 0,0 mm 5,4 km/h (1 Bft) SW 231 ° 0 min 0,000 mm 0,0 UV-I 47 W/m² 6,0 °C 6,7 °C 9,7 km/h (2 Bft)
06.12.2018 10:44 7,4 °C 91 % 1021,2 hPa 0,0 mm 4,2 km/h (1 Bft) W-SW 246 ° 0 min 0,000 mm 0,0 UV-I 51 W/m² 6,0 °C 7,4 °C 11,3 km/h (2 Bft)
06.12.2018 10:45 7,4 °C 91 % 1021,1 hPa 0,0 mm 6,8 km/h (2 Bft) W 260 ° 0 min 0,000 mm 0,0 UV-I 53 W/m² 6,0 °C 6,3 °C 9,7 km/h (2 Bft)
06.12.2018 10:46 7,4 °C 91 % 1021,2 hPa 0,0 mm 10,7 km/h (2 Bft) W-SW 250 ° 0 min 0,000 mm 0,5 UV-I 58 W/m² 6,0 °C 5,4 °C 12,9 km/h (3 Bft)
06.12.2018 10:47 7,4 °C 91 % 1021,2 hPa 0,0 mm 11,1 km/h (2 Bft) W 266 ° 0 min 0,000 mm 0,5 UV-I 67 W/m² 6,0 °C 5,3 °C 16,1 km/h (3 Bft)
06.12.2018 10:48 7,4 °C 91 % 1021,3 hPa 0,0 mm 9,0 km/h (2 Bft) W 271 ° 0 min 0,000 mm 0,5 UV-I 62 W/m² 6,0 °C 5,7 °C 14,5 km/h (3 Bft)
06.12.2018 10:49 7,4 °C 91 % 1021,3 hPa 0,0 mm 11,3 km/h (2 Bft) W-SW 250 ° 0 min 0,000 mm 0,0 UV-I 54 W/m² 6,0 °C 5,3 °C 16,1 km/h (3 Bft)
06.12.2018 10:50 7,4 °C 91 % 1021,3 hPa 0,0 mm 7,2 km/h (2 Bft) W 277 ° 0 min 0,000 mm 0,0 UV-I 53 W/m² 6,0 °C 6,1 °C 12,9 km/h (3 Bft)
06.12.2018 10:51 7,4 °C 91 % 1021,3 hPa 0,0 mm 10,9 km/h (2 Bft) W-NW 286 ° 0 min 0,000 mm 0,0 UV-I 51 W/m² 6,0 °C 5,4 °C 16,1 km/h (3 Bft)
06.12.2018 10:52 7,4 °C 91 % 1021,3 hPa 0,0 mm 9,5 km/h (2 Bft) W 263 ° 0 min 0,000 mm 0,0 UV-I 54 W/m² 6,0 °C 5,6 °C 12,9 km/h (3 Bft)
06.12.2018 10:53 7,4 °C 91 % 1021,3 hPa 0,0 mm 6,8 km/h (2 Bft) W-SW 252 ° 0 min 0,000 mm 0,5 UV-I 58 W/m² 6,0 °C 6,3 °C 9,7 km/h (2 Bft)
06.12.2018 10:54 7,4 °C 91 % 1021,3 hPa 0,0 mm 4,2 km/h (1 Bft) W 264 ° 0 min 0,000 mm 0,0 UV-I 60 W/m² 6,0 °C 7,4 °C 8,0 km/h (2 Bft)
06.12.2018 10:55 7,4 °C 91 % 1021,2 hPa 0,0 mm 7,0 km/h (2 Bft) W 269 ° 0 min 0,000 mm 0,5 UV-I 58 W/m² 6,0 °C 6,2 °C 11,3 km/h (2 Bft)
06.12.2018 10:56 7,4 °C 91 % 1021,3 hPa 0,0 mm 12,1 km/h (2 Bft) W 274 ° 0 min 0,000 mm 0,0 UV-I 51 W/m² 6,0 °C 5,1 °C 17,7 km/h (3 Bft)
06.12.2018 10:57 7,4 °C 91 % 1021,3 hPa 0,0 mm 5,0 km/h (1 Bft) W-SW 252 ° 0 min 0,000 mm 0,0 UV-I 51 W/m² 6,0 °C 6,8 °C 9,7 km/h (2 Bft)
06.12.2018 10:58 7,4 °C 91 % 1021,2 hPa 0,0 mm 3,5 km/h (1 Bft) W-SW 257 ° 0 min 0,000 mm 0,6 UV-I 58 W/m² 6,0 °C 7,4 °C 6,4 km/h (2 Bft)
06.12.2018 10:59 7,4 °C 91 % 1021,2 hPa 0,0 mm 7,1 km/h (2 Bft) W-SW 254 ° 0 min 0,000 mm 0,6 UV-I 63 W/m² 6,0 °C 6,2 °C 14,5 km/h (3 Bft)
06.12.2018 11:00 7,4 °C 91 % 1021,2 hPa 0,0 mm 8,9 km/h (2 Bft) W 265 ° 0 min 0,000 mm 0,6 UV-I 63 W/m² 6,0 °C 5,8 °C 17,7 km/h (3 Bft)
06.12.2018 11:01 7,4 °C 92 % 1021,2 hPa 0,0 mm 8,1 km/h (2 Bft) W-SW 244 ° 0 min 0,025 mm 0,7 UV-I 63 W/m² 6,2 °C 5,9 °C 12,9 km/h (3 Bft)
06.12.2018 11:02 7,4 °C 92 % 1021,2 hPa 0,0 mm 5,0 km/h (1 Bft) W 261 ° 0 min 0,000 mm 0,6 UV-I 62 W/m² 6,2 °C 6,8 °C 8,0 km/h (2 Bft)
06.12.2018 11:03 7,4 °C 92 % 1021,2 hPa 0,0 mm 6,1 km/h (2 Bft) SW 233 ° 0 min 0,000 mm 0,7 UV-I 67 W/m² 6,2 °C 6,5 °C 11,3 km/h (2 Bft)
06.12.2018 11:04 7,4 °C 92 % 1021,2 hPa 0,0 mm 4,5 km/h (1 Bft) W-SW 254 ° 0 min 0,000 mm 0,6 UV-I 72 W/m² 6,2 °C 7,4 °C 11,3 km/h (2 Bft)
06.12.2018 11:05 7,4 °C 92 % 1021,2 hPa 0,0 mm 9,4 km/h (2 Bft) W 265 ° 0 min 0,000 mm 0,6 UV-I 63 W/m² 6,2 °C 5,6 °C 11,3 km/h (2 Bft)
06.12.2018 11:06 7,4 °C 92 % 1021,3 hPa 0,0 mm 9,2 km/h (2 Bft) W 259 ° 0 min 0,000 mm 0,6 UV-I 62 W/m² 6,2 °C 5,7 °C 11,3 km/h (2 Bft)
06.12.2018 11:07 7,4 °C 92 % 1021,2 hPa 0,0 mm 3,2 km/h (1 Bft) W-NW 290 ° 0 min 0,000 mm 0,6 UV-I 67 W/m² 6,2 °C 7,4 °C 4,8 km/h (1 Bft)
06.12.2018 11:08 7,4 °C 92 % 1021,2 hPa 0,0 mm 4,6 km/h (1 Bft) W-SW 252 ° 0 min 0,000 mm 0,6 UV-I 63 W/m² 6,2 °C 7,0 °C 6,4 km/h (2 Bft)
06.12.2018 11:09 7,4 °C 92 % 1021,2 hPa 0,2 mm 3,6 km/h (1 Bft) W 273 ° 0 min 0,000 mm 0,5 UV-I 56 W/m² 6,2 °C 7,4 °C 6,4 km/h (2 Bft)
06.12.2018 11:10 7,4 °C 92 % 1021,2 hPa 0,0 mm 6,4 km/h (2 Bft) W-SW 250 ° 0 min 0,000 mm 0,0 UV-I 44 W/m² 6,2 °C 6,4 °C 9,7 km/h (2 Bft)
06.12.2018 11:11 7,4 °C 92 % 1021,2 hPa 0,0 mm 5,4 km/h (1 Bft) W-NW 288 ° 0 min 0,000 mm 0,0 UV-I 37 W/m² 6,2 °C 6,7 °C 6,4 km/h (2 Bft)
06.12.2018 11:12 7,4 °C 92 % 1021,2 hPa 0,0 mm 3,7 km/h (1 Bft) W-SW 251 ° 0 min 0,000 mm 0,0 UV-I 37 W/m² 6,2 °C 7,4 °C 9,7 km/h (2 Bft)
06.12.2018 11:13 7,4 °C 92 % 1021,2 hPa 0,0 mm 5,6 km/h (1 Bft) W 261 ° 0 min 0,000 mm 0,0 UV-I 39 W/m² 6,2 °C 6,6 °C 9,7 km/h (2 Bft)
06.12.2018 11:14 7,4 °C 92 % 1021,2 hPa 0,0 mm 7,6 km/h (2 Bft) W-SW 242 ° 0 min 0,000 mm 0,0 UV-I 42 W/m² 6,2 °C 6,0 °C 12,9 km/h (3 Bft)
06.12.2018 11:15 7,4 °C 92 % 1021,2 hPa 0,0 mm 8,0 km/h (2 Bft) W 263 ° 0 min 0,000 mm 0,0 UV-I 46 W/m² 6,2 °C 6,0 °C 12,9 km/h (3 Bft)
06.12.2018 11:16 7,4 °C 92 % 1021,1 hPa 0,0 mm 8,6 km/h (2 Bft) W-SW 254 ° 0 min 0,000 mm 0,0 UV-I 53 W/m² 6,2 °C 5,8 °C 12,9 km/h (3 Bft)
06.12.2018 11:17 7,4 °C 92 % 1021,1 hPa 0,0 mm 8,3 km/h (2 Bft) SW 218 ° 0 min 0,000 mm 0,7 UV-I 60 W/m² 6,2 °C 5,9 °C 14,5 km/h (3 Bft)
06.12.2018 11:18 7,4 °C 92 % 1021,1 hPa 0,0 mm 5,6 km/h (1 Bft) W 261 ° 0 min 0,000 mm 0,0 UV-I 53 W/m² 6,2 °C 6,6 °C 11,3 km/h (2 Bft)
06.12.2018 11:19 7,4 °C 92 % 1021,1 hPa 0,0 mm 6,3 km/h (2 Bft) W-SW 250 ° 0 min 0,000 mm 0,0 UV-I 44 W/m² 6,2 °C 6,4 °C 11,3 km/h (2 Bft)
06.12.2018 11:20 7,4 °C 92 % 1021,1 hPa 0,0 mm 4,2 km/h (1 Bft) W-SW 256 ° 0 min 0,000 mm 0,0 UV-I 40 W/m² 6,2 °C 7,4 °C 11,3 km/h (2 Bft)
06.12.2018 11:21 7,4 °C 92 % 1021,1 hPa 0,0 mm 8,6 km/h (2 Bft) W-SW 252 ° 0 min 0,000 mm 0,0 UV-I 35 W/m² 6,2 °C 5,8 °C 12,9 km/h (3 Bft)
06.12.2018 11:22 7,4 °C 92 % 1021,1 hPa 0,0 mm 4,7 km/h (1 Bft) W-SW 242 ° 0 min 0,000 mm 0,0 UV-I 33 W/m² 6,2 °C 6,9 °C 6,4 km/h (2 Bft)
06.12.2018 11:23 7,4 °C 92 % 1021,1 hPa 0,0 mm 3,6 km/h (1 Bft) W-SW 242 ° 0 min 0,000 mm 0,0 UV-I 49 W/m² 6,2 °C 7,4 °C 6,4 km/h (2 Bft)
06.12.2018 11:24 7,4 °C 92 % 1021,0 hPa 0,0 mm 4,2 km/h (1 Bft) SW 236 ° 0 min 0,000 mm 0,7 UV-I 70 W/m² 6,2 °C 7,4 °C 8,0 km/h (2 Bft)
06.12.2018 11:25 7,4 °C 92 % 1021,0 hPa 0,0 mm 5,3 km/h (1 Bft) W-SW 240 ° 0 min 0,000 mm 0,7 UV-I 83 W/m² 6,2 °C 6,7 °C 9,7 km/h (2 Bft)
06.12.2018 11:26 7,4 °C 92 % 1021,1 hPa 0,0 mm 5,6 km/h (1 Bft) W-SW 246 ° 0 min 0,000 mm 0,7 UV-I 72 W/m² 6,2 °C 6,6 °C 8,0 km/h (2 Bft)
06.12.2018 11:27 7,4 °C 92 % 1021,1 hPa 0,0 mm 4,6 km/h (1 Bft) W-SW 252 ° 0 min 0,000 mm 0,8 UV-I 72 W/m² 6,2 °C 7,0 °C 9,7 km/h (2 Bft)
06.12.2018 11:28 7,4 °C 92 % 1021,0 hPa 0,0 mm 6,2 km/h (2 Bft) W 267 ° 0 min 0,000 mm 0,8 UV-I 79 W/m² 6,2 °C 6,4 °C 12,9 km/h (3 Bft)
06.12.2018 11:29 7,4 °C 92 % 1021,0 hPa 0,0 mm 6,1 km/h (2 Bft) W-SW 247 ° 0 min 0,000 mm 0,8 UV-I 118 W/m² 6,2 °C 6,5 °C 9,7 km/h (2 Bft)
06.12.2018 11:30 7,4 °C 92 % 1021,0 hPa 0,0 mm 3,1 km/h (1 Bft) W-SW 247 ° 0 min 0,000 mm 0,8 UV-I 128 W/m² 6,2 °C 7,4 °C 4,8 km/h (1 Bft)
06.12.2018 11:31 7,4 °C 92 % 1021,0 hPa 0,0 mm 2,8 km/h (1 Bft) W 274 ° 0 min 0,000 mm 0,8 UV-I 139 W/m² 6,2 °C 7,4 °C 4,8 km/h (1 Bft)
06.12.2018 11:32 7,4 °C 92 % 1021,0 hPa 0,0 mm 3,1 km/h (1 Bft) W-SW 250 ° 0 min 0,000 mm 0,8 UV-I 139 W/m² 6,2 °C 7,4 °C 6,4 km/h (2 Bft)
06.12.2018 11:33 7,6 °C 92 % 1020,9 hPa 0,0 mm 10,3 km/h (2 Bft) W-SW 239 ° 0 min 0,000 mm 0,7 UV-I 111 W/m² 6,4 °C 5,7 °C 14,5 km/h (3 Bft)
06.12.2018 11:34 7,6 °C 92 % 1020,9 hPa 0,0 mm 8,1 km/h (2 Bft) W 279 ° 0 min 0,000 mm 0,7 UV-I 91 W/m² 6,4 °C 6,2 °C 11,3 km/h (2 Bft)
06.12.2018 11:35 7,7 °C 92 % 1021,0 hPa 0,0 mm 6,0 km/h (2 Bft) W-NW 284 ° 0 min 0,000 mm 0,7 UV-I 105 W/m² 6,5 °C 6,8 °C 11,3 km/h (2 Bft)
06.12.2018 11:36 7,7 °C 92 % 1020,9 hPa 0,0 mm 3,5 km/h (1 Bft) W-SW 251 ° 0 min 0,000 mm 0,7 UV-I 100 W/m² 6,5 °C 7,7 °C 6,4 km/h (2 Bft)
06.12.2018 11:37 7,8 °C 92 % 1021,0 hPa 0,0 mm 5,6 km/h (1 Bft) W 261 ° 0 min 0,000 mm 0,8 UV-I 107 W/m² 6,6 °C 7,1 °C 11,3 km/h (2 Bft)
06.12.2018 11:38 7,8 °C 92 % 1021,0 hPa 0,0 mm 5,7 km/h (1 Bft) W 269 ° 0 min 0,000 mm 0,8 UV-I 109 W/m² 6,6 °C 7,0 °C 11,3 km/h (2 Bft)
06.12.2018 11:39 7,8 °C 92 % 1021,0 hPa 0,0 mm 8,9 km/h (2 Bft) W-SW 252 ° 0 min 0,000 mm 0,8 UV-I 109 W/m² 6,6 °C 6,2 °C 14,5 km/h (3 Bft)
06.12.2018 11:40 7,8 °C 92 % 1021,0 hPa 0,0 mm 8,9 km/h (2 Bft) W-NW 288 ° 0 min 0,000 mm 0,8 UV-I 100 W/m² 6,6 °C 6,2 °C 12,9 km/h (3 Bft)
06.12.2018 11:41 7,9 °C 92 % 1021,0 hPa 0,0 mm 10,1 km/h (2 Bft) SW 232 ° 0 min 0,000 mm 0,8 UV-I 91 W/m² 6,7 °C 6,1 °C 14,5 km/h (3 Bft)
06.12.2018 11:42 7,9 °C 92 % 1021,0 hPa 0,0 mm 7,0 km/h (2 Bft) W-SW 242 ° 0 min 0,000 mm 0,8 UV-I 90 W/m² 6,7 °C 6,8 °C 11,3 km/h (2 Bft)
06.12.2018 11:43 7,9 °C 92 % 1021,0 hPa 0,0 mm 8,5 km/h (2 Bft) SW 225 ° 0 min 0,000 mm 0,8 UV-I 86 W/m² 6,7 °C 6,4 °C 11,3 km/h (2 Bft)
06.12.2018 11:44 8,0 °C 91 % 1021,1 hPa 0,0 mm 6,3 km/h (2 Bft) W 275 ° 0 min 0,000 mm 0,8 UV-I 91 W/m² 6,6 °C 7,1 °C 12,9 km/h (3 Bft)
06.12.2018 11:45 7,9 °C 91 % 1021,0 hPa 0,0 mm 3,8 km/h (1 Bft) W 276 ° 0 min 0,000 mm 0,9 UV-I 97 W/m² 6,5 °C 7,9 °C 6,4 km/h (2 Bft)
06.12.2018 11:46 8,0 °C 91 % 1021,0 hPa 0,0 mm 5,3 km/h (1 Bft) W-SW 255 ° 0 min 0,000 mm 0,9 UV-I 86 W/m² 6,6 °C 7,4 °C 9,7 km/h (2 Bft)
06.12.2018 11:47 8,0 °C 91 % 1021,1 hPa 0,0 mm 5,9 km/h (2 Bft) W-SW 248 ° 0 min 0,000 mm 0,9 UV-I 88 W/m² 6,6 °C 7,2 °C 9,7 km/h (2 Bft)
06.12.2018 11:48 8,0 °C 91 % 1021,1 hPa 0,0 mm 11,1 km/h (2 Bft) W 263 ° 0 min 0,000 mm 1,0 UV-I 105 W/m² 6,6 °C 6,0 °C 17,7 km/h (3 Bft)
06.12.2018 11:49 7,9 °C 91 % 1021,1 hPa 0,0 mm 11,7 km/h (2 Bft) W 259 ° 0 min 0,000 mm 1,0 UV-I 125 W/m² 6,5 °C 5,8 °C 16,1 km/h (3 Bft)
06.12.2018 11:50 8,0 °C 90 % 1021,1 hPa 0,0 mm 8,4 km/h (2 Bft) W-SW 254 ° 0 min 0,000 mm 1,0 UV-I 125 W/m² 6,5 °C 6,6 °C 11,3 km/h (2 Bft)
06.12.2018 11:51 8,0 °C 90 % 1021,1 hPa 0,0 mm 5,8 km/h (2 Bft) W-SW 257 ° 0 min 0,000 mm 1,0 UV-I 111 W/m² 6,5 °C 7,2 °C 12,9 km/h (3 Bft)
06.12.2018 11:52 8,0 °C 90 % 1021,1 hPa 0,0 mm 7,6 km/h (2 Bft) W-SW 244 ° 0 min 0,000 mm 1,0 UV-I 98 W/m² 6,5 °C 6,8 °C 11,3 km/h (2 Bft)
06.12.2018 11:53 8,1 °C 90 % 1021,1 hPa 0,0 mm 5,2 km/h (1 Bft) SW 227 ° 0 min 0,000 mm 0,9 UV-I 79 W/m² 6,6 °C 7,5 °C 11,3 km/h (2 Bft)
06.12.2018 11:54 8,1 °C 90 % 1021,2 hPa 0,0 mm 3,6 km/h (1 Bft) W-SW 244 ° 0 min 0,000 mm 0,9 UV-I 65 W/m² 6,6 °C 8,1 °C 4,8 km/h (1 Bft)
06.12.2018 11:55 8,0 °C 90 % 1021,2 hPa 0,0 mm 4,1 km/h (1 Bft) W-SW 242 ° 0 min 0,000 mm 0,9 UV-I 60 W/m² 6,5 °C 8,0 °C 6,4 km/h (2 Bft)
06.12.2018 11:56 8,0 °C 90 % 1021,2 hPa 0,0 mm 4,4 km/h (1 Bft) W 259 ° 0 min 0,000 mm 0,0 UV-I 54 W/m² 6,5 °C 8,0 °C 11,3 km/h (2 Bft)
06.12.2018 11:57 8,0 °C 90 % 1021,2 hPa 0,0 mm 9,1 km/h (2 Bft) W-SW 258 ° 0 min 0,000 mm 0,0 UV-I 53 W/m² 6,5 °C 6,4 °C 11,3 km/h (2 Bft)
06.12.2018 11:58 7,9 °C 90 % 1021,2 hPa 0,0 mm 7,2 km/h (2 Bft) SW 235 ° 0 min 0,000 mm 0,0 UV-I 49 W/m² 6,4 °C 6,7 °C 14,5 km/h (3 Bft)
06.12.2018 11:59 7,9 °C 90 % 1021,2 hPa 0,0 mm 7,2 km/h (2 Bft) W-SW 252 ° 0 min 0,000 mm 0,0 UV-I 49 W/m² 6,4 °C 6,7 °C 11,3 km/h (2 Bft)
06.12.2018 12:00 7,9 °C 90 % 1021,2 hPa 0,0 mm 2,7 km/h (1 Bft) W-SW 247 ° 0 min 0,026 mm 0,0 UV-I 54 W/m² 6,4 °C 7,9 °C 4,8 km/h (1 Bft)
06.12.2018 12:01 7,9 °C 90 % 1021,2 hPa 0,0 mm 4,8 km/h (1 Bft) S-SW 213 ° 0 min 0,000 mm 0,0 UV-I 53 W/m² 6,4 °C 7,4 °C 6,4 km/h (2 Bft)
06.12.2018 12:02 7,8 °C 90 % 1021,3 hPa 0,0 mm 8,4 km/h (2 Bft) W 281 ° 0 min 0,000 mm 0,0 UV-I 53 W/m² 6,3 °C 6,3 °C 12,9 km/h (3 Bft)
06.12.2018 12:03 7,8 °C 90 % 1021,3 hPa 0,0 mm 5,2 km/h (1 Bft) W 275 ° 0 min 0,000 mm 0,9 UV-I 58 W/m² 6,3 °C 7,2 °C 11,3 km/h (2 Bft)
06.12.2018 12:04 7,9 °C 90 % 1021,2 hPa 0,0 mm 4,9 km/h (1 Bft) S-SW 194 ° 0 min 0,000 mm 0,9 UV-I 70 W/m² 6,4 °C 7,4 °C 6,4 km/h (2 Bft)
06.12.2018 12:05 7,8 °C 90 % 1021,3 hPa 0,0 mm 3,9 km/h (1 Bft) W 275 ° 0 min 0,000 mm 0,9 UV-I 88 W/m² 6,3 °C 7,8 °C 9,7 km/h (2 Bft)
06.12.2018 12:06 7,9 °C 90 % 1021,3 hPa 0,0 mm 5,6 km/h (1 Bft) W 267 ° 0 min 0,000 mm 0,9 UV-I 97 W/m² 6,4 °C 7,2 °C 9,7 km/h (2 Bft)
06.12.2018 12:07 7,9 °C 90 % 1021,3 hPa 0,0 mm 1,8 km/h (1 Bft) W-SW 240 ° 0 min 0,000 mm 0,9 UV-I 113 W/m² 6,4 °C 7,9 °C 4,8 km/h (1 Bft)
06.12.2018 12:08 7,9 °C 90 % 1021,3 hPa 0,0 mm 5,7 km/h (1 Bft) W 273 ° 0 min 0,000 mm 0,9 UV-I 116 W/m² 6,4 °C 7,1 °C 6,4 km/h (2 Bft)
06.12.2018 12:09 8,0 °C 91 % 1021,2 hPa 0,0 mm 3,1 km/h (1 Bft) W-SW 254 ° 0 min 0,000 mm 0,9 UV-I 107 W/m² 6,6 °C 8,0 °C 9,7 km/h (2 Bft)
06.12.2018 12:10 8,0 °C 91 % 1021,2 hPa 0,0 mm 2,9 km/h (1 Bft) W-SW 254 ° 0 min 0,000 mm 0,8 UV-I 111 W/m² 6,6 °C 8,0 °C 4,8 km/h (1 Bft)
06.12.2018 12:11 8,1 °C 91 % 1021,2 hPa 0,0 mm 6,4 km/h (2 Bft) W 267 ° 0 min 0,000 mm 0,9 UV-I 109 W/m² 6,7 °C 7,2 °C 9,7 km/h (2 Bft)
06.12.2018 12:12 8,1 °C 91 % 1021,3 hPa 0,0 mm 7,6 km/h (2 Bft) W 270 ° 0 min 0,000 mm 0,8 UV-I 113 W/m² 6,7 °C 6,9 °C 11,3 km/h (2 Bft)
06.12.2018 12:13 8,2 °C 91 % 1021,2 hPa 0,0 mm 5,0 km/h (1 Bft) W-SW 250 ° 0 min 0,000 mm 0,8 UV-I 113 W/m² 6,8 °C 7,7 °C 6,4 km/h (2 Bft)
06.12.2018 12:14 8,2 °C 91 % 1021,3 hPa 0,0 mm 7,6 km/h (2 Bft) W-NW 283 ° 0 min 0,000 mm 0,9 UV-I 114 W/m² 6,8 °C 7,0 °C 11,3 km/h (2 Bft)
06.12.2018 12:15 8,3 °C 91 % 1021,2 hPa 0,0 mm 3,8 km/h (1 Bft) W 269 ° 0 min 0,000 mm 0,8 UV-I 109 W/m² 6,9 °C 8,3 °C 11,3 km/h (2 Bft)
06.12.2018 12:16 8,3 °C 91 % 1021,2 hPa 0,0 mm 7,2 km/h (2 Bft) W-NW 292 ° 0 min 0,000 mm 0,8 UV-I 98 W/m² 6,9 °C 7,2 °C 11,3 km/h (2 Bft)
06.12.2018 12:17 8,3 °C 90 % 1021,2 hPa 0,0 mm 8,0 km/h (2 Bft) W-NW 293 ° 0 min 0,000 mm 0,9 UV-I 104 W/m² 6,8 °C 7,0 °C 12,9 km/h (3 Bft)
06.12.2018 12:18 8,3 °C 90 % 1021,2 hPa 0,0 mm 5,4 km/h (1 Bft) W 271 ° 0 min 0,000 mm 0,9 UV-I 100 W/m² 6,8 °C 7,7 °C 9,7 km/h (2 Bft)
06.12.2018 12:19 8,4 °C 90 % 1021,1 hPa 0,0 mm 6,2 km/h (2 Bft) W 260 ° 0 min 0,000 mm 0,9 UV-I 91 W/m² 6,9 °C 7,6 °C 9,7 km/h (2 Bft)
06.12.2018 12:20 8,4 °C 90 % 1021,1 hPa 0,0 mm 9,4 km/h (2 Bft) W 273 ° 0 min 0,000 mm 0,9 UV-I 81 W/m² 6,9 °C 6,8 °C 16,1 km/h (3 Bft)
06.12.2018 12:21 8,4 °C 90 % 1021,2 hPa 0,0 mm 3,9 km/h (1 Bft) W 273 ° 0 min 0,000 mm 0,9 UV-I 70 W/m² 6,9 °C 8,4 °C 6,4 km/h (2 Bft)
06.12.2018 12:22 8,4 °C 89 % 1021,1 hPa 0,0 mm 5,9 km/h (2 Bft) W-SW 257 ° 0 min 0,000 mm 0,9 UV-I 84 W/m² 6,7 °C 7,7 °C 11,3 km/h (2 Bft)
06.12.2018 12:23 8,4 °C 89 % 1021,1 hPa 0,0 mm 3,3 km/h (1 Bft) W-SW 251 ° 0 min 0,000 mm 0,9 UV-I 93 W/m² 6,7 °C 8,4 °C 4,8 km/h (1 Bft)
06.12.2018 12:24 8,4 °C 89 % 1021,2 hPa 0,0 mm 10,1 km/h (2 Bft) S-SW 204 ° 0 min 0,000 mm 0,9 UV-I 83 W/m² 6,7 °C 6,7 °C 14,5 km/h (3 Bft)
06.12.2018 12:25 8,4 °C 89 % 1021,1 hPa 0,0 mm 7,5 km/h (2 Bft) SW 225 ° 0 min 0,000 mm 0,9 UV-I 63 W/m² 6,7 °C 7,2 °C 11,3 km/h (2 Bft)
06.12.2018 12:26 8,4 °C 89 % 1021,1 hPa 0,0 mm 9,3 km/h (2 Bft) W-SW 246 ° 0 min 0,000 mm 0,9 UV-I 60 W/m² 6,7 °C 6,9 °C 14,5 km/h (3 Bft)
06.12.2018 12:27 8,4 °C 89 % 1021,1 hPa 0,0 mm 10,4 km/h (2 Bft) W-SW 253 ° 0 min 0,000 mm 0,9 UV-I 60 W/m² 6,7 °C 6,6 °C 16,1 km/h (3 Bft)
06.12.2018 12:28 8,4 °C 89 % 1021,0 hPa 0,0 mm 8,7 km/h (2 Bft) SW 217 ° 0 min 0,000 mm 0,9 UV-I 63 W/m² 6,7 °C 7,0 °C 14,5 km/h (3 Bft)
06.12.2018 12:29 8,4 °C 89 % 1021,1 hPa 0,0 mm 3,3 km/h (1 Bft) W-SW 258 ° 0 min 0,000 mm 0,9 UV-I 81 W/m² 6,7 °C 8,4 °C 9,7 km/h (2 Bft)
06.12.2018 12:30 8,5 °C 89 % 1021,1 hPa 0,0 mm 2,7 km/h (1 Bft) W 275 ° 0 min 0,000 mm 0,9 UV-I 111 W/m² 6,8 °C 8,5 °C 6,4 km/h (2 Bft)
06.12.2018 12:31 8,6 °C 89 % 1021,1 hPa 0,0 mm 9,8 km/h (2 Bft) SW 225 ° 0 min 0,000 mm 0,9 UV-I 118 W/m² 6,9 °C 7,0 °C 12,9 km/h (3 Bft)
06.12.2018 12:32 8,7 °C 89 % 1021,0 hPa 0,0 mm 13,9 km/h (3 Bft) W 264 ° 0 min 0,000 mm 0,9 UV-I 118 W/m² 7,0 °C 6,5 °C 20,9 km/h (4 Bft)
06.12.2018 12:33 8,7 °C 88 % 1021,1 hPa 0,0 mm 7,2 km/h (2 Bft) W 259 ° 0 min 0,000 mm 0,8 UV-I 104 W/m² 6,8 °C 7,7 °C 14,5 km/h (3 Bft)
06.12.2018 12:34 8,8 °C 88 % 1021,1 hPa 0,0 mm 8,4 km/h (2 Bft) W 268 ° 0 min 0,000 mm 0,8 UV-I 93 W/m² 6,9 °C 7,5 °C 12,9 km/h (3 Bft)
06.12.2018 12:35 8,8 °C 88 % 1021,1 hPa 0,0 mm 8,0 km/h (2 Bft) W 278 ° 0 min 0,000 mm 0,7 UV-I 70 W/m² 6,9 °C 7,6 °C 11,3 km/h (2 Bft)
06.12.2018 12:36 8,9 °C 88 % 1021,1 hPa 0,0 mm 8,7 km/h (2 Bft) W 259 ° 0 min 0,000 mm 0,0 UV-I 53 W/m² 7,0 °C 7,6 °C 14,5 km/h (3 Bft)
06.12.2018 12:37 8,9 °C 88 % 1021,1 hPa 0,0 mm 7,1 km/h (2 Bft) W 261 ° 0 min 0,000 mm 0,0 UV-I 51 W/m² 7,0 °C 7,9 °C 11,3 km/h (2 Bft)
06.12.2018 12:38 8,8 °C 88 % 1021,1 hPa 0,0 mm 7,4 km/h (2 Bft) W 261 ° 0 min 0,000 mm 0,7 UV-I 62 W/m² 6,9 °C 7,7 °C 14,5 km/h (3 Bft)
06.12.2018 12:39 8,8 °C 88 % 1021,1 hPa 0,0 mm 11,4 km/h (2 Bft) W-SW 254 ° 0 min 0,000 mm 0,8 UV-I 63 W/m² 6,9 °C 7,0 °C 16,1 km/h (3 Bft)
06.12.2018 12:40 8,7 °C 88 % 1021,1 hPa 0,0 mm 13,7 km/h (3 Bft) W-NW 302 ° 0 min 0,000 mm 0,7 UV-I 56 W/m² 6,8 °C 6,5 °C 19,3 km/h (3 Bft)
06.12.2018 12:41 8,7 °C 87 % 1021,0 hPa 0,0 mm 12,9 km/h (3 Bft) W 259 ° 0 min 0,000 mm 0,0 UV-I 49 W/m² 6,7 °C 6,6 °C 20,9 km/h (4 Bft)
06.12.2018 12:42 8,7 °C 87 % 1021,0 hPa 0,0 mm 6,8 km/h (2 Bft) W 271 ° 0 min 0,000 mm 0,0 UV-I 49 W/m² 6,7 °C 7,8 °C 11,3 km/h (2 Bft)
06.12.2018 12:43 8,7 °C 87 % 1021,1 hPa 0,0 mm 9,7 km/h (2 Bft) W-SW 246 ° 0 min 0,000 mm 0,0 UV-I 54 W/m² 6,7 °C 7,1 °C 14,5 km/h (3 Bft)
06.12.2018 12:44 8,6 °C 87 % 1021,2 hPa 0,0 mm 8,7 km/h (2 Bft) W-SW 250 ° 0 min 0,000 mm 0,8 UV-I 63 W/m² 6,6 °C 7,2 °C 12,9 km/h (3 Bft)
06.12.2018 12:45 8,6 °C 87 % 1021,1 hPa 0,0 mm 13,0 km/h (3 Bft) W 264 ° 0 min 0,000 mm 0,8 UV-I 77 W/m² 6,6 °C 6,5 °C 16,1 km/h (3 Bft)
06.12.2018 12:46 8,5 °C 87 % 1021,2 hPa 0,0 mm 9,0 km/h (2 Bft) W 263 ° 0 min 0,000 mm 0,8 UV-I 105 W/m² 6,5 °C 7,0 °C 12,9 km/h (3 Bft)
06.12.2018 12:47 8,5 °C 88 % 1021,2 hPa 0,0 mm 8,2 km/h (2 Bft) NW 307 ° 0 min 0,000 mm 0,9 UV-I 118 W/m² 6,6 °C 7,2 °C 12,9 km/h (3 Bft)
06.12.2018 12:48 8,5 °C 87 % 1021,2 hPa 0,0 mm 7,2 km/h (2 Bft) W 267 ° 0 min 0,000 mm 0,8 UV-I 102 W/m² 6,5 °C 7,4 °C 11,3 km/h (2 Bft)
06.12.2018 12:49 8,6 °C 88 % 1021,2 hPa 0,0 mm 10,9 km/h (2 Bft) W 273 ° 0 min 0,000 mm 0,8 UV-I 102 W/m² 6,7 °C 6,8 °C 14,5 km/h (3 Bft)
06.12.2018 12:50 8,6 °C 88 % 1021,2 hPa 0,0 mm 5,6 km/h (1 Bft) W-SW 245 ° 0 min 0,000 mm 0,8 UV-I 105 W/m² 6,7 °C 8,0 °C 9,7 km/h (2 Bft)
06.12.2018 12:51 8,6 °C 88 % 1021,2 hPa 0,0 mm 9,7 km/h (2 Bft) W 271 ° 0 min 0,000 mm 0,8 UV-I 109 W/m² 6,7 °C 7,0 °C 14,5 km/h (3 Bft)
06.12.2018 12:52 8,7 °C 88 % 1021,1 hPa 0,0 mm 7,4 km/h (2 Bft) W-SW 246 ° 0 min 0,000 mm 0,8 UV-I 107 W/m² 6,8 °C 7,6 °C 12,9 km/h (3 Bft)
06.12.2018 12:53 8,8 °C 88 % 1021,1 hPa 0,0 mm 7,2 km/h (2 Bft) W-SW 253 ° 0 min 0,000 mm 0,8 UV-I 125 W/m² 6,9 °C 7,8 °C 11,3 km/h (2 Bft)
06.12.2018 12:54 8,8 °C 88 % 1021,1 hPa 0,0 mm 6,0 km/h (2 Bft) W 273 ° 0 min 0,000 mm 0,8 UV-I 128 W/m² 6,9 °C 8,1 °C 11,3 km/h (2 Bft)
06.12.2018 12:55 8,9 °C 88 % 1021,1 hPa 0,0 mm 10,6 km/h (2 Bft) W-SW 247 ° 0 min 0,000 mm 0,8 UV-I 113 W/m² 7,0 °C 7,2 °C 12,9 km/h (3 Bft)
06.12.2018 12:56 8,9 °C 87 % 1021,0 hPa 0,0 mm 10,1 km/h (2 Bft) W 263 ° 0 min 0,000 mm 0,9 UV-I 98 W/m² 6,9 °C 7,3 °C 14,5 km/h (3 Bft)
06.12.2018 12:57 8,9 °C 88 % 1021,0 hPa 0,0 mm 9,7 km/h (2 Bft) W-SW 257 ° 0 min 0,000 mm 0,9 UV-I 65 W/m² 7,0 °C 7,4 °C 16,1 km/h (3 Bft)
06.12.2018 12:58 8,9 °C 87 % 1020,9 hPa 0,0 mm 6,8 km/h (2 Bft) W-SW 246 ° 0 min 0,000 mm 0,0 UV-I 51 W/m² 6,9 °C 8,0 °C 12,9 km/h (3 Bft)
06.12.2018 12:59 9,0 °C 87 % 1020,9 hPa 0,0 mm 8,3 km/h (2 Bft) W 267 ° 0 min 0,000 mm 0,0 UV-I 40 W/m² 7,0 °C 7,8 °C 12,9 km/h (3 Bft)
06.12.2018 13:00 9,0 °C 87 % 1020,9 hPa 0,0 mm 5,1 km/h (1 Bft) W-SW 253 ° 0 min 0,000 mm 0,0 UV-I 35 W/m² 7,0 °C 8,6 °C 6,4 km/h (2 Bft)
06.12.2018 13:01 9,0 °C 87 % 1020,9 hPa 0,0 mm 8,4 km/h (2 Bft) W 261 ° 0 min 0,050 mm 0,0 UV-I 28 W/m² 7,0 °C 7,7 °C 16,1 km/h (3 Bft)
06.12.2018 13:02 8,9 °C 86 % 1020,8 hPa 0,0 mm 9,9 km/h (2 Bft) W-NW 292 ° 0 min 0,000 mm 0,0 UV-I 26 W/m² 6,7 °C 7,3 °C 16,1 km/h (3 Bft)
06.12.2018 13:03 8,9 °C 86 % 1020,9 hPa 0,0 mm 9,5 km/h (2 Bft) W 259 ° 0 min 0,000 mm 0,0 UV-I 26 W/m² 6,7 °C 7,4 °C 12,9 km/h (3 Bft)
06.12.2018 13:04 8,9 °C 86 % 1020,9 hPa 0,0 mm 13,3 km/h (3 Bft) W 262 ° 0 min 0,000 mm 0,0 UV-I 30 W/m² 6,7 °C 6,8 °C 17,7 km/h (3 Bft)
06.12.2018 13:05 8,9 °C 86 % 1020,9 hPa 0,0 mm 8,5 km/h (2 Bft) W 263 ° 0 min 0,000 mm 0,0 UV-I 30 W/m² 6,7 °C 7,6 °C 12,9 km/h (3 Bft)
06.12.2018 13:06 8,9 °C 86 % 1020,9 hPa 0,0 mm 8,4 km/h (2 Bft) W 261 ° 0 min 0,000 mm 0,0 UV-I 26 W/m² 6,7 °C 7,6 °C 16,1 km/h (3 Bft)
06.12.2018 13:07 8,8 °C 86 % 1020,9 hPa 0,0 mm 14,1 km/h (3 Bft) W 281 ° 0 min 0,000 mm 0,0 UV-I 26 W/m² 6,6 °C 6,6 °C 17,7 km/h (3 Bft)
06.12.2018 13:08 8,9 °C 86 % 1020,9 hPa 0,0 mm 6,3 km/h (2 Bft) W 259 ° 0 min 0,000 mm 0,0 UV-I 26 W/m² 6,7 °C 8,1 °C 9,7 km/h (2 Bft)
06.12.2018 13:09 8,8 °C 86 % 1020,9 hPa 0,0 mm 4,5 km/h (1 Bft) W-NW 285 ° 0 min 0,000 mm 0,0 UV-I 28 W/m² 6,6 °C 8,8 °C 6,4 km/h (2 Bft)
06.12.2018 13:10 8,9 °C 86 % 1021,0 hPa 0,0 mm 6,0 km/h (2 Bft) W-NW 295 ° 0 min 0,000 mm 0,0 UV-I 30 W/m² 6,7 °C 8,2 °C 12,9 km/h (3 Bft)
06.12.2018 13:11 8,8 °C 86 % 1021,0 hPa 0,0 mm 7,8 km/h (2 Bft) W-NW 298 ° 0 min 0,000 mm 0,0 UV-I 39 W/m² 6,6 °C 7,6 °C 11,3 km/h (2 Bft)
06.12.2018 13:12 8,8 °C 86 % 1021,0 hPa 0,0 mm 4,8 km/h (1 Bft) W-NW 294 ° 0 min 0,000 mm 0,0 UV-I 49 W/m² 6,6 °C 8,5 °C 8,0 km/h (2 Bft)
06.12.2018 13:13 8,8 °C 86 % 1021,0 hPa 0,0 mm 3,9 km/h (1 Bft) W-NW 288 ° 0 min 0,000 mm 0,0 UV-I 53 W/m² 6,6 °C 8,8 °C 6,4 km/h (2 Bft)
06.12.2018 13:14 8,8 °C 86 % 1021,0 hPa 0,0 mm 2,7 km/h (1 Bft) W 269 ° 0 min 0,000 mm 0,0 UV-I 44 W/m² 6,6 °C 8,8 °C 4,8 km/h (1 Bft)
06.12.2018 13:15 8,8 °C 86 % 1021,0 hPa 0,0 mm 3,5 km/h (1 Bft) W 269 ° 0 min 0,000 mm 0,0 UV-I 42 W/m² 6,6 °C 8,8 °C 4,8 km/h (1 Bft)
06.12.2018 13:16 8,8 °C 86 % 1021,0 hPa 0,0 mm 2,5 km/h (1 Bft) W 264 ° 0 min 0,000 mm 0,0 UV-I 39 W/m² 6,6 °C 8,8 °C 4,8 km/h (1 Bft)
06.12.2018 13:17 8,9 °C 86 % 1021,0 hPa 0,0 mm 5,3 km/h (1 Bft) W-NW 291 ° 0 min 0,000 mm 0,0 UV-I 33 W/m² 6,7 °C 8,4 °C 9,7 km/h (2 Bft)
06.12.2018 13:18 8,9 °C 86 % 1021,0 hPa 0,0 mm 4,6 km/h (1 Bft) W-NW 290 ° 0 min 0,000 mm 0,0 UV-I 30 W/m² 6,7 °C 8,6 °C 8,0 km/h (2 Bft)
06.12.2018 13:19 8,9 °C 86 % 1020,9 hPa 0,0 mm 6,2 km/h (2 Bft) W 259 ° 0 min 0,000 mm 0,0 UV-I 28 W/m² 6,7 °C 8,2 °C 9,7 km/h (2 Bft)
06.12.2018 13:20 8,9 °C 86 % 1021,0 hPa 0,0 mm 6,1 km/h (2 Bft) W 273 ° 0 min 0,000 mm 0,0 UV-I 28 W/m² 6,7 °C 8,2 °C 11,3 km/h (2 Bft)
06.12.2018 13:21 8,9 °C 85 % 1020,9 hPa 0,0 mm 7,6 km/h (2 Bft) W-NW 294 ° 0 min 0,000 mm 0,0 UV-I 28 W/m² 6,5 °C 7,8 °C 11,3 km/h (2 Bft)
06.12.2018 13:22 8,9 °C 85 % 1020,9 hPa 0,0 mm 5,3 km/h (1 Bft) W-NW 286 ° 0 min 0,000 mm 0,0 UV-I 28 W/m² 6,5 °C 8,4 °C 9,7 km/h (2 Bft)
06.12.2018 13:23 8,9 °C 85 % 1020,9 hPa 0,0 mm 4,0 km/h (1 Bft) W-NW 296 ° 0 min 0,000 mm 0,0 UV-I 28 W/m² 6,5 °C 8,9 °C 4,8 km/h (1 Bft)
06.12.2018 13:24 8,9 °C 85 % 1020,8 hPa 0,0 mm 3,8 km/h (1 Bft) W 264 ° 0 min 0,000 mm 0,0 UV-I 30 W/m² 6,5 °C 8,9 °C 4,8 km/h (1 Bft)
06.12.2018 13:25 8,9 °C 85 % 1020,8 hPa 0,0 mm 5,4 km/h (1 Bft) W-NW 290 ° 0 min 0,000 mm 0,0 UV-I 30 W/m² 6,5 °C 8,4 °C 9,7 km/h (2 Bft)
06.12.2018 13:26 8,9 °C 85 % 1020,8 hPa 0,0 mm 2,4 km/h (1 Bft) W-NW 286 ° 0 min 0,000 mm 0,0 UV-I 32 W/m² 6,5 °C 8,9 °C 6,4 km/h (2 Bft)
06.12.2018 13:27 8,8 °C 85 % 1020,8 hPa 0,0 mm 0,0 km/h (0 Bft) W-NW 286 ° 0 min 0,000 mm 0,0 UV-I 33 W/m² 6,4 °C 8,8 °C 0,0 km/h (0 Bft)
06.12.2018 13:28 8,8 °C 86 % 1020,7 hPa 0,0 mm 1,3 km/h (1 Bft) W-NW 286 ° 0 min 0,000 mm 0,0 UV-I 37 W/m² 6,6 °C 8,8 °C 3,2 km/h (1 Bft)
06.12.2018 13:29 8,8 °C 86 % 1020,7 hPa 0,0 mm 1,3 km/h (1 Bft) W-NW 286 ° 0 min 0,000 mm 0,0 UV-I 37 W/m² 6,6 °C 8,8 °C 3,2 km/h (1 Bft)
06.12.2018 13:30 8,8 °C 86 % 1020,8 hPa 0,0 mm 2,3 km/h (1 Bft) W-NW 286 ° 0 min 0,000 mm 0,0 UV-I 37 W/m² 6,6 °C 8,8 °C 3,2 km/h (1 Bft)
06.12.2018 13:31 8,8 °C 86 % 1020,8 hPa 0,0 mm 1,9 km/h (1 Bft) W-NW 284 ° 0 min 0,000 mm 0,0 UV-I 40 W/m² 6,6 °C 8,8 °C 4,8 km/h (1 Bft)
06.12.2018 13:32 8,8 °C 86 % 1020,7 hPa 0,0 mm 4,8 km/h (1 Bft) W 259 ° 0 min 0,000 mm 0,0 UV-I 49 W/m² 6,6 °C 8,5 °C 9,7 km/h (2 Bft)
06.12.2018 13:33 8,7 °C 86 % 1020,7 hPa 0,0 mm 10,9 km/h (2 Bft) W-NW 283 ° 0 min 0,000 mm 0,0 UV-I 49 W/m² 6,5 °C 6,9 °C 14,5 km/h (3 Bft)
06.12.2018 13:34 8,7 °C 85 % 1020,6 hPa 0,0 mm 8,3 km/h (2 Bft) W 263 ° 0 min 0,000 mm 0,0 UV-I 47 W/m² 6,3 °C 7,4 °C 11,3 km/h (2 Bft)
06.12.2018 13:35 8,8 °C 85 % 1020,6 hPa 0,0 mm 5,7 km/h (1 Bft) W 267 ° 0 min 0,000 mm 0,0 UV-I 53 W/m² 6,4 °C 8,2 °C 9,7 km/h (2 Bft)
06.12.2018 13:36 8,8 °C 85 % 1020,6 hPa 0,0 mm 3,6 km/h (1 Bft) W-SW 250 ° 0 min 0,000 mm 0,0 UV-I 54 W/m² 6,4 °C 8,8 °C 6,4 km/h (2 Bft)
06.12.2018 13:37 8,8 °C 85 % 1020,5 hPa 0,0 mm 1,5 km/h (1 Bft) W-SW 250 ° 0 min 0,000 mm 0,8 UV-I 65 W/m² 6,4 °C 8,8 °C 3,2 km/h (1 Bft)
06.12.2018 13:38 8,8 °C 85 % 1020,5 hPa 0,0 mm 3,4 km/h (1 Bft) W 265 ° 0 min 0,000 mm 0,8 UV-I 84 W/m² 6,4 °C 8,8 °C 6,4 km/h (2 Bft)
06.12.2018 13:39 8,8 °C 85 % 1020,5 hPa 0,0 mm 3,3 km/h (1 Bft) W 265 ° 0 min 0,000 mm 0,8 UV-I 123 W/m² 6,4 °C 8,8 °C 4,8 km/h (1 Bft)
06.12.2018 13:40 8,8 °C 85 % 1020,6 hPa 0,0 mm 3,6 km/h (1 Bft) W-SW 250 ° 0 min 0,000 mm 0,8 UV-I 156 W/m² 6,4 °C 8,8 °C 6,4 km/h (2 Bft)
06.12.2018 13:41 8,8 °C 85 % 1020,5 hPa 0,0 mm 0,3 km/h (0 Bft) W-SW 250 ° 0 min 0,000 mm 0,8 UV-I 162 W/m² 6,4 °C 8,8 °C 1,6 km/h (1 Bft)
06.12.2018 13:42 8,9 °C 85 % 1020,5 hPa 0,0 mm 1,9 km/h (1 Bft) W-SW 250 ° 0 min 0,000 mm 0,8 UV-I 185 W/m² 6,5 °C 8,9 °C 4,8 km/h (1 Bft)
06.12.2018 13:43 8,9 °C 85 % 1020,5 hPa 0,0 mm 3,4 km/h (1 Bft) W-SW 250 ° 0 min 0,000 mm 0,9 UV-I 192 W/m² 6,5 °C 8,9 °C 4,8 km/h (1 Bft)
06.12.2018 13:44 8,9 °C 85 % 1020,5 hPa 0,0 mm 2,5 km/h (1 Bft) W-SW 252 ° 0 min 0,000 mm 0,9 UV-I 216 W/m² 6,5 °C 8,9 °C 4,8 km/h (1 Bft)
06.12.2018 13:45 8,9 °C 85 % 1020,5 hPa 0,0 mm 1,4 km/h (1 Bft) W-SW 252 ° 0 min 0,000 mm 0,8 UV-I 214 W/m² 6,5 °C 8,9 °C 3,2 km/h (1 Bft)
06.12.2018 13:46 8,8 °C 85 % 1020,6 hPa 0,0 mm 1,9 km/h (1 Bft) W-SW 252 ° 0 min 0,000 mm 0,9 UV-I 225 W/m² 6,4 °C 8,8 °C 4,8 km/h (1 Bft)
06.12.2018 13:47 8,9 °C 85 % 1020,6 hPa 0,0 mm 2,0 km/h (1 Bft) W-SW 252 ° 0 min 0,000 mm 0,9 UV-I 218 W/m² 6,5 °C 8,9 °C 4,8 km/h (1 Bft)
06.12.2018 13:48 8,9 °C 85 % 1020,6 hPa 0,0 mm 0,1 km/h (0 Bft) W-SW 252 ° 0 min 0,000 mm 0,8 UV-I 225 W/m² 6,5 °C 8,9 °C 1,6 km/h (1 Bft)
06.12.2018 13:49 8,9 °C 85 % 1020,6 hPa 0,0 mm 0,2 km/h (0 Bft) W-SW 252 ° 0 min 0,000 mm 0,9 UV-I 225 W/m² 6,5 °C 8,9 °C 1,6 km/h (1 Bft)
06.12.2018 13:50 8,9 °C 85 % 1020,6 hPa 0,0 mm 2,2 km/h (1 Bft) W 280 ° 0 min 0,000 mm 0,8 UV-I 223 W/m² 6,5 °C 8,9 °C 6,4 km/h (2 Bft)
06.12.2018 13:51 8,8 °C 86 % 1020,6 hPa 0,0 mm 1,1 km/h (1 Bft) W 280 ° 0 min 0,000 mm 0,8 UV-I 213 W/m² 6,6 °C 8,8 °C 3,2 km/h (1 Bft)
06.12.2018 13:52 8,8 °C 86 % 1020,6 hPa 0,0 mm 1,4 km/h (1 Bft) W 280 ° 0 min 0,000 mm 0,8 UV-I 216 W/m² 6,6 °C 8,8 °C 3,2 km/h (1 Bft)
06.12.2018 13:53 8,8 °C 86 % 1020,7 hPa 0,0 mm 1,3 km/h (1 Bft) W 280 ° 0 min 0,000 mm 0,8 UV-I 171 W/m² 6,6 °C 8,8 °C 3,2 km/h (1 Bft)
06.12.2018 13:54 8,7 °C 86 % 1020,7 hPa 0,0 mm 1,5 km/h (1 Bft) W-NW 286 ° 0 min 0,000 mm 0,7 UV-I 90 W/m² 6,5 °C 8,7 °C 4,8 km/h (1 Bft)
06.12.2018 13:55 8,7 °C 86 % 1020,7 hPa 0,0 mm 1,7 km/h (1 Bft) W-NW 286 ° 0 min 0,000 mm 0,0 UV-I 33 W/m² 6,5 °C 8,7 °C 4,8 km/h (1 Bft)
06.12.2018 13:56 8,7 °C 86 % 1020,7 hPa 0,0 mm 3,6 km/h (1 Bft) W-NW 302 ° 0 min 0,000 mm 0,0 UV-I 40 W/m² 6,5 °C 8,7 °C 9,7 km/h (2 Bft)
06.12.2018 13:57 8,7 °C 86 % 1020,7 hPa 0,0 mm 6,9 km/h (2 Bft) W 281 ° 0 min 0,000 mm 0,7 UV-I 84 W/m² 6,5 °C 7,7 °C 11,3 km/h (2 Bft)
06.12.2018 13:58 8,7 °C 86 % 1020,7 hPa 0,0 mm 6,6 km/h (2 Bft) W-NW 289 ° 0 min 0,000 mm 0,8 UV-I 102 W/m² 6,5 °C 7,8 °C 9,7 km/h (2 Bft)
06.12.2018 13:59 8,7 °C 85 % 1020,7 hPa 0,0 mm 5,3 km/h (1 Bft) W-NW 292 ° 0 min 0,000 mm 0,7 UV-I 74 W/m² 6,3 °C 8,2 °C 9,7 km/h (2 Bft)
06.12.2018 14:00 8,7 °C 85 % 1020,7 hPa 0,0 mm 5,1 km/h (1 Bft) W 268 ° 0 min 0,051 mm 0,7 UV-I 98 W/m² 6,3 °C 8,2 °C 9,7 km/h (2 Bft)
06.12.2018 14:01 8,7 °C 85 % 1020,7 hPa 0,0 mm 9,5 km/h (2 Bft) W 275 ° 0 min 0,000 mm 0,7 UV-I 54 W/m² 6,3 °C 7,2 °C 16,1 km/h (3 Bft)
06.12.2018 14:02 8,7 °C 85 % 1020,7 hPa 0,0 mm 5,2 km/h (1 Bft) W 279 ° 0 min 0,000 mm 0,0 UV-I 49 W/m² 6,3 °C 8,2 °C 9,7 km/h (2 Bft)
06.12.2018 14:03 8,7 °C 85 % 1020,7 hPa 0,0 mm 4,9 km/h (1 Bft) W 261 ° 0 min 0,000 mm 0,0 UV-I 42 W/m² 6,3 °C 8,3 °C 6,4 km/h (2 Bft)
06.12.2018 14:04 8,7 °C 85 % 1020,6 hPa 0,0 mm 4,2 km/h (1 Bft) W 266 ° 0 min 0,000 mm 0,0 UV-I 40 W/m² 6,3 °C 8,7 °C 9,7 km/h (2 Bft)
06.12.2018 14:05 8,7 °C 85 % 1020,7 hPa 0,0 mm 1,5 km/h (1 Bft) W 266 ° 0 min 0,000 mm 0,0 UV-I 42 W/m² 6,3 °C 8,7 °C 3,2 km/h (1 Bft)
06.12.2018 14:06 8,7 °C 85 % 1020,7 hPa 0,0 mm 5,0 km/h (1 Bft) W-SW 252 ° 0 min 0,000 mm 0,0 UV-I 47 W/m² 6,3 °C 8,3 °C 9,7 km/h (2 Bft)
06.12.2018 14:07 8,7 °C 85 % 1020,7 hPa 0,0 mm 5,7 km/h (1 Bft) W-SW 253 ° 0 min 0,000 mm 0,0 UV-I 44 W/m² 6,3 °C 8,1 °C 6,4 km/h (2 Bft)
06.12.2018 14:08 8,7 °C 85 % 1020,7 hPa 0,0 mm 6,9 km/h (2 Bft) W-SW 257 ° 0 min 0,000 mm 0,0 UV-I 37 W/m² 6,3 °C 7,7 °C 11,3 km/h (2 Bft)
06.12.2018 14:09 8,7 °C 85 % 1020,7 hPa 0,0 mm 4,7 km/h (1 Bft) W-NW 283 ° 0 min 0,000 mm 0,0 UV-I 39 W/m² 6,3 °C 8,4 °C 6,4 km/h (2 Bft)
06.12.2018 14:10 8,7 °C 85 % 1020,7 hPa 0,0 mm 6,6 km/h (2 Bft) W-SW 254 ° 0 min 0,000 mm 0,0 UV-I 39 W/m² 6,3 °C 7,8 °C 11,3 km/h (2 Bft)
06.12.2018 14:11 8,8 °C 85 % 1020,8 hPa 0,0 mm 5,4 km/h (1 Bft) W-SW 254 ° 0 min 0,000 mm 0,0 UV-I 37 W/m² 6,4 °C 8,3 °C 6,4 km/h (2 Bft)
06.12.2018 14:12 8,8 °C 85 % 1020,7 hPa 0,0 mm 1,8 km/h (1 Bft) W-SW 256 ° 0 min 0,000 mm 0,0 UV-I 35 W/m² 6,4 °C 8,8 °C 3,2 km/h (1 Bft)
06.12.2018 14:13 8,8 °C 85 % 1020,7 hPa 0,0 mm 1,3 km/h (1 Bft) W-SW 256 ° 0 min 0,000 mm 0,0 UV-I 30 W/m² 6,4 °C 8,8 °C 3,2 km/h (1 Bft)
06.12.2018 14:14 8,8 °C 85 % 1020,7 hPa 0,0 mm 0,0 km/h (0 Bft) W-SW 256 ° 0 min 0,000 mm 0,0 UV-I 30 W/m² 6,4 °C 8,8 °C 0,0 km/h (0 Bft)
06.12.2018 14:15 8,8 °C 86 % 1020,7 hPa 0,0 mm 1,9 km/h (1 Bft) W-SW 256 ° 0 min 0,000 mm 0,0 UV-I 32 W/m² 6,6 °C 8,8 °C 4,8 km/h (1 Bft)
06.12.2018 14:16 8,8 °C 86 % 1020,8 hPa 0,0 mm 4,1 km/h (1 Bft) W-SW 256 ° 0 min 0,000 mm 0,0 UV-I 40 W/m² 6,6 °C 8,8 °C 6,4 km/h (2 Bft)
06.12.2018 14:17 8,8 °C 85 % 1020,8 hPa 0,0 mm 1,4 km/h (1 Bft) W-SW 256 ° 0 min 0,000 mm 0,6 UV-I 56 W/m² 6,4 °C 8,8 °C 3,2 km/h (1 Bft)
06.12.2018 14:18 8,8 °C 85 % 1020,7 hPa 0,0 mm 2,0 km/h (1 Bft) W-SW 256 ° 0 min 0,000 mm 0,6 UV-I 69 W/m² 6,4 °C 8,8 °C 3,2 km/h (1 Bft)
06.12.2018 14:19 8,8 °C 85 % 1020,7 hPa 0,0 mm 1,6 km/h (1 Bft) W-SW 257 ° 0 min 0,000 mm 0,6 UV-I 69 W/m² 6,4 °C 8,8 °C 4,8 km/h (1 Bft)
06.12.2018 14:20 8,8 °C 85 % 1020,7 hPa 0,0 mm 3,7 km/h (1 Bft) W-SW 258 ° 0 min 0,000 mm 0,5 UV-I 69 W/m² 6,4 °C 8,8 °C 4,8 km/h (1 Bft)
06.12.2018 14:21 8,8 °C 86 % 1020,7 hPa 0,0 mm 2,7 km/h (1 Bft) W 259 ° 0 min 0,000 mm 0,5 UV-I 70 W/m² 6,6 °C 8,8 °C 4,8 km/h (1 Bft)
06.12.2018 14:22 8,8 °C 85 % 1020,7 hPa 0,0 mm 0,8 km/h (0 Bft) W 259 ° 0 min 0,000 mm 0,5 UV-I 77 W/m² 6,4 °C 8,8 °C 3,2 km/h (1 Bft)
06.12.2018 14:23 8,9 °C 86 % 1020,7 hPa 0,0 mm 0,0 km/h (0 Bft) W 259 ° 0 min 0,000 mm 0,5 UV-I 83 W/m² 6,7 °C 8,9 °C 0,0 km/h (0 Bft)
06.12.2018 14:24 8,9 °C 86 % 1020,7 hPa 0,0 mm 1,1 km/h (1 Bft) W 259 ° 0 min 0,000 mm 0,6 UV-I 79 W/m² 6,7 °C 8,9 °C 3,2 km/h (1 Bft)
06.12.2018 14:25 8,9 °C 86 % 1020,7 hPa 0,0 mm 3,0 km/h (1 Bft) W 259 ° 0 min 0,000 mm 0,5 UV-I 83 W/m² 6,7 °C 8,9 °C 4,8 km/h (1 Bft)
06.12.2018 14:26 9,0 °C 86 % 1020,7 hPa 0,0 mm 7,3 km/h (2 Bft) W 264 ° 0 min 0,000 mm 0,5 UV-I 83 W/m² 6,8 °C 8,0 °C 11,3 km/h (2 Bft)
06.12.2018 14:27 9,0 °C 86 % 1020,8 hPa 0,0 mm 5,2 km/h (1 Bft) W-NW 293 ° 0 min 0,000 mm 0,5 UV-I 76 W/m² 6,8 °C 8,6 °C 6,4 km/h (2 Bft)
06.12.2018 14:28 9,0 °C 85 % 1020,7 hPa 0,0 mm 6,8 km/h (2 Bft) W-NW 288 ° 0 min 0,000 mm 0,5 UV-I 67 W/m² 6,6 °C 8,1 °C 11,3 km/h (2 Bft)
06.12.2018 14:29 9,1 °C 85 % 1020,7 hPa 0,0 mm 5,7 km/h (1 Bft) W-NW 302 ° 0 min 0,000 mm 0,5 UV-I 63 W/m² 6,7 °C 8,5 °C 8,0 km/h (2 Bft)
06.12.2018 14:30 9,1 °C 85 % 1020,7 hPa 0,0 mm 4,7 km/h (1 Bft) W 261 ° 0 min 0,000 mm 0,5 UV-I 69 W/m² 6,7 °C 8,8 °C 6,4 km/h (2 Bft)
06.12.2018 14:31 9,1 °C 85 % 1020,7 hPa 0,0 mm 2,8 km/h (1 Bft) W-SW 258 ° 0 min 0,000 mm 0,5 UV-I 69 W/m² 6,7 °C 9,1 °C 6,4 km/h (2 Bft)
06.12.2018 14:32 9,1 °C 84 % 1020,7 hPa 0,0 mm 2,7 km/h (1 Bft) W 279 ° 0 min 0,000 mm 0,5 UV-I 70 W/m² 6,5 °C 9,1 °C 4,8 km/h (1 Bft)
06.12.2018 14:33 9,0 °C 85 % 1020,7 hPa 0,0 mm 7,4 km/h (2 Bft) W 269 ° 0 min 0,000 mm 0,5 UV-I 70 W/m² 6,6 °C 8,0 °C 9,7 km/h (2 Bft)
06.12.2018 14:34 9,0 °C 85 % 1020,7 hPa 0,0 mm 1,8 km/h (1 Bft) W 269 ° 0 min 0,000 mm 0,5 UV-I 70 W/m² 6,6 °C 9,0 °C 3,2 km/h (1 Bft)
06.12.2018 14:35 9,0 °C 85 % 1020,7 hPa 0,0 mm 1,7 km/h (1 Bft) W-NW 298 ° 0 min 0,000 mm 0,5 UV-I 74 W/m² 6,6 °C 9,0 °C 4,8 km/h (1 Bft)
06.12.2018 14:36 8,9 °C 85 % 1020,7 hPa 0,0 mm 3,0 km/h (1 Bft) W-NW 295 ° 0 min 0,000 mm 0,5 UV-I 79 W/m² 6,5 °C 8,9 °C 4,8 km/h (1 Bft)
06.12.2018 14:37 9,0 °C 85 % 1020,7 hPa 0,0 mm 4,7 km/h (1 Bft) W 261 ° 0 min 0,000 mm 0,5 UV-I 74 W/m² 6,6 °C 8,7 °C 6,4 km/h (2 Bft)
06.12.2018 14:38 8,9 °C 85 % 1020,7 hPa 0,0 mm 3,2 km/h (1 Bft) W 261 ° 0 min 0,000 mm 0,5 UV-I 70 W/m² 6,5 °C 8,9 °C 4,8 km/h (1 Bft)
06.12.2018 14:39 9,0 °C 85 % 1020,6 hPa 0,0 mm 6,2 km/h (2 Bft) W 261 ° 0 min 0,000 mm 0,5 UV-I 72 W/m² 6,6 °C 8,3 °C 11,3 km/h (2 Bft)
06.12.2018 14:40 9,0 °C 85 % 1020,6 hPa 0,0 mm 4,0 km/h (1 Bft) W-SW 257 ° 0 min 0,000 mm 0,5 UV-I 74 W/m² 6,6 °C 9,0 °C 8,0 km/h (2 Bft)
06.12.2018 14:41 9,1 °C 85 % 1020,6 hPa 0,0 mm 2,7 km/h (1 Bft) S 189 ° 0 min 0,000 mm 0,5 UV-I 72 W/m² 6,7 °C 9,1 °C 6,4 km/h (2 Bft)
06.12.2018 14:42 9,1 °C 84 % 1020,6 hPa 0,0 mm 3,9 km/h (1 Bft) W 262 ° 0 min 0,000 mm 0,5 UV-I 79 W/m² 6,5 °C 9,1 °C 8,0 km/h (2 Bft)
06.12.2018 14:43 9,1 °C 84 % 1020,6 hPa 0,0 mm 4,7 km/h (1 Bft) SW 217 ° 0 min 0,000 mm 0,5 UV-I 84 W/m² 6,5 °C 8,8 °C 8,0 km/h (2 Bft)
06.12.2018 14:44 9,1 °C 84 % 1020,6 hPa 0,0 mm 6,0 km/h (2 Bft) S 190 ° 0 min 0,000 mm 0,0 UV-I 86 W/m² 6,5 °C 8,4 °C 8,0 km/h (2 Bft)
06.12.2018 14:45 9,1 °C 84 % 1020,5 hPa 0,0 mm 6,3 km/h (2 Bft) S-SW 192 ° 0 min 0,000 mm 0,0 UV-I 81 W/m² 6,5 °C 8,4 °C 11,3 km/h (2 Bft)
06.12.2018 14:46 9,2 °C 84 % 1020,5 hPa 0,0 mm 2,6 km/h (1 Bft) S-SW 204 ° 0 min 0,000 mm 0,0 UV-I 76 W/m² 6,6 °C 9,2 °C 4,8 km/h (1 Bft)
06.12.2018 14:47 9,1 °C 83 % 1020,5 hPa 0,0 mm 6,3 km/h (2 Bft) W 272 ° 0 min 0,000 mm 0,0 UV-I 72 W/m² 6,4 °C 8,4 °C 9,7 km/h (2 Bft)
06.12.2018 14:48 9,2 °C 83 % 1020,6 hPa 0,0 mm 3,8 km/h (1 Bft) SW 234 ° 0 min 0,000 mm 0,0 UV-I 63 W/m² 6,5 °C 9,2 °C 6,4 km/h (2 Bft)
06.12.2018 14:49 9,2 °C 83 % 1020,6 hPa 0,0 mm 1,6 km/h (1 Bft) SW 232 ° 0 min 0,000 mm 0,0 UV-I 58 W/m² 6,5 °C 9,2 °C 4,8 km/h (1 Bft)
06.12.2018 14:50 9,2 °C 84 % 1020,6 hPa 0,0 mm 1,9 km/h (1 Bft) SW 232 ° 0 min 0,000 mm 0,0 UV-I 56 W/m² 6,6 °C 9,2 °C 4,8 km/h (1 Bft)
06.12.2018 14:51 9,2 °C 84 % 1020,6 hPa 0,0 mm 2,7 km/h (1 Bft) W-SW 238 ° 0 min 0,000 mm 0,0 UV-I 51 W/m² 6,6 °C 9,2 °C 6,4 km/h (2 Bft)
06.12.2018 14:52 9,1 °C 84 % 1020,7 hPa 0,0 mm 2,1 km/h (1 Bft) W-SW 238 ° 0 min 0,000 mm 0,0 UV-I 49 W/m² 6,5 °C 9,1 °C 4,8 km/h (1 Bft)
06.12.2018 14:53 9,1 °C 83 % 1020,7 hPa 0,0 mm 3,4 km/h (1 Bft) W 269 ° 0 min 0,000 mm 0,0 UV-I 49 W/m² 6,4 °C 9,1 °C 4,8 km/h (1 Bft)
06.12.2018 14:54 9,1 °C 83 % 1020,7 hPa 0,0 mm 2,6 km/h (1 Bft) W 269 ° 0 min 0,000 mm 0,0 UV-I 47 W/m² 6,4 °C 9,1 °C 9,7 km/h (2 Bft)
06.12.2018 14:55 9,1 °C 83 % 1020,7 hPa 0,0 mm 6,8 km/h (2 Bft) W-SW 240 ° 0 min 0,000 mm 0,0 UV-I 47 W/m² 6,4 °C 8,2 °C 12,9 km/h (3 Bft)
06.12.2018 14:56 9,1 °C 83 % 1020,7 hPa 0,0 mm 3,9 km/h (1 Bft) W-SW 240 ° 0 min 0,000 mm 0,0 UV-I 47 W/m² 6,4 °C 9,1 °C 8,0 km/h (2 Bft)
06.12.2018 14:57 9,1 °C 83 % 1020,7 hPa 0,0 mm 4,7 km/h (1 Bft) W-SW 253 ° 0 min 0,000 mm 0,0 UV-I 49 W/m² 6,4 °C 8,8 °C 9,7 km/h (2 Bft)
06.12.2018 14:58 9,1 °C 83 % 1020,7 hPa 0,0 mm 3,5 km/h (1 Bft) SW 221 ° 0 min 0,000 mm 0,0 UV-I 46 W/m² 6,4 °C 9,1 °C 6,4 km/h (2 Bft)
06.12.2018 14:59 9,1 °C 83 % 1020,8 hPa 0,0 mm 6,0 km/h (2 Bft) SW 234 ° 0 min 0,000 mm 0,0 UV-I 44 W/m² 6,4 °C 8,4 °C 9,7 km/h (2 Bft)
06.12.2018 15:00 9,1 °C 83 % 1020,8 hPa 0,0 mm 4,6 km/h (1 Bft) SW 230 ° 0 min 0,000 mm 0,0 UV-I 44 W/m² 6,4 °C 8,9 °C 8,0 km/h (2 Bft)
06.12.2018 15:01 9,1 °C 83 % 1020,8 hPa 0,0 mm 3,5 km/h (1 Bft) SW 214 ° 0 min 0,026 mm 0,0 UV-I 49 W/m² 6,4 °C 9,1 °C 8,0 km/h (2 Bft)
06.12.2018 15:02 9,1 °C 83 % 1020,9 hPa 0,0 mm 1,8 km/h (1 Bft) W-SW 247 ° 0 min 0,000 mm 0,0 UV-I 46 W/m² 6,4 °C 9,1 °C 3,2 km/h (1 Bft)
06.12.2018 15:03 9,1 °C 83 % 1020,8 hPa 0,0 mm 3,3 km/h (1 Bft) W-SW 254 ° 0 min 0,000 mm 0,0 UV-I 42 W/m² 6,4 °C 9,1 °C 4,8 km/h (1 Bft)
06.12.2018 15:04 9,1 °C 83 % 1021,0 hPa 0,0 mm 0,5 km/h (0 Bft) W-SW 254 ° 0 min 0,000 mm 0,0 UV-I 44 W/m² 6,4 °C 9,1 °C 1,6 km/h (1 Bft)
06.12.2018 15:05 9,1 °C 84 % 1020,9 hPa 0,0 mm 1,0 km/h (0 Bft) W-SW 254 ° 0 min 0,000 mm 0,0 UV-I 46 W/m² 6,5 °C 9,1 °C 3,2 km/h (1 Bft)
06.12.2018 15:06 9,0 °C 84 % 1020,9 hPa 0,0 mm 2,1 km/h (1 Bft) W-SW 254 ° 0 min 0,000 mm 0,0 UV-I 42 W/m² 6,4 °C 9,0 °C 3,2 km/h (1 Bft)
06.12.2018 15:07 9,0 °C 84 % 1021,0 hPa 0,0 mm 4,4 km/h (1 Bft) W 271 ° 0 min 0,000 mm 0,0 UV-I 42 W/m² 6,4 °C 9,0 °C 9,7 km/h (2 Bft)
06.12.2018 15:08 9,0 °C 84 % 1021,0 hPa 0,0 mm 6,7 km/h (2 Bft) W 260 ° 0 min 0,000 mm 0,0 UV-I 40 W/m² 6,4 °C 8,1 °C 11,3 km/h (2 Bft)
06.12.2018 15:09 9,0 °C 84 % 1021,0 hPa 0,0 mm 2,7 km/h (1 Bft) W 261 ° 0 min 0,000 mm 0,0 UV-I 39 W/m² 6,4 °C 9,0 °C 4,8 km/h (1 Bft)
06.12.2018 15:10 8,9 °C 84 % 1021,0 hPa 0,0 mm 3,8 km/h (1 Bft) W 259 ° 0 min 0,000 mm 0,0 UV-I 37 W/m² 6,3 °C 8,9 °C 6,4 km/h (2 Bft)
06.12.2018 15:11 8,9 °C 84 % 1021,0 hPa 0,0 mm 5,1 km/h (1 Bft) W-NW 283 ° 0 min 0,000 mm 0,0 UV-I 39 W/m² 6,3 °C 8,5 °C 9,7 km/h (2 Bft)
06.12.2018 15:12 8,9 °C 84 % 1021,0 hPa 0,0 mm 12,1 km/h (2 Bft) W 262 ° 0 min 0,000 mm 0,0 UV-I 35 W/m² 6,3 °C 7,0 °C 17,7 km/h (3 Bft)
06.12.2018 15:13 8,9 °C 84 % 1021,0 hPa 0,0 mm 8,5 km/h (2 Bft) W 267 ° 0 min 0,000 mm 0,0 UV-I 33 W/m² 6,3 °C 7,6 °C 14,5 km/h (3 Bft)
06.12.2018 15:14 8,9 °C 84 % 1021,1 hPa 0,0 mm 8,4 km/h (2 Bft) W 270 ° 0 min 0,000 mm 0,0 UV-I 35 W/m² 6,3 °C 7,6 °C 14,5 km/h (3 Bft)
06.12.2018 15:15 8,9 °C 84 % 1021,1 hPa 0,0 mm 5,3 km/h (1 Bft) SW 219 ° 0 min 0,000 mm 0,0 UV-I 35 W/m² 6,3 °C 8,4 °C 6,4 km/h (2 Bft)
06.12.2018 15:16 8,8 °C 84 % 1021,0 hPa 0,0 mm 8,3 km/h (2 Bft) W-SW 248 ° 0 min 0,000 mm 0,0 UV-I 33 W/m² 6,2 °C 7,5 °C 11,3 km/h (2 Bft)
06.12.2018 15:17 8,8 °C 84 % 1021,1 hPa 0,0 mm 4,4 km/h (1 Bft) SW 225 ° 0 min 0,000 mm 0,0 UV-I 33 W/m² 6,2 °C 8,8 °C 8,0 km/h (2 Bft)
06.12.2018 15:18 8,8 °C 84 % 1021,1 hPa 0,0 mm 4,0 km/h (1 Bft) W-SW 242 ° 0 min 0,000 mm 0,0 UV-I 32 W/m² 6,2 °C 8,8 °C 6,4 km/h (2 Bft)
06.12.2018 15:19 8,8 °C 84 % 1021,1 hPa 0,0 mm 2,3 km/h (1 Bft) W 266 ° 0 min 0,000 mm 0,0 UV-I 28 W/m² 6,2 °C 8,8 °C 4,8 km/h (1 Bft)
06.12.2018 15:20 8,8 °C 84 % 1021,1 hPa 0,0 mm 3,8 km/h (1 Bft) W-SW 252 ° 0 min 0,000 mm 0,0 UV-I 26 W/m² 6,2 °C 8,8 °C 8,0 km/h (2 Bft)
06.12.2018 15:21 8,8 °C 84 % 1021,1 hPa 0,0 mm 5,5 km/h (1 Bft) W-SW 255 ° 0 min 0,000 mm 0,0 UV-I 26 W/m² 6,2 °C 8,2 °C 6,4 km/h (2 Bft)
06.12.2018 15:22 8,8 °C 84 % 1021,1 hPa 0,0 mm 4,8 km/h (1 Bft) W 259 ° 0 min 0,000 mm 0,0 UV-I 26 W/m² 6,2 °C 8,5 °C 6,4 km/h (2 Bft)
06.12.2018 15:23 8,8 °C 85 % 1021,1 hPa 0,0 mm 4,1 km/h (1 Bft) W 260 ° 0 min 0,000 mm 0,0 UV-I 28 W/m² 6,4 °C 8,8 °C 9,7 km/h (2 Bft)
06.12.2018 15:24 8,8 °C 85 % 1021,1 hPa 0,0 mm 1,9 km/h (1 Bft) W 260 ° 0 min 0,000 mm 0,0 UV-I 26 W/m² 6,4 °C 8,8 °C 3,2 km/h (1 Bft)
06.12.2018 15:25 8,8 °C 85 % 1021,2 hPa 0,0 mm 4,2 km/h (1 Bft) SW 228 ° 0 min 0,000 mm 0,0 UV-I 25 W/m² 6,4 °C 8,8 °C 8,0 km/h (2 Bft)
06.12.2018 15:26 8,8 °C 85 % 1021,1 hPa 0,0 mm 2,4 km/h (1 Bft) SW 229 ° 0 min 0,000 mm 0,0 UV-I 25 W/m² 6,4 °C 8,8 °C 4,8 km/h (1 Bft)
06.12.2018 15:27 8,8 °C 85 % 1021,3 hPa 0,0 mm 3,8 km/h (1 Bft) W-SW 256 ° 0 min 0,000 mm 0,0 UV-I 23 W/m² 6,4 °C 8,8 °C 4,8 km/h (1 Bft)
06.12.2018 15:28 8,8 °C 85 % 1021,2 hPa 0,0 mm 1,4 km/h (1 Bft) W-SW 255 ° 0 min 0,000 mm 0,0 UV-I 25 W/m² 6,4 °C 8,8 °C 1,6 km/h (1 Bft)
06.12.2018 15:29 8,8 °C 85 % 1021,3 hPa 0,0 mm 2,1 km/h (1 Bft) S-SW 208 ° 0 min 0,000 mm 0,0 UV-I 28 W/m² 6,4 °C 8,8 °C 4,8 km/h (1 Bft)
06.12.2018 15:30 8,8 °C 85 % 1021,2 hPa 0,0 mm 0,8 km/h (0 Bft) S-SW 208 ° 0 min 0,000 mm 0,0 UV-I 26 W/m² 6,4 °C 8,8 °C 1,6 km/h (1 Bft)
06.12.2018 15:31 8,8 °C 85 % 1021,3 hPa 0,0 mm 2,6 km/h (1 Bft) W 277 ° 0 min 0,000 mm 0,0 UV-I 23 W/m² 6,4 °C 8,8 °C 6,4 km/h (2 Bft)
06.12.2018 15:32 8,8 °C 85 % 1021,3 hPa 0,0 mm 1,5 km/h (1 Bft) W-SW 242 ° 0 min 0,000 mm 0,0 UV-I 19 W/m² 6,4 °C 8,8 °C 3,2 km/h (1 Bft)
06.12.2018 15:33 8,8 °C 85 % 1021,3 hPa 0,0 mm 1,6 km/h (1 Bft) W-SW 238 ° 0 min 0,000 mm 0,0 UV-I 16 W/m² 6,4 °C 8,8 °C 6,4 km/h (2 Bft)
06.12.2018 15:34 8,8 °C 85 % 1021,3 hPa 0,0 mm 1,6 km/h (1 Bft) W-SW 238 ° 0 min 0,000 mm 0,0 UV-I 16 W/m² 6,4 °C 8,8 °C 4,8 km/h (1 Bft)
06.12.2018 15:35 8,7 °C 85 % 1021,3 hPa 0,0 mm 3,7 km/h (1 Bft) W-SW 255 ° 0 min 0,000 mm 0,0 UV-I 16 W/m² 6,3 °C 8,7 °C 6,4 km/h (2 Bft)
06.12.2018 15:36 8,7 °C 85 % 1021,4 hPa 0,0 mm 6,0 km/h (2 Bft) S-SW 205 ° 0 min 0,000 mm 0,0 UV-I 14 W/m² 6,3 °C 8,0 °C 11,3 km/h (2 Bft)
06.12.2018 15:37 8,7 °C 85 % 1021,4 hPa 0,0 mm 4,3 km/h (1 Bft) W-SW 240 ° 0 min 0,000 mm 0,0 UV-I 11 W/m² 6,3 °C 8,7 °C 6,4 km/h (2 Bft)
06.12.2018 15:38 8,7 °C 85 % 1021,4 hPa 0,0 mm 2,5 km/h (1 Bft) W-SW 240 ° 0 min 0,000 mm 0,0 UV-I 9 W/m² 6,3 °C 8,7 °C 4,8 km/h (1 Bft)
06.12.2018 15:39 8,7 °C 85 % 1021,4 hPa 0,0 mm 3,0 km/h (1 Bft) W-SW 254 ° 0 min 0,000 mm 0,0 UV-I 9 W/m² 6,3 °C 8,7 °C 6,4 km/h (2 Bft)
06.12.2018 15:40 8,7 °C 85 % 1021,4 hPa 0,0 mm 4,9 km/h (1 Bft) SW 221 ° 0 min 0,000 mm 0,0 UV-I 9 W/m² 6,3 °C 8,3 °C 6,4 km/h (2 Bft)
06.12.2018 15:41 8,7 °C 86 % 1021,5 hPa 0,0 mm 5,8 km/h (2 Bft) SW 220 ° 0 min 0,000 mm 0,0 UV-I 9 W/m² 6,5 °C 8,0 °C 9,7 km/h (2 Bft)
06.12.2018 15:42 8,7 °C 86 % 1021,5 hPa 0,0 mm 4,8 km/h (1 Bft) W-SW 237 ° 0 min 0,000 mm 0,0 UV-I 9 W/m² 6,5 °C 8,3 °C 9,7 km/h (2 Bft)
06.12.2018 15:43 8,6 °C 86 % 1021,5 hPa 0,0 mm 2,9 km/h (1 Bft) W 265 ° 0 min 0,000 mm 0,0 UV-I 11 W/m² 6,4 °C 8,6 °C 6,4 km/h (2 Bft)
06.12.2018 15:44 8,6 °C 86 % 1021,5 hPa 0,0 mm 7,1 km/h (2 Bft) S 182 ° 0 min 0,000 mm 0,0 UV-I 11 W/m² 6,4 °C 7,6 °C 9,7 km/h (2 Bft)
06.12.2018 15:45 8,6 °C 86 % 1021,5 hPa 0,0 mm 9,0 km/h (2 Bft) S-SW 212 ° 0 min 0,000 mm 0,0 UV-I 12 W/m² 6,4 °C 7,2 °C 14,5 km/h (3 Bft)
06.12.2018 15:46 8,6 °C 86 % 1021,6 hPa 0,0 mm 3,3 km/h (1 Bft) W-SW 250 ° 0 min 0,000 mm 0,0 UV-I 16 W/m² 6,4 °C 8,6 °C 6,4 km/h (2 Bft)
06.12.2018 15:47 8,6 °C 86 % 1021,5 hPa 0,0 mm 5,6 km/h (1 Bft) S-SW 209 ° 0 min 0,000 mm 0,0 UV-I 16 W/m² 6,4 °C 8,0 °C 8,0 km/h (2 Bft)
06.12.2018 15:48 8,6 °C 86 % 1021,5 hPa 0,0 mm 4,2 km/h (1 Bft) W-SW 256 ° 0 min 0,000 mm 0,0 UV-I 16 W/m² 6,4 °C 8,6 °C 6,4 km/h (2 Bft)
06.12.2018 15:49 8,5 °C 86 % 1021,5 hPa 0,0 mm 5,6 km/h (1 Bft) W-SW 253 ° 0 min 0,000 mm 0,0 UV-I 14 W/m² 6,3 °C 7,9 °C 8,0 km/h (2 Bft)
06.12.2018 15:50 8,5 °C 86 % 1021,5 hPa 0,0 mm 4,2 km/h (1 Bft) S 190 ° 0 min 0,000 mm 0,0 UV-I 14 W/m² 6,3 °C 8,5 °C 6,4 km/h (2 Bft)
06.12.2018 15:51 8,5 °C 86 % 1021,5 hPa 0,0 mm 3,6 km/h (1 Bft) S-SW 193 ° 0 min 0,000 mm 0,0 UV-I 14 W/m² 6,3 °C 8,5 °C 4,8 km/h (1 Bft)
06.12.2018 15:52 8,4 °C 86 % 1021,4 hPa 0,0 mm 3,1 km/h (1 Bft) S-SW 202 ° 0 min 0,000 mm 0,0 UV-I 14 W/m² 6,2 °C 8,4 °C 4,8 km/h (1 Bft)
06.12.2018 15:53 8,4 °C 87 % 1021,4 hPa 0,0 mm 4,4 km/h (1 Bft) SW 228 ° 0 min 0,000 mm 0,0 UV-I 16 W/m² 6,4 °C 8,4 °C 6,4 km/h (2 Bft)
06.12.2018 15:54 8,4 °C 87 % 1021,4 hPa 0,0 mm 4,6 km/h (1 Bft) S-SW 204 ° 0 min 0,000 mm 0,0 UV-I 19 W/m² 6,4 °C 8,1 °C 11,3 km/h (2 Bft)
06.12.2018 15:55 8,4 °C 87 % 1021,5 hPa 0,0 mm 4,8 km/h (1 Bft) S-SW 213 ° 0 min 0,000 mm 0,0 UV-I 21 W/m² 6,4 °C 8,0 °C 11,3 km/h (2 Bft)
06.12.2018 15:56 8,4 °C 87 % 1021,4 hPa 0,0 mm 4,6 km/h (1 Bft) S-SW 207 ° 0 min 0,000 mm 0,0 UV-I 21 W/m² 6,4 °C 8,1 °C 8,0 km/h (2 Bft)
06.12.2018 15:57 8,3 °C 87 % 1021,4 hPa 0,0 mm 3,0 km/h (1 Bft) SW 225 ° 0 min 0,000 mm 0,0 UV-I 19 W/m² 6,3 °C 8,3 °C 4,8 km/h (1 Bft)
06.12.2018 15:58 8,4 °C 87 % 1021,4 hPa 0,0 mm 3,2 km/h (1 Bft) S-SW 196 ° 0 min 0,000 mm 0,0 UV-I 16 W/m² 6,4 °C 8,4 °C 6,4 km/h (2 Bft)
06.12.2018 15:59 8,3 °C 87 % 1021,4 hPa 0,0 mm 1,8 km/h (1 Bft) S-SW 199 ° 0 min 0,000 mm 0,0 UV-I 14 W/m² 6,3 °C 8,3 °C 4,8 km/h (1 Bft)
06.12.2018 16:00 8,3 °C 87 % 1021,4 hPa 0,0 mm 5,4 km/h (1 Bft) S-SW 194 ° 0 min 0,025 mm 0,0 UV-I 14 W/m² 6,3 °C 7,7 °C 8,0 km/h (2 Bft)
06.12.2018 16:01 8,3 °C 87 % 1021,5 hPa 0,0 mm 1,9 km/h (1 Bft) S-SW 194 ° 0 min 0,000 mm 0,0 UV-I 14 W/m² 6,3 °C 8,3 °C 4,8 km/h (1 Bft)
06.12.2018 16:02 8,3 °C 87 % 1021,5 hPa 0,0 mm 3,5 km/h (1 Bft) S-SW 192 ° 0 min 0,000 mm 0,0 UV-I 16 W/m² 6,3 °C 8,3 °C 8,0 km/h (2 Bft)
06.12.2018 16:03 8,3 °C 87 % 1021,5 hPa 0,0 mm 5,0 km/h (1 Bft) S-SW 209 ° 0 min 0,000 mm 0,0 UV-I 14 W/m² 6,3 °C 7,8 °C 8,0 km/h (2 Bft)
06.12.2018 16:04 8,3 °C 87 % 1021,5 hPa 0,0 mm 4,6 km/h (1 Bft) W-SW 248 ° 0 min 0,000 mm 0,0 UV-I 12 W/m² 6,3 °C 8,0 °C 8,0 km/h (2 Bft)
06.12.2018 16:05 8,3 °C 87 % 1021,5 hPa 0,0 mm 2,5 km/h (1 Bft) W-SW 247 ° 0 min 0,000 mm 0,0 UV-I 12 W/m² 6,3 °C 8,3 °C 4,8 km/h (1 Bft)
06.12.2018 16:06 8,3 °C 87 % 1021,5 hPa 0,0 mm 3,4 km/h (1 Bft) SW 214 ° 0 min 0,000 mm 0,0 UV-I 12 W/m² 6,3 °C 8,3 °C 4,8 km/h (1 Bft)
06.12.2018 16:07 8,3 °C 87 % 1021,5 hPa 0,0 mm 4,1 km/h (1 Bft) S-SW 205 ° 0 min 0,000 mm 0,0 UV-I 12 W/m² 6,3 °C 8,3 °C 8,0 km/h (2 Bft)
06.12.2018 16:08 8,3 °C 87 % 1021,6 hPa 0,0 mm 2,8 km/h (1 Bft) S-SW 198 ° 0 min 0,000 mm 0,0 UV-I 14 W/m² 6,3 °C 8,3 °C 4,8 km/h (1 Bft)
06.12.2018 16:09 8,3 °C 87 % 1021,5 hPa 0,0 mm 7,0 km/h (2 Bft) S-SW 200 ° 0 min 0,000 mm 0,0 UV-I 12 W/m² 6,3 °C 7,2 °C 9,7 km/h (2 Bft)
06.12.2018 16:10 8,2 °C 87 % 1021,5 hPa 0,0 mm 5,2 km/h (1 Bft) S-SW 192 ° 0 min 0,000 mm 0,0 UV-I 12 W/m² 6,2 °C 7,6 °C 8,0 km/h (2 Bft)
06.12.2018 16:11 8,3 °C 87 % 1021,4 hPa 0,0 mm 6,7 km/h (2 Bft) W 265 ° 0 min 0,000 mm 0,0 UV-I 11 W/m² 6,3 °C 7,3 °C 11,3 km/h (2 Bft)
06.12.2018 16:12 8,2 °C 87 % 1021,5 hPa 0,0 mm 2,7 km/h (1 Bft) W-SW 239 ° 0 min 0,000 mm 0,0 UV-I 11 W/m² 6,2 °C 8,2 °C 6,4 km/h (2 Bft)
06.12.2018 16:13 8,2 °C 87 % 1021,4 hPa 0,0 mm 2,7 km/h (1 Bft) SW 223 ° 0 min 0,000 mm 0,0 UV-I 9 W/m² 6,2 °C 8,2 °C 4,8 km/h (1 Bft)
06.12.2018 16:14 8,2 °C 87 % 1021,4 hPa 0,0 mm 1,5 km/h (1 Bft) SW 223 ° 0 min 0,000 mm 0,0 UV-I 9 W/m² 6,2 °C 8,2 °C 3,2 km/h (1 Bft)
06.12.2018 16:15 8,2 °C 87 % 1021,4 hPa 0,0 mm 3,5 km/h (1 Bft) W-SW 254 ° 0 min 0,000 mm 0,0 UV-I 7 W/m² 6,2 °C 8,2 °C 6,4 km/h (2 Bft)
06.12.2018 16:16 8,2 °C 87 % 1021,4 hPa 0,0 mm 5,0 km/h (1 Bft) W-SW 244 ° 0 min 0,000 mm 0,0 UV-I 5 W/m² 6,2 °C 7,7 °C 9,7 km/h (2 Bft)
06.12.2018 16:17 8,2 °C 87 % 1021,4 hPa 0,0 mm 4,0 km/h (1 Bft) SW 217 ° 0 min 0,000 mm 0,0 UV-I 5 W/m² 6,2 °C 8,2 °C 6,4 km/h (2 Bft)
06.12.2018 16:18 8,2 °C 88 % 1021,5 hPa 0,0 mm 4,7 km/h (1 Bft) SW 232 ° 0 min 0,000 mm 0,0 UV-I 5 W/m² 6,3 °C 7,8 °C 8,0 km/h (2 Bft)
06.12.2018 16:19 8,2 °C 88 % 1021,5 hPa 0,0 mm 4,0 km/h (1 Bft) W-SW 242 ° 0 min 0,000 mm 0,0 UV-I 5 W/m² 6,3 °C 8,2 °C 4,8 km/h (1 Bft)
06.12.2018 16:20 8,2 °C 88 % 1021,5 hPa 0,0 mm 3,6 km/h (1 Bft) W-SW 242 ° 0 min 0,000 mm 0,0 UV-I 0 W/m² 6,3 °C 8,2 °C 6,4 km/h (2 Bft)
06.12.2018 16:21 8,2 °C 88 % 1021,5 hPa 0,0 mm 3,8 km/h (1 Bft) SW 229 ° 0 min 0,000 mm 0,0 UV-I 0 W/m² 6,3 °C 8,2 °C 8,0 km/h (2 Bft)
06.12.2018 16:22 8,2 °C 88 % 1021,5 hPa 0,0 mm 4,3 km/h (1 Bft) W 263 ° 0 min 0,000 mm 0,0 UV-I 0 W/m² 6,3 °C 8,2 °C 6,4 km/h (2 Bft)
06.12.2018 16:23 8,2 °C 88 % 1021,5 hPa 0,0 mm 2,0 km/h (1 Bft) W 263 ° 0 min 0,000 mm 0,0 UV-I 0 W/m² 6,3 °C 8,2 °C 3,2 km/h (1 Bft)
06.12.2018 16:24 8,2 °C 88 % 1021,5 hPa 0,0 mm 1,9 km/h (1 Bft) W 267 ° 0 min 0,000 mm 0,0 UV-I 0 W/m² 6,3 °C 8,2 °C 6,4 km/h (2 Bft)
06.12.2018 16:25 8,2 °C 88 % 1021,5 hPa 0,0 mm 3,9 km/h (1 Bft) W 270 ° 0 min 0,000 mm 0,0 UV-I 0 W/m² 6,3 °C 8,2 °C 9,7 km/h (2 Bft)
06.12.2018 16:26 8,1 °C 88 % 1021,5 hPa 0,0 mm 5,9 km/h (2 Bft) W-SW 253 ° 0 min 0,000 mm 0,0 UV-I 0 W/m² 6,2 °C 7,3 °C 11,3 km/h (2 Bft)
06.12.2018 16:27 8,1 °C 88 % 1021,6 hPa 0,0 mm 3,7 km/h (1 Bft) W-SW 253 ° 0 min 0,000 mm 0,0 UV-I 0 W/m² 6,2 °C 8,1 °C 4,8 km/h (1 Bft)
06.12.2018 16:28 8,1 °C 88 % 1021,6 hPa 0,0 mm 3,9 km/h (1 Bft) W-SW 241 ° 0 min 0,000 mm 0,0 UV-I 0 W/m² 6,2 °C 8,1 °C 6,4 km/h (2 Bft)
06.12.2018 16:29 8,1 °C 88 % 1021,6 hPa 0,0 mm 7,5 km/h (2 Bft) SW 236 ° 0 min 0,000 mm 0,0 UV-I 0 W/m² 6,2 °C 6,9 °C 12,9 km/h (3 Bft)
06.12.2018 16:30 8,1 °C 88 % 1021,7 hPa 0,0 mm 5,2 km/h (1 Bft) W-SW 252 ° 0 min 0,000 mm 0,0 UV-I 0 W/m² 6,2 °C 7,5 °C 6,4 km/h (2 Bft)
06.12.2018 16:31 8,1 °C 88 % 1021,7 hPa 0,0 mm 7,4 km/h (2 Bft) W 275 ° 0 min 0,000 mm 0,0 UV-I 0 W/m² 6,2 °C 6,9 °C 12,9 km/h (3 Bft)
06.12.2018 16:32 8,1 °C 88 % 1021,7 hPa 0,0 mm 8,5 km/h (2 Bft) W 279 ° 0 min 0,000 mm 0,0 UV-I 0 W/m² 6,2 °C 6,7 °C 12,9 km/h (3 Bft)
06.12.2018 16:33 8,1 °C 88 % 1021,7 hPa 0,0 mm 6,6 km/h (2 Bft) W-SW 245 ° 0 min 0,000 mm 0,0 UV-I 0 W/m² 6,2 °C 7,1 °C 8,0 km/h (2 Bft)
06.12.2018 16:34 8,1 °C 88 % 1021,7 hPa 0,0 mm 4,1 km/h (1 Bft) W-SW 257 ° 0 min 0,000 mm 0,0 UV-I 0 W/m² 6,2 °C 8,1 °C 6,4 km/h (2 Bft)
06.12.2018 16:35 8,0 °C 88 % 1021,7 hPa 0,0 mm 3,6 km/h (1 Bft) W-SW 254 ° 0 min 0,000 mm 0,0 UV-I 0 W/m² 6,1 °C 8,0 °C 6,4 km/h (2 Bft)
06.12.2018 16:36 8,1 °C 88 % 1021,7 hPa 0,0 mm 3,3 km/h (1 Bft) W-SW 250 ° 0 min 0,000 mm 0,0 UV-I 0 W/m² 6,2 °C 8,1 °C 6,4 km/h (2 Bft)
06.12.2018 16:37 8,0 °C 89 % 1021,7 hPa 0,0 mm 5,5 km/h (1 Bft) W-SW 248 ° 0 min 0,000 mm 0,0 UV-I 0 W/m² 6,3 °C 7,3 °C 8,0 km/h (2 Bft)
06.12.2018 16:38 8,0 °C 89 % 1021,7 hPa 0,0 mm 2,8 km/h (1 Bft) SW 233 ° 0 min 0,000 mm 0,0 UV-I 0 W/m² 6,3 °C 8,0 °C 8,0 km/h (2 Bft)
06.12.2018 16:39 8,0 °C 89 % 1021,8 hPa 0,0 mm 2,4 km/h (1 Bft) SW 219 ° 0 min 0,000 mm 0,0 UV-I 0 W/m² 6,3 °C 8,0 °C 8,0 km/h (2 Bft)
06.12.2018 16:40 8,0 °C 89 % 1021,7 hPa 0,0 mm 4,6 km/h (1 Bft) S-SW 211 ° 0 min 0,000 mm 0,0 UV-I 0 W/m² 6,3 °C 7,6 °C 6,4 km/h (2 Bft)
06.12.2018 16:41 8,0 °C 89 % 1021,7 hPa 0,0 mm 4,4 km/h (1 Bft) SW 217 ° 0 min 0,000 mm 0,0 UV-I 0 W/m² 6,3 °C 8,0 °C 8,0 km/h (2 Bft)
06.12.2018 16:42 8,0 °C 89 % 1021,7 hPa 0,0 mm 6,9 km/h (2 Bft) S-SW 206 ° 0 min 0,000 mm 0,0 UV-I 0 W/m² 6,3 °C 6,9 °C 11,3 km/h (2 Bft)
06.12.2018 16:43 7,9 °C 89 % 1021,8 hPa 0,0 mm 4,4 km/h (1 Bft) W-SW 254 ° 0 min 0,000 mm 0,0 UV-I 0 W/m² 6,2 °C 7,9 °C 6,4 km/h (2 Bft)
06.12.2018 16:44 8,0 °C 89 % 1021,7 hPa 0,0 mm 4,6 km/h (1 Bft) W-NW 296 ° 0 min 0,000 mm 0,0 UV-I 0 W/m² 6,3 °C 7,6 °C 8,0 km/h (2 Bft)
06.12.2018 16:45 7,9 °C 89 % 1021,8 hPa 0,0 mm 11,5 km/h (2 Bft) W 273 ° 0 min 0,000 mm 0,0 UV-I 0 W/m² 6,2 °C 5,9 °C 19,3 km/h (3 Bft)
06.12.2018 16:46 7,9 °C 89 % 1021,8 hPa 0,0 mm 9,8 km/h (2 Bft) W-SW 243 ° 0 min 0,000 mm 0,0 UV-I 0 W/m² 6,2 °C 6,2 °C 14,5 km/h (3 Bft)
06.12.2018 16:47 7,9 °C 89 % 1021,8 hPa 0,0 mm 6,8 km/h (2 Bft) S-SW 209 ° 0 min 0,000 mm 0,0 UV-I 0 W/m² 6,2 °C 6,8 °C 12,9 km/h (3 Bft)
06.12.2018 16:48 7,9 °C 89 % 1021,8 hPa 0,0 mm 9,9 km/h (2 Bft) W 266 ° 0 min 0,000 mm 0,0 UV-I 0 W/m² 6,2 °C 6,1 °C 17,7 km/h (3 Bft)
06.12.2018 16:49 7,9 °C 90 % 1021,8 hPa 0,0 mm 6,4 km/h (2 Bft) W-SW 242 ° 0 min 0,000 mm 0,0 UV-I 0 W/m² 6,4 °C 6,9 °C 14,5 km/h (3 Bft)
06.12.2018 16:50 7,8 °C 90 % 1021,8 hPa 0,0 mm 5,0 km/h (1 Bft) W-SW 254 ° 0 min 0,000 mm 0,0 UV-I 0 W/m² 6,3 °C 7,3 °C 11,3 km/h (2 Bft)
06.12.2018 16:51 7,9 °C 90 % 1021,8 hPa 0,0 mm 11,2 km/h (2 Bft) W 262 ° 0 min 0,000 mm 0,0 UV-I 0 W/m² 6,4 °C 5,9 °C 17,7 km/h (3 Bft)
06.12.2018 16:52 7,8 °C 90 % 1021,8 hPa 0,0 mm 12,0 km/h (2 Bft) W-SW 255 ° 0 min 0,000 mm 0,0 UV-I 0 W/m² 6,3 °C 5,6 °C 17,7 km/h (3 Bft)
06.12.2018 16:53 7,8 °C 90 % 1021,7 hPa 0,0 mm 12,0 km/h (2 Bft) SW 225 ° 0 min 0,000 mm 0,0 UV-I 0 W/m² 6,3 °C 5,6 °C 16,1 km/h (3 Bft)
06.12.2018 16:54 7,8 °C 90 % 1021,7 hPa 0,0 mm 9,2 km/h (2 Bft) W-SW 247 ° 0 min 0,000 mm 0,0 UV-I 0 W/m² 6,3 °C 6,2 °C 16,1 km/h (3 Bft)
06.12.2018 16:55 7,8 °C 90 % 1021,7 hPa 0,0 mm 8,7 km/h (2 Bft) W-SW 257 ° 0 min 0,000 mm 0,0 UV-I 0 W/m² 6,3 °C 6,3 °C 14,5 km/h (3 Bft)
06.12.2018 16:56 7,8 °C 90 % 1021,7 hPa 0,0 mm 7,4 km/h (2 Bft) W-SW 250 ° 0 min 0,000 mm 0,0 UV-I 0 W/m² 6,3 °C 6,6 °C 11,3 km/h (2 Bft)
06.12.2018 16:57 7,8 °C 90 % 1021,7 hPa 0,0 mm 6,0 km/h (2 Bft) W 268 ° 0 min 0,000 mm 0,0 UV-I 0 W/m² 6,3 °C 6,9 °C 9,7 km/h (2 Bft)
06.12.2018 16:58 7,8 °C 90 % 1021,7 hPa 0,0 mm 9,3 km/h (2 Bft) W-SW 254 ° 0 min 0,000 mm 0,0 UV-I 0 W/m² 6,3 °C 6,1 °C 12,9 km/h (3 Bft)
06.12.2018 16:59 7,7 °C 90 % 1021,8 hPa 0,0 mm 10,8 km/h (2 Bft) W-SW 250 ° 0 min 0,000 mm 0,0 UV-I 0 W/m² 6,2 °C 5,7 °C 14,5 km/h (3 Bft)
06.12.2018 17:00 7,8 °C 90 % 1021,8 hPa 0,0 mm 3,5 km/h (1 Bft) W 270 ° 0 min 0,000 mm 0,0 UV-I 0 W/m² 6,3 °C 7,8 °C 4,8 km/h (1 Bft)
06.12.2018 17:01 7,7 °C 90 % 1021,8 hPa 0,0 mm 3,0 km/h (1 Bft) W-SW 239 ° 0 min 0,000 mm 0,0 UV-I 0 W/m² 6,2 °C 7,7 °C 4,8 km/h (1 Bft)
06.12.2018 17:02 7,7 °C 90 % 1021,8 hPa 0,0 mm 5,8 km/h (2 Bft) W 265 ° 0 min 0,000 mm 0,0 UV-I 0 W/m² 6,2 °C 6,9 °C 11,3 km/h (2 Bft)
06.12.2018 17:03 7,7 °C 90 % 1021,8 hPa 0,0 mm 4,3 km/h (1 Bft) W 271 ° 0 min 0,000 mm 0,0 UV-I 0 W/m² 6,2 °C 7,7 °C 6,4 km/h (2 Bft)
06.12.2018 17:04 7,7 °C 90 % 1021,8 hPa 0,0 mm 5,6 km/h (1 Bft) W-SW 244 ° 0 min 0,000 mm 0,0 UV-I 0 W/m² 6,2 °C 6,9 °C 8,0 km/h (2 Bft)
06.12.2018 17:05 7,7 °C 90 % 1021,8 hPa 0,0 mm 11,6 km/h (2 Bft) W 266 ° 0 min 0,000 mm 0,0 UV-I 0 W/m² 6,2 °C 5,6 °C 16,1 km/h (3 Bft)
06.12.2018 17:06 7,7 °C 90 % 1021,8 hPa 0,0 mm 8,4 km/h (2 Bft) W-SW 254 ° 0 min 0,000 mm 0,0 UV-I 0 W/m² 6,2 °C 6,2 °C 12,9 km/h (3 Bft)
06.12.2018 17:07 7,7 °C 90 % 1021,8 hPa 0,0 mm 11,3 km/h (2 Bft) W 264 ° 0 min 0,000 mm 0,0 UV-I 0 W/m² 6,2 °C 5,6 °C 19,3 km/h (3 Bft)
06.12.2018 17:08 7,7 °C 90 % 1021,8 hPa 0,0 mm 13,1 km/h (3 Bft) SW 235 ° 0 min 0,000 mm 0,0 UV-I 0 W/m² 6,2 °C 5,4 °C 17,7 km/h (3 Bft)
06.12.2018 17:09 7,7 °C 90 % 1021,8 hPa 0,0 mm 10,3 km/h (2 Bft) W-SW 239 ° 0 min 0,000 mm 0,0 UV-I 0 W/m² 6,2 °C 5,8 °C 12,9 km/h (3 Bft)
06.12.2018 17:10 7,7 °C 90 % 1021,8 hPa 0,0 mm 5,9 km/h (2 Bft) W 267 ° 0 min 0,000 mm 0,0 UV-I 0 W/m² 6,2 °C 6,9 °C 11,3 km/h (2 Bft)
06.12.2018 17:11 7,6 °C 90 % 1021,9 hPa 0,0 mm 11,1 km/h (2 Bft) W 261 ° 0 min 0,000 mm 0,0 UV-I 0 W/m² 6,1 °C 5,6 °C 16,1 km/h (3 Bft)
06.12.2018 17:12 7,7 °C 90 % 1021,9 hPa 0,0 mm 6,8 km/h (2 Bft) W-SW 250 ° 0 min 0,000 mm 0,0 UV-I 0 W/m² 6,2 °C 6,6 °C 14,5 km/h (3 Bft)
06.12.2018 17:13 7,6 °C 91 % 1021,9 hPa 0,0 mm 4,4 km/h (1 Bft) W-SW 252 ° 0 min 0,000 mm 0,0 UV-I 0 W/m² 6,2 °C 7,6 °C 4,8 km/h (1 Bft)
06.12.2018 17:14 7,6 °C 90 % 1021,9 hPa 0,0 mm 3,9 km/h (1 Bft) W 278 ° 0 min 0,000 mm 0,0 UV-I 0 W/m² 6,1 °C 7,6 °C 6,4 km/h (2 Bft)
06.12.2018 17:15 7,6 °C 90 % 1022,0 hPa 0,0 mm 4,7 km/h (1 Bft) W-SW 253 ° 0 min 0,000 mm 0,0 UV-I 0 W/m² 6,1 °C 7,1 °C 6,4 km/h (2 Bft)
06.12.2018 17:16 7,6 °C 91 % 1022,0 hPa 0,0 mm 6,2 km/h (2 Bft) W-SW 256 ° 0 min 0,000 mm 0,0 UV-I 0 W/m² 6,2 °C 6,7 °C 11,3 km/h (2 Bft)
06.12.2018 17:17 7,6 °C 90 % 1022,0 hPa 0,0 mm 4,4 km/h (1 Bft) W-SW 256 ° 0 min 0,000 mm 0,0 UV-I 0 W/m² 6,1 °C 7,6 °C 6,4 km/h (2 Bft)
06.12.2018 17:18 7,6 °C 90 % 1022,1 hPa 0,0 mm 6,2 km/h (2 Bft) W 273 ° 0 min 0,000 mm 0,0 UV-I 0 W/m² 6,1 °C 6,7 °C 11,3 km/h (2 Bft)
06.12.2018 17:19 7,6 °C 90 % 1022,0 hPa 0,0 mm 6,9 km/h (2 Bft) W-SW 243 ° 0 min 0,000 mm 0,0 UV-I 0 W/m² 6,1 °C 6,5 °C 12,9 km/h (3 Bft)
06.12.2018 17:20 7,6 °C 90 % 1022,1 hPa 0,0 mm 7,3 km/h (2 Bft) W 271 ° 0 min 0,000 mm 0,0 UV-I 0 W/m² 6,1 °C 6,4 °C 11,3 km/h (2 Bft)
06.12.2018 17:21 7,6 °C 91 % 1022,1 hPa 0,0 mm 10,7 km/h (2 Bft) W 262 ° 0 min 0,000 mm 0,0 UV-I 0 W/m² 6,2 °C 5,6 °C 12,9 km/h (3 Bft)
06.12.2018 17:22 7,6 °C 91 % 1022,1 hPa 0,0 mm 9,2 km/h (2 Bft) W 266 ° 0 min 0,000 mm 0,0 UV-I 0 W/m² 6,2 °C 5,9 °C 14,5 km/h (3 Bft)
06.12.2018 17:23 7,6 °C 90 % 1022,0 hPa 0,0 mm 8,4 km/h (2 Bft) W 274 ° 0 min 0,000 mm 0,0 UV-I 0 W/m² 6,1 °C 6,1 °C 12,9 km/h (3 Bft)
06.12.2018 17:24 7,6 °C 91 % 1022,1 hPa 0,0 mm 9,6 km/h (2 Bft) W-NW 285 ° 0 min 0,000 mm 0,0 UV-I 0 W/m² 6,2 °C 5,8 °C 12,9 km/h (3 Bft)
06.12.2018 17:25 7,6 °C 91 % 1022,1 hPa 0,0 mm 4,9 km/h (1 Bft) W 265 ° 0 min 0,000 mm 0,0 UV-I 0 W/m² 6,2 °C 7,1 °C 6,4 km/h (2 Bft)
06.12.2018 17:26 7,5 °C 91 % 1022,1 hPa 0,0 mm 13,5 km/h (3 Bft) W 281 ° 0 min 0,000 mm 0,0 UV-I 0 W/m² 6,1 °C 5,0 °C 17,7 km/h (3 Bft)
06.12.2018 17:27 7,6 °C 91 % 1022,0 hPa 0,0 mm 5,6 km/h (1 Bft) W 270 ° 0 min 0,000 mm 0,0 UV-I 0 W/m² 6,2 °C 6,8 °C 9,7 km/h (2 Bft)
06.12.2018 17:28 7,6 °C 91 % 1022,1 hPa 0,0 mm 7,4 km/h (2 Bft) W-SW 257 ° 0 min 0,000 mm 0,0 UV-I 0 W/m² 6,2 °C 6,3 °C 12,9 km/h (3 Bft)
06.12.2018 17:29 7,5 °C 91 % 1022,0 hPa 0,0 mm 7,1 km/h (2 Bft) SW 236 ° 0 min 0,000 mm 0,0 UV-I 0 W/m² 6,1 °C 6,3 °C 11,3 km/h (2 Bft)
06.12.2018 17:30 7,5 °C 91 % 1022,1 hPa 0,0 mm 3,8 km/h (1 Bft) SW 234 ° 0 min 0,000 mm 0,0 UV-I 0 W/m² 6,1 °C 7,5 °C 6,4 km/h (2 Bft)
06.12.2018 17:31 7,5 °C 91 % 1022,0 hPa 0,0 mm 5,9 km/h (2 Bft) W 263 ° 0 min 0,000 mm 0,0 UV-I 0 W/m² 6,1 °C 6,6 °C 8,0 km/h (2 Bft)
06.12.2018 17:32 7,5 °C 91 % 1022,1 hPa 0,0 mm 7,8 km/h (2 Bft) W 262 ° 0 min 0,000 mm 0,0 UV-I 0 W/m² 6,1 °C 6,1 °C 11,3 km/h (2 Bft)
06.12.2018 17:33 7,5 °C 91 % 1022,2 hPa 0,0 mm 3,8 km/h (1 Bft) W 261 ° 0 min 0,000 mm 0,0 UV-I 0 W/m² 6,1 °C 7,5 °C 6,4 km/h (2 Bft)
06.12.2018 17:34 7,5 °C 91 % 1022,2 hPa 0,0 mm 2,9 km/h (1 Bft) W-SW 248 ° 0 min 0,000 mm 0,0 UV-I 0 W/m² 6,1 °C 7,5 °C 4,8 km/h (1 Bft)
06.12.2018 17:35 7,4 °C 91 % 1022,1 hPa 0,0 mm 4,7 km/h (1 Bft) W-SW 253 ° 0 min 0,000 mm 0,0 UV-I 0 W/m² 6,0 °C 6,9 °C 8,0 km/h (2 Bft)
06.12.2018 17:36 7,5 °C 91 % 1022,2 hPa 0,0 mm 3,6 km/h (1 Bft) W-SW 253 ° 0 min 0,000 mm 0,0 UV-I 0 W/m² 6,1 °C 7,5 °C 6,4 km/h (2 Bft)
06.12.2018 17:37 7,4 °C 91 % 1022,1 hPa 0,0 mm 3,4 km/h (1 Bft) W 261 ° 0 min 0,000 mm 0,0 UV-I 0 W/m² 6,0 °C 7,4 °C 6,4 km/h (2 Bft)
06.12.2018 17:38 7,5 °C 91 % 1022,0 hPa 0,0 mm 2,0 km/h (1 Bft) W-SW 242 ° 0 min 0,000 mm 0,0 UV-I 0 W/m² 6,1 °C 7,5 °C 4,8 km/h (1 Bft)
06.12.2018 17:39 7,4 °C 91 % 1022,0 hPa 0,0 mm 1,7 km/h (1 Bft) W-SW 242 ° 0 min 0,000 mm 0,0 UV-I 0 W/m² 6,0 °C 7,4 °C 3,2 km/h (1 Bft)
06.12.2018 17:40 7,4 °C 91 % 1022,1 hPa 0,0 mm 0,0 km/h (0 Bft) W-SW 242 ° 0 min 0,000 mm 0,0 UV-I 0 W/m² 6,0 °C 7,4 °C 0,0 km/h (0 Bft)
06.12.2018 17:41 7,4 °C 91 % 1022,1 hPa 0,0 mm 3,4 km/h (1 Bft) W-SW 250 ° 0 min 0,000 mm 0,0 UV-I 0 W/m² 6,0 °C 7,4 °C 9,7 km/h (2 Bft)
06.12.2018 17:42 7,4 °C 91 % 1022,0 hPa 0,0 mm 3,8 km/h (1 Bft) W-SW 246 ° 0 min 0,000 mm 0,0 UV-I 0 W/m² 6,0 °C 7,4 °C 4,8 km/h (1 Bft)
06.12.2018 17:43 7,4 °C 91 % 1022,0 hPa 0,0 mm 2,4 km/h (1 Bft) W-SW 250 ° 0 min 0,000 mm 0,0 UV-I 0 W/m² 6,0 °C 7,4 °C 4,8 km/h (1 Bft)
06.12.2018 17:44 7,4 °C 91 % 1022,0 hPa 0,0 mm 2,1 km/h (1 Bft) W-SW 250 ° 0 min 0,000 mm 0,0 UV-I 0 W/m² 6,0 °C 7,4 °C 4,8 km/h (1 Bft)
06.12.2018 17:45 7,3 °C 91 % 1022,1 hPa 0,0 mm 0,0 km/h (0 Bft) W-SW 249 ° 0 min 0,000 mm 0,0 UV-I 0 W/m² 5,9 °C 7,3 °C 0,0 km/h (0 Bft)
06.12.2018 17:46 7,3 °C 91 % 1022,0 hPa 0,0 mm 1,3 km/h (1 Bft) W-SW 249 ° 0 min 0,000 mm 0,0 UV-I 0 W/m² 5,9 °C 7,3 °C 3,2 km/h (1 Bft)
06.12.2018 17:47 7,3 °C 91 % 1022,0 hPa 0,0 mm 1,6 km/h (1 Bft) W-SW 249 ° 0 min 0,000 mm 0,0 UV-I 0 W/m² 5,9 °C 7,3 °C 3,2 km/h (1 Bft)
06.12.2018 17:48 7,3 °C 91 % 1022,0 hPa 0,0 mm 2,1 km/h (1 Bft) W-SW 241 ° 0 min 0,000 mm 0,0 UV-I 0 W/m² 5,9 °C 7,3 °C 3,2 km/h (1 Bft)
06.12.2018 17:49 7,3 °C 91 % 1022,0 hPa 0,0 mm 0,5 km/h (0 Bft) W-SW 241 ° 0 min 0,000 mm 0,0 UV-I 0 W/m² 5,9 °C 7,3 °C 3,2 km/h (1 Bft)
06.12.2018 17:50 7,3 °C 91 % 1022,0 hPa 0,0 mm 0,5 km/h (0 Bft) W-SW 241 ° 0 min 0,000 mm 0,0 UV-I 0 W/m² 5,9 °C 7,3 °C 3,2 km/h (1 Bft)
06.12.2018 17:51 7,3 °C 91 % 1022,0 hPa 0,0 mm 1,0 km/h (0 Bft) W-SW 241 ° 0 min 0,000 mm 0,0 UV-I 0 W/m² 5,9 °C 7,3 °C 3,2 km/h (1 Bft)
06.12.2018 17:52 7,2 °C 91 % 1022,0 hPa 0,0 mm 1,0 km/h (0 Bft) W-SW 241 ° 0 min 0,000 mm 0,0 UV-I 0 W/m² 5,8 °C 7,2 °C 3,2 km/h (1 Bft)
06.12.2018 17:53 7,2 °C 91 % 1022,0 hPa 0,0 mm 1,7 km/h (1 Bft) SW 233 ° 0 min 0,000 mm 0,0 UV-I 0 W/m² 5,8 °C 7,2 °C 4,8 km/h (1 Bft)
06.12.2018 17:54 7,2 °C 91 % 1022,0 hPa 0,0 mm 2,6 km/h (1 Bft) SW 229 ° 0 min 0,000 mm 0,0 UV-I 0 W/m² 5,8 °C 7,2 °C 6,4 km/h (2 Bft)
06.12.2018 17:55 7,2 °C 91 % 1022,0 hPa 0,0 mm 0,6 km/h (0 Bft) SW 229 ° 0 min 0,000 mm 0,0 UV-I 0 W/m² 5,8 °C 7,2 °C 1,6 km/h (1 Bft)
06.12.2018 17:56 7,2 °C 91 % 1022,0 hPa 0,0 mm 1,1 km/h (1 Bft) SW 227 ° 0 min 0,000 mm 0,0 UV-I 0 W/m² 5,8 °C 7,2 °C 3,2 km/h (1 Bft)
06.12.2018 17:57 7,2 °C 91 % 1022,0 hPa 0,0 mm 1,2 km/h (1 Bft) SW 227 ° 0 min 0,000 mm 0,0 UV-I 0 W/m² 5,8 °C 7,2 °C 4,8 km/h (1 Bft)
06.12.2018 17:58 7,2 °C 91 % 1022,0 hPa 0,0 mm 0,7 km/h (0 Bft) SW 227 ° 0 min 0,000 mm 0,0 UV-I 0 W/m² 5,8 °C 7,2 °C 3,2 km/h (1 Bft)
06.12.2018 17:59 7,2 °C 91 % 1022,0 hPa 0,0 mm 5,0 km/h (1 Bft) S-SW 207 ° 0 min 0,000 mm 0,0 UV-I 0 W/m² 5,8 °C 6,6 °C 6,4 km/h (2 Bft)
06.12.2018 18:00 7,1 °C 91 % 1021,9 hPa 0,0 mm 5,0 km/h (1 Bft) S-SW 208 ° 0 min 0,000 mm 0,0 UV-I 0 W/m² 5,7 °C 6,5 °C 8,0 km/h (2 Bft)
06.12.2018 18:01 7,1 °C 91 % 1021,8 hPa 0,0 mm 3,0 km/h (1 Bft) S-SW 205 ° 0 min 0,000 mm 0,0 UV-I 0 W/m² 5,7 °C 7,1 °C 8,0 km/h (2 Bft)
06.12.2018 18:02 7,1 °C 91 % 1021,8 hPa 0,0 mm 0,3 km/h (0 Bft) S-SW 205 ° 0 min 0,000 mm 0,0 UV-I 0 W/m² 5,7 °C 7,1 °C 1,6 km/h (1 Bft)
06.12.2018 18:03 7,1 °C 91 % 1021,8 hPa 0,0 mm 0,1 km/h (0 Bft) S-SW 205 ° 0 min 0,000 mm 0,0 UV-I 0 W/m² 5,7 °C 7,1 °C 1,6 km/h (1 Bft)
06.12.2018 18:04 7,1 °C 91 % 1021,9 hPa 0,0 mm 0,3 km/h (0 Bft) S-SW 205 ° 0 min 0,000 mm 0,0 UV-I 0 W/m² 5,7 °C 7,1 °C 1,6 km/h (1 Bft)
06.12.2018 18:05 7,1 °C 91 % 1022,0 hPa 0,0 mm 2,4 km/h (1 Bft) S-SW 205 ° 0 min 0,000 mm 0,0 UV-I 0 W/m² 5,7 °C 7,1 °C 3,2 km/h (1 Bft)
06.12.2018 18:06 7,1 °C 91 % 1021,9 hPa 0,0 mm 3,8 km/h (1 Bft) S-SW 205 ° 0 min 0,000 mm 0,0 UV-I 0 W/m² 5,7 °C 7,1 °C 4,8 km/h (1 Bft)
06.12.2018 18:07 7,0 °C 91 % 1021,9 hPa 0,0 mm 2,2 km/h (1 Bft) S-SW 198 ° 0 min 0,000 mm 0,0 UV-I 0 W/m² 5,6 °C 7,0 °C 4,8 km/h (1 Bft)
06.12.2018 18:08 7,0 °C 91 % 1021,9 hPa 0,0 mm 2,5 km/h (1 Bft) S-SW 198 ° 0 min 0,000 mm 0,0 UV-I 0 W/m² 5,6 °C 7,0 °C 4,8 km/h (1 Bft)
06.12.2018 18:09 7,0 °C 91 % 1021,9 hPa 0,0 mm 1,7 km/h (1 Bft) S-SW 198 ° 0 min 0,000 mm 0,0 UV-I 0 W/m² 5,6 °C 7,0 °C 3,2 km/h (1 Bft)
06.12.2018 18:10 6,9 °C 91 % 1021,9 hPa 0,0 mm 1,4 km/h (1 Bft) S-SW 198 ° 0 min 0,000 mm 0,0 UV-I 0 W/m² 5,5 °C 6,9 °C 4,8 km/h (1 Bft)
06.12.2018 18:11 6,9 °C 91 % 1021,8 hPa 0,0 mm 0,0 km/h (0 Bft) S-SW 198 ° 0 min 0,000 mm 0,0 UV-I 0 W/m² 5,5 °C 6,9 °C 0,0 km/h (0 Bft)
06.12.2018 18:12 6,9 °C 91 % 1021,9 hPa 0,0 mm 0,0 km/h (0 Bft) S-SW 198 ° 0 min 0,000 mm 0,0 UV-I 0 W/m² 5,5 °C 6,9 °C 0,0 km/h (0 Bft)
06.12.2018 18:13 6,9 °C 91 % 1021,8 hPa 0,0 mm 0,0 km/h (0 Bft) S-SW 198 ° 0 min 0,000 mm 0,0 UV-I 0 W/m² 5,5 °C 6,9 °C 0,0 km/h (0 Bft)
06.12.2018 18:14 6,9 °C 91 % 1021,8 hPa 0,0 mm 0,0 km/h (0 Bft) S-SW 198 ° 0 min 0,000 mm 0,0 UV-I 0 W/m² 5,5 °C 6,9 °C 0,0 km/h (0 Bft)
06.12.2018 18:15 6,9 °C 91 % 1021,9 hPa 0,0 mm 0,0 km/h (0 Bft) S-SW 198 ° 0 min 0,000 mm 0,0 UV-I 0 W/m² 5,5 °C 6,9 °C 0,0 km/h (0 Bft)
06.12.2018 18:16 6,8 °C 91 % 1021,8 hPa 0,0 mm 0,0 km/h (0 Bft) S-SW 198 ° 0 min 0,000 mm 0,0 UV-I 0 W/m² 5,4 °C 6,8 °C 0,0 km/h (0 Bft)
06.12.2018 18:17 6,8 °C 91 % 1021,8 hPa 0,0 mm 0,0 km/h (0 Bft) S-SW 198 ° 0 min 0,000 mm 0,0 UV-I 0 W/m² 5,4 °C 6,8 °C 0,0 km/h (0 Bft)
06.12.2018 18:18 6,8 °C 91 % 1021,8 hPa 0,0 mm 0,0 km/h (0 Bft) S-SW 198 ° 0 min 0,000 mm 0,0 UV-I 0 W/m² 5,4 °C 6,8 °C 0,0 km/h (0 Bft)
06.12.2018 18:19 6,8 °C 91 % 1021,8 hPa 0,0 mm 0,0 km/h (0 Bft) S-SW 198 ° 0 min 0,000 mm 0,0 UV-I 0 W/m² 5,4 °C 6,8 °C 0,0 km/h (0 Bft)
06.12.2018 18:20 6,8 °C 91 % 1021,8 hPa 0,0 mm 0,0 km/h (0 Bft) S-SW 198 ° 0 min 0,000 mm 0,0 UV-I 0 W/m² 5,4 °C 6,8 °C 0,0 km/h (0 Bft)
06.12.2018 18:21 6,8 °C 91 % 1021,8 hPa 0,0 mm 0,0 km/h (0 Bft) S-SW 198 ° 0 min 0,000 mm 0,0 UV-I 0 W/m² 5,4 °C 6,8 °C 0,0 km/h (0 Bft)
06.12.2018 18:22 6,8 °C 91 % 1021,8 hPa 0,0 mm 0,0 km/h (0 Bft) S-SW 198 ° 0 min 0,000 mm 0,0 UV-I 0 W/m² 5,4 °C 6,8 °C 0,0 km/h (0 Bft)
06.12.2018 18:23 6,8 °C 91 % 1021,9 hPa 0,0 mm 0,0 km/h (0 Bft) S-SW 198 ° 0 min 0,000 mm 0,0 UV-I 0 W/m² 5,4 °C 6,8 °C 0,0 km/h (0 Bft)
06.12.2018 18:24 6,8 °C 91 % 1021,9 hPa 0,0 mm 0,0 km/h (0 Bft) S-SW 198 ° 0 min 0,000 mm 0,0 UV-I 0 W/m² 5,4 °C 6,8 °C 0,0 km/h (0 Bft)
06.12.2018 18:25 6,8 °C 91 % 1021,9 hPa 0,0 mm 0,0 km/h (0 Bft) S-SW 198 ° 0 min 0,000 mm 0,0 UV-I 0 W/m² 5,4 °C 6,8 °C 0,0 km/h (0 Bft)
06.12.2018 18:26 6,8 °C 91 % 1021,9 hPa 0,0 mm 0,0 km/h (0 Bft) S-SW 198 ° 0 min 0,000 mm 0,0 UV-I 0 W/m² 5,4 °C 6,8 °C 0,0 km/h (0 Bft)
06.12.2018 18:27 6,7 °C 91 % 1021,9 hPa 0,0 mm 0,0 km/h (0 Bft) S-SW 198 ° 0 min 0,000 mm 0,0 UV-I 0 W/m² 5,3 °C 6,7 °C 0,0 km/h (0 Bft)
06.12.2018 18:28 6,7 °C 91 % 1021,9 hPa 0,0 mm 0,0 km/h (0 Bft) S-SW 198 ° 0 min 0,000 mm 0,0 UV-I 0 W/m² 5,3 °C 6,7 °C 0,0 km/h (0 Bft)
06.12.2018 18:29 6,7 °C 91 % 1021,9 hPa 0,0 mm 0,0 km/h (0 Bft) S-SW 198 ° 0 min 0,000 mm 0,0 UV-I 0 W/m² 5,3 °C 6,7 °C 0,0 km/h (0 Bft)
06.12.2018 18:30 6,7 °C 91 % 1021,9 hPa 0,0 mm 0,0 km/h (0 Bft) S-SW 198 ° 0 min 0,000 mm 0,0 UV-I 0 W/m² 5,3 °C 6,7 °C 0,0 km/h (0 Bft)
06.12.2018 18:31 6,6 °C 91 % 1022,0 hPa 0,0 mm 0,0 km/h (0 Bft) S-SW 198 ° 0 min 0,000 mm 0,0 UV-I 0 W/m² 5,2 °C 6,6 °C 0,0 km/h (0 Bft)
06.12.2018 18:32 6,6 °C 91 % 1022,0 hPa 0,0 mm 0,0 km/h (0 Bft) S-SW 198 ° 0 min 0,000 mm 0,0 UV-I 0 W/m² 5,2 °C 6,6 °C 0,0 km/h (0 Bft)
06.12.2018 18:33 6,6 °C 91 % 1022,0 hPa 0,0 mm 0,0 km/h (0 Bft) S-SW 198 ° 0 min 0,000 mm 0,0 UV-I 0 W/m² 5,2 °C 6,6 °C 0,0 km/h (0 Bft)
06.12.2018 18:34 6,6 °C 91 % 1022,0 hPa 0,0 mm 0,0 km/h (0 Bft) S-SW 198 ° 0 min 0,000 mm 0,0 UV-I 0 W/m² 5,2 °C 6,6 °C 0,0 km/h (0 Bft)
06.12.2018 18:35 6,5 °C 91 % 1022,0 hPa 0,0 mm 0,0 km/h (0 Bft) S-SW 198 ° 0 min 0,000 mm 0,0 UV-I 0 W/m² 5,1 °C 6,5 °C 0,0 km/h (0 Bft)
06.12.2018 18:36 6,5 °C 91 % 1022,0 hPa 0,0 mm 0,0 km/h (0 Bft) S-SW 198 ° 0 min 0,000 mm 0,0 UV-I 0 W/m² 5,1 °C 6,5 °C 0,0 km/h (0 Bft)
06.12.2018 18:37 6,4 °C 91 % 1022,0 hPa 0,0 mm 0,0 km/h (0 Bft) S-SW 198 ° 0 min 0,000 mm 0,0 UV-I 0 W/m² 5,0 °C 6,4 °C 0,0 km/h (0 Bft)
06.12.2018 18:38 6,4 °C 91 % 1022,0 hPa 0,0 mm 0,0 km/h (0 Bft) S-SW 198 ° 0 min 0,000 mm 0,0 UV-I 0 W/m² 5,0 °C 6,4 °C 0,0 km/h (0 Bft)
06.12.2018 18:39 6,4 °C 91 % 1022,0 hPa 0,0 mm 0,0 km/h (0 Bft) S-SW 198 ° 0 min 0,000 mm 0,0 UV-I 0 W/m² 5,0 °C 6,4 °C 0,0 km/h (0 Bft)
06.12.2018 18:40 6,4 °C 91 % 1022,0 hPa 0,0 mm 0,0 km/h (0 Bft) S-SW 198 ° 0 min 0,000 mm 0,0 UV-I 0 W/m² 5,0 °C 6,4 °C 0,0 km/h (0 Bft)
06.12.2018 18:41 6,4 °C 91 % 1022,0 hPa 0,0 mm 0,0 km/h (0 Bft) S-SW 198 ° 0 min 0,000 mm 0,0 UV-I 0 W/m² 5,0 °C 6,4 °C 0,0 km/h (0 Bft)
06.12.2018 18:42 6,4 °C 91 % 1022,1 hPa 0,0 mm 0,0 km/h (0 Bft) S-SW 198 ° 0 min 0,000 mm 0,0 UV-I 0 W/m² 5,0 °C 6,4 °C 0,0 km/h (0 Bft)
06.12.2018 18:43 6,4 °C 91 % 1022,2 hPa 0,0 mm 0,0 km/h (0 Bft) S-SW 198 ° 0 min 0,000 mm 0,0 UV-I 0 W/m² 5,0 °C 6,4 °C 0,0 km/h (0 Bft)
06.12.2018 18:44 6,3 °C 91 % 1022,2 hPa 0,0 mm 0,0 km/h (0 Bft) S-SW 198 ° 0 min 0,000 mm 0,0 UV-I 0 W/m² 4,9 °C 6,3 °C 0,0 km/h (0 Bft)
06.12.2018 18:45 6,3 °C 91 % 1022,1 hPa 0,0 mm 0,0 km/h (0 Bft) S-SW 198 ° 0 min 0,000 mm 0,0 UV-I 0 W/m² 4,9 °C 6,3 °C 0,0 km/h (0 Bft)
06.12.2018 18:46 6,3 °C 91 % 1022,2 hPa 0,0 mm 0,0 km/h (0 Bft) S-SW 198 ° 0 min 0,000 mm 0,0 UV-I 0 W/m² 4,9 °C 6,3 °C 0,0 km/h (0 Bft)
06.12.2018 18:47 6,3 °C 91 % 1022,2 hPa 0,0 mm 0,0 km/h (0 Bft) S-SW 198 ° 0 min 0,000 mm 0,0 UV-I 0 W/m² 4,9 °C 6,3 °C 0,0 km/h (0 Bft)
06.12.2018 18:48 6,3 °C 91 % 1022,2 hPa 0,0 mm 0,0 km/h (0 Bft) S-SW 198 ° 0 min 0,000 mm 0,0 UV-I 0 W/m² 4,9 °C 6,3 °C 0,0 km/h (0 Bft)
06.12.2018 18:49 6,3 °C 91 % 1022,2 hPa 0,0 mm 0,0 km/h (0 Bft) S-SW 198 ° 0 min 0,000 mm 0,0 UV-I 0 W/m² 4,9 °C 6,3 °C 0,0 km/h (0 Bft)
06.12.2018 18:50 6,2 °C 91 % 1022,1 hPa 0,0 mm 0,0 km/h (0 Bft) S-SW 198 ° 0 min 0,000 mm 0,0 UV-I 0 W/m² 4,8 °C 6,2 °C 0,0 km/h (0 Bft)
06.12.2018 18:51 6,2 °C 91 % 1022,1 hPa 0,0 mm 0,0 km/h (0 Bft) S-SW 198 ° 0 min 0,000 mm 0,0 UV-I 0 W/m² 4,8 °C 6,2 °C 0,0 km/h (0 Bft)
06.12.2018 18:52 6,2 °C 91 % 1022,2 hPa 0,0 mm 0,0 km/h (0 Bft) S-SW 198 ° 0 min 0,000 mm 0,0 UV-I 0 W/m² 4,8 °C 6,2 °C 0,0 km/h (0 Bft)
06.12.2018 18:53 6,2 °C 91 % 1022,1 hPa 0,0 mm 0,0 km/h (0 Bft) S-SW 198 ° 0 min 0,000 mm 0,0 UV-I 0 W/m² 4,8 °C 6,2 °C 0,0 km/h (0 Bft)
06.12.2018 18:54 6,2 °C 91 % 1022,1 hPa 0,0 mm 0,0 km/h (0 Bft) S-SW 198 ° 0 min 0,000 mm 0,0 UV-I 0 W/m² 4,8 °C 6,2 °C 0,0 km/h (0 Bft)
06.12.2018 18:55 6,2 °C 91 % 1022,2 hPa 0,0 mm 0,0 km/h (0 Bft) S-SW 198 ° 0 min 0,000 mm 0,0 UV-I 0 W/m² 4,8 °C 6,2 °C 0,0 km/h (0 Bft)
06.12.2018 18:56 6,2 °C 91 % 1022,2 hPa 0,0 mm 0,0 km/h (0 Bft) S-SW 198 ° 0 min 0,000 mm 0,0 UV-I 0 W/m² 4,8 °C 6,2 °C 0,0 km/h (0 Bft)
06.12.2018 18:57 6,1 °C 91 % 1022,2 hPa 0,0 mm 0,0 km/h (0 Bft) S-SW 198 ° 0 min 0,000 mm 0,0 UV-I 0 W/m² 4,7 °C 6,1 °C 0,0 km/h (0 Bft)
06.12.2018 18:58 6,1 °C 91 % 1022,2 hPa 0,0 mm 0,0 km/h (0 Bft) S-SW 198 ° 0 min 0,000 mm 0,0 UV-I 0 W/m² 4,7 °C 6,1 °C 0,0 km/h (0 Bft)
06.12.2018 18:59 6,1 °C 92 % 1022,3 hPa 0,0 mm 3,2 km/h (1 Bft) S-SW 198 ° 0 min 0,000 mm 0,0 UV-I 0 W/m² 4,9 °C 6,1 °C 4,8 km/h (1 Bft)
06.12.2018 19:00 6,1 °C 91 % 1022,3 hPa 0,0 mm 1,3 km/h (1 Bft) S-SW 198 ° 0 min 0,000 mm 0,0 UV-I 0 W/m² 4,7 °C 6,1 °C 3,2 km/h (1 Bft)
06.12.2018 19:01 6,1 °C 92 % 1022,3 hPa 0,0 mm 1,0 km/h (0 Bft) S-SW 198 ° 0 min 0,000 mm 0,0 UV-I 0 W/m² 4,9 °C 6,1 °C 3,2 km/h (1 Bft)
06.12.2018 19:02 6,2 °C 92 % 1022,4 hPa 0,0 mm 3,5 km/h (1 Bft) S-SW 207 ° 0 min 0,000 mm 0,0 UV-I 0 W/m² 5,0 °C 6,2 °C 6,4 km/h (2 Bft)
06.12.2018 19:03 6,2 °C 92 % 1022,3 hPa 0,0 mm 1,4 km/h (1 Bft) S-SW 204 ° 0 min 0,000 mm 0,0 UV-I 0 W/m² 5,0 °C 6,2 °C 3,2 km/h (1 Bft)
06.12.2018 19:04 6,2 °C 92 % 1022,3 hPa 0,0 mm 1,5 km/h (1 Bft) S-SW 204 ° 0 min 0,000 mm 0,0 UV-I 0 W/m² 5,0 °C 6,2 °C 3,2 km/h (1 Bft)
06.12.2018 19:05 6,3 °C 92 % 1022,3 hPa 0,0 mm 2,8 km/h (1 Bft) SW 235 ° 0 min 0,000 mm 0,0 UV-I 0 W/m² 5,1 °C 6,3 °C 4,8 km/h (1 Bft)
06.12.2018 19:06 6,3 °C 92 % 1022,3 hPa 0,0 mm 3,8 km/h (1 Bft) SW 227 ° 0 min 0,000 mm 0,0 UV-I 0 W/m² 5,1 °C 6,3 °C 6,4 km/h (2 Bft)
06.12.2018 19:07 6,4 °C 92 % 1022,3 hPa 0,0 mm 3,2 km/h (1 Bft) W-SW 247 ° 0 min 0,000 mm 0,0 UV-I 0 W/m² 5,2 °C 6,4 °C 6,4 km/h (2 Bft)
06.12.2018 19:08 6,4 °C 92 % 1022,3 hPa 0,0 mm 1,6 km/h (1 Bft) W-SW 250 ° 0 min 0,000 mm 0,0 UV-I 0 W/m² 5,2 °C 6,4 °C 3,2 km/h (1 Bft)
06.12.2018 19:09 6,5 °C 92 % 1022,3 hPa 0,0 mm 0,8 km/h (0 Bft) W-SW 250 ° 0 min 0,000 mm 0,0 UV-I 0 W/m² 5,3 °C 6,5 °C 3,2 km/h (1 Bft)
06.12.2018 19:10 6,5 °C 92 % 1022,3 hPa 0,0 mm 3,6 km/h (1 Bft) SW 223 ° 0 min 0,000 mm 0,0 UV-I 0 W/m² 5,3 °C 6,5 °C 6,4 km/h (2 Bft)
06.12.2018 19:11 6,5 °C 92 % 1022,3 hPa 0,0 mm 4,4 km/h (1 Bft) S-SW 198 ° 0 min 0,000 mm 0,0 UV-I 0 W/m² 5,3 °C 6,5 °C 6,4 km/h (2 Bft)
06.12.2018 19:12 6,6 °C 92 % 1022,2 hPa 0,0 mm 4,6 km/h (1 Bft) S-SW 198 ° 0 min 0,000 mm 0,0 UV-I 0 W/m² 5,4 °C 6,0 °C 6,4 km/h (2 Bft)
06.12.2018 19:13 6,7 °C 92 % 1022,2 hPa 0,0 mm 4,9 km/h (1 Bft) S-SW 194 ° 0 min 0,000 mm 0,0 UV-I 0 W/m² 5,5 °C 6,0 °C 9,7 km/h (2 Bft)
06.12.2018 19:14 6,7 °C 92 % 1022,2 hPa 0,0 mm 6,0 km/h (2 Bft) W-SW 240 ° 0 min 0,000 mm 0,0 UV-I 0 W/m² 5,5 °C 5,7 °C 11,3 km/h (2 Bft)
06.12.2018 19:15 6,7 °C 92 % 1022,2 hPa 0,0 mm 3,2 km/h (1 Bft) SW 221 ° 0 min 0,000 mm 0,0 UV-I 0 W/m² 5,5 °C 6,7 °C 6,4 km/h (2 Bft)
06.12.2018 19:16 6,7 °C 92 % 1022,2 hPa 0,0 mm 3,4 km/h (1 Bft) W-SW 258 ° 0 min 0,000 mm 0,0 UV-I 0 W/m² 5,5 °C 6,7 °C 4,8 km/h (1 Bft)
06.12.2018 19:17 6,8 °C 92 % 1022,3 hPa 0,0 mm 3,2 km/h (1 Bft) S-SW 209 ° 0 min 0,000 mm 0,0 UV-I 0 W/m² 5,6 °C 6,8 °C 8,0 km/h (2 Bft)
06.12.2018 19:18 6,8 °C 92 % 1022,2 hPa 0,0 mm 3,6 km/h (1 Bft) SW 234 ° 0 min 0,000 mm 0,0 UV-I 0 W/m² 5,6 °C 6,8 °C 4,8 km/h (1 Bft)
06.12.2018 19:19 6,8 °C 92 % 1022,3 hPa 0,0 mm 4,5 km/h (1 Bft) SW 215 ° 0 min 0,000 mm 0,0 UV-I 0 W/m² 5,6 °C 6,8 °C 6,4 km/h (2 Bft)
06.12.2018 19:20 6,9 °C 92 % 1022,3 hPa 0,0 mm 2,1 km/h (1 Bft) SW 215 ° 0 min 0,000 mm 0,0 UV-I 0 W/m² 5,7 °C 6,9 °C 4,8 km/h (1 Bft)
06.12.2018 19:21 6,9 °C 91 % 1022,3 hPa 0,0 mm 3,2 km/h (1 Bft) S-SW 203 ° 0 min 0,000 mm 0,0 UV-I 0 W/m² 5,5 °C 6,9 °C 4,8 km/h (1 Bft)
06.12.2018 19:22 6,9 °C 91 % 1022,3 hPa 0,0 mm 3,8 km/h (1 Bft) SW 223 ° 0 min 0,000 mm 0,0 UV-I 0 W/m² 5,5 °C 6,9 °C 6,4 km/h (2 Bft)
06.12.2018 19:23 6,9 °C 91 % 1022,4 hPa 0,0 mm 2,2 km/h (1 Bft) SW 223 ° 0 min 0,000 mm 0,0 UV-I 0 W/m² 5,5 °C 6,9 °C 4,8 km/h (1 Bft)
06.12.2018 19:24 6,9 °C 91 % 1022,4 hPa 0,0 mm 2,6 km/h (1 Bft) SW 223 ° 0 min 0,000 mm 0,0 UV-I 0 W/m² 5,5 °C 6,9 °C 3,2 km/h (1 Bft)
06.12.2018 19:25 6,9 °C 91 % 1022,4 hPa 0,0 mm 4,6 km/h (1 Bft) S-SW 200 ° 0 min 0,000 mm 0,0 UV-I 0 W/m² 5,5 °C 6,4 °C 6,4 km/h (2 Bft)
06.12.2018 19:26 7,0 °C 91 % 1022,4 hPa 0,0 mm 3,4 km/h (1 Bft) S-SW 192 ° 0 min 0,000 mm 0,0 UV-I 0 W/m² 5,6 °C 7,0 °C 4,8 km/h (1 Bft)
06.12.2018 19:27 7,1 °C 91 % 1022,4 hPa 0,0 mm 3,2 km/h (1 Bft) S-SW 192 ° 0 min 0,000 mm 0,0 UV-I 0 W/m² 5,7 °C 7,1 °C 4,8 km/h (1 Bft)
06.12.2018 19:28 7,1 °C 90 % 1022,4 hPa 0,0 mm 4,2 km/h (1 Bft) S-SW 205 ° 0 min 0,000 mm 0,0 UV-I 0 W/m² 5,6 °C 7,1 °C 8,0 km/h (2 Bft)
06.12.2018 19:29 7,1 °C 90 % 1022,4 hPa 0,0 mm 3,2 km/h (1 Bft) S-SW 203 ° 0 min 0,000 mm 0,0 UV-I 0 W/m² 5,6 °C 7,1 °C 6,4 km/h (2 Bft)
06.12.2018 19:30 7,1 °C 90 % 1022,4 hPa 0,0 mm 4,1 km/h (1 Bft) S-SW 200 ° 0 min 0,000 mm 0,0 UV-I 0 W/m² 5,6 °C 7,1 °C 6,4 km/h (2 Bft)
06.12.2018 19:31 7,1 °C 90 % 1022,4 hPa 0,0 mm 3,3 km/h (1 Bft) S-SW 207 ° 0 min 0,000 mm 0,0 UV-I 0 W/m² 5,6 °C 7,1 °C 6,4 km/h (2 Bft)
06.12.2018 19:32 7,1 °C 90 % 1022,4 hPa 0,0 mm 3,0 km/h (1 Bft) S 191 ° 0 min 0,000 mm 0,0 UV-I 0 W/m² 5,6 °C 7,1 °C 6,4 km/h (2 Bft)
06.12.2018 19:33 7,1 °C 90 % 1022,4 hPa 0,0 mm 2,0 km/h (1 Bft) SW 221 ° 0 min 0,000 mm 0,0 UV-I 0 W/m² 5,6 °C 7,1 °C 6,4 km/h (2 Bft)
06.12.2018 19:34 7,1 °C 90 % 1022,4 hPa 0,0 mm 5,2 km/h (1 Bft) SW 217 ° 0 min 0,000 mm 0,0 UV-I 0 W/m² 5,6 °C 6,4 °C 11,3 km/h (2 Bft)
06.12.2018 19:35 7,1 °C 90 % 1022,4 hPa 0,0 mm 3,2 km/h (1 Bft) SW 233 ° 0 min 0,000 mm 0,0 UV-I 0 W/m² 5,6 °C 7,1 °C 4,8 km/h (1 Bft)
06.12.2018 19:36 7,1 °C 90 % 1022,4 hPa 0,0 mm 2,1 km/h (1 Bft) S-SW 202 ° 0 min 0,000 mm 0,0 UV-I 0 W/m² 5,6 °C 7,1 °C 4,8 km/h (1 Bft)
06.12.2018 19:37 7,2 °C 90 % 1022,4 hPa 0,0 mm 4,5 km/h (1 Bft) S-SW 202 ° 0 min 0,000 mm 0,0 UV-I 0 W/m² 5,7 °C 7,2 °C 6,4 km/h (2 Bft)
06.12.2018 19:38 7,2 °C 89 % 1022,4 hPa 0,0 mm 3,5 km/h (1 Bft) S-SW 204 ° 0 min 0,000 mm 0,0 UV-I 0 W/m² 5,5 °C 7,2 °C 4,8 km/h (1 Bft)
06.12.2018 19:39 7,2 °C 89 % 1022,4 hPa 0,0 mm 4,1 km/h (1 Bft) S-SW 203 ° 0 min 0,000 mm 0,0 UV-I 0 W/m² 5,5 °C 7,2 °C 8,0 km/h (2 Bft)
06.12.2018 19:40 7,2 °C 89 % 1022,5 hPa 0,0 mm 2,2 km/h (1 Bft) S-SW 198 ° 0 min 0,000 mm 0,0 UV-I 0 W/m² 5,5 °C 7,2 °C 4,8 km/h (1 Bft)
06.12.2018 19:41 7,2 °C 89 % 1022,5 hPa 0,0 mm 3,8 km/h (1 Bft) W-SW 240 ° 0 min 0,000 mm 0,0 UV-I 0 W/m² 5,5 °C 7,2 °C 6,4 km/h (2 Bft)
06.12.2018 19:42 7,2 °C 89 % 1022,5 hPa 0,0 mm 3,4 km/h (1 Bft) W-NW 299 ° 0 min 0,000 mm 0,0 UV-I 0 W/m² 5,5 °C 7,2 °C 6,4 km/h (2 Bft)
06.12.2018 19:43 7,2 °C 89 % 1022,5 hPa 0,0 mm 3,4 km/h (1 Bft) S-SW 213 ° 0 min 0,000 mm 0,0 UV-I 0 W/m² 5,5 °C 7,2 °C 9,7 km/h (2 Bft)
06.12.2018 19:44 7,2 °C 89 % 1022,4 hPa 0,0 mm 3,6 km/h (1 Bft) S-SW 202 ° 0 min 0,000 mm 0,0 UV-I 0 W/m² 5,5 °C 7,2 °C 6,4 km/h (2 Bft)
06.12.2018 19:45 7,2 °C 89 % 1022,4 hPa 0,0 mm 3,1 km/h (1 Bft) S-SW 209 ° 0 min 0,000 mm 0,0 UV-I 0 W/m² 5,5 °C 7,2 °C 4,8 km/h (1 Bft)
06.12.2018 19:46 7,2 °C 89 % 1022,4 hPa 0,0 mm 1,6 km/h (1 Bft) S-SW 208 ° 0 min 0,000 mm 0,0 UV-I 0 W/m² 5,5 °C 7,2 °C 3,2 km/h (1 Bft)
06.12.2018 19:47 7,2 °C 89 % 1022,4 hPa 0,0 mm 3,0 km/h (1 Bft) SW 220 ° 0 min 0,000 mm 0,0 UV-I 0 W/m² 5,5 °C 7,2 °C 4,8 km/h (1 Bft)
06.12.2018 19:48 7,2 °C 89 % 1022,4 hPa 0,0 mm 1,0 km/h (0 Bft) SW 215 ° 0 min 0,000 mm 0,0 UV-I 0 W/m² 5,5 °C 7,2 °C 3,2 km/h (1 Bft)
06.12.2018 19:49 7,2 °C 89 % 1022,4 hPa 0,0 mm 1,3 km/h (1 Bft) SW 215 ° 0 min 0,000 mm 0,0 UV-I 0 W/m² 5,5 °C 7,2 °C 3,2 km/h (1 Bft)
06.12.2018 19:50 7,2 °C 88 % 1022,4 hPa 0,0 mm 2,6 km/h (1 Bft) W-SW 238 ° 0 min 0,000 mm 0,0 UV-I 0 W/m² 5,3 °C 7,2 °C 4,8 km/h (1 Bft)
06.12.2018 19:51 7,2 °C 89 % 1022,4 hPa 0,0 mm 4,3 km/h (1 Bft) W 264 ° 0 min 0,000 mm 0,0 UV-I 0 W/m² 5,5 °C 7,2 °C 4,8 km/h (1 Bft)
06.12.2018 19:52 7,2 °C 88 % 1022,4 hPa 0,0 mm 1,8 km/h (1 Bft) W 266 ° 0 min 0,000 mm 0,0 UV-I 0 W/m² 5,3 °C 7,2 °C 3,2 km/h (1 Bft)
06.12.2018 19:53 7,2 °C 88 % 1022,4 hPa 0,0 mm 3,5 km/h (1 Bft) W 267 ° 0 min 0,000 mm 0,0 UV-I 0 W/m² 5,3 °C 7,2 °C 4,8 km/h (1 Bft)
06.12.2018 19:54 7,2 °C 88 % 1022,4 hPa 0,0 mm 4,0 km/h (1 Bft) W 267 ° 0 min 0,000 mm 0,0 UV-I 0 W/m² 5,3 °C 7,2 °C 4,8 km/h (1 Bft)
06.12.2018 19:55 7,2 °C 88 % 1022,4 hPa 0,0 mm 3,1 km/h (1 Bft) W 267 ° 0 min 0,000 mm 0,0 UV-I 0 W/m² 5,3 °C 7,2 °C 4,8 km/h (1 Bft)
06.12.2018 19:56 7,1 °C 88 % 1022,4 hPa 0,0 mm 3,3 km/h (1 Bft) W 267 ° 0 min 0,000 mm 0,0 UV-I 0 W/m² 5,2 °C 7,1 °C 4,8 km/h (1 Bft)
06.12.2018 19:57 7,1 °C 88 % 1022,4 hPa 0,0 mm 1,3 km/h (1 Bft) W 267 ° 0 min 0,000 mm 0,0 UV-I 0 W/m² 5,2 °C 7,1 °C 3,2 km/h (1 Bft)
06.12.2018 19:58 7,1 °C 88 % 1022,4 hPa 0,0 mm 0,0 km/h (0 Bft) W 267 ° 0 min 0,000 mm 0,0 UV-I 0 W/m² 5,2 °C 7,1 °C 0,0 km/h (0 Bft)
06.12.2018 19:59 7,1 °C 88 % 1022,4 hPa 0,0 mm 0,0 km/h (0 Bft) W 267 ° 0 min 0,000 mm 0,0 UV-I 0 W/m² 5,2 °C 7,1 °C 0,0 km/h (0 Bft)
06.12.2018 20:00 7,1 °C 88 % 1022,4 hPa 0,0 mm 0,0 km/h (0 Bft) W 267 ° 0 min 0,000 mm 0,0 UV-I 0 W/m² 5,2 °C 7,1 °C 0,0 km/h (0 Bft)
06.12.2018 20:01 7,0 °C 88 % 1022,4 hPa 0,0 mm 2,0 km/h (1 Bft) W 267 ° 0 min 0,000 mm 0,0 UV-I 0 W/m² 5,2 °C 7,0 °C 4,8 km/h (1 Bft)
06.12.2018 20:02 7,0 °C 88 % 1022,4 hPa 0,0 mm 2,5 km/h (1 Bft) W 267 ° 0 min 0,000 mm 0,0 UV-I 0 W/m² 5,2 °C 7,0 °C 4,8 km/h (1 Bft)
06.12.2018 20:03 6,9 °C 88 % 1022,5 hPa 0,0 mm 2,3 km/h (1 Bft) W 267 ° 0 min 0,000 mm 0,0 UV-I 0 W/m² 5,1 °C 6,9 °C 3,2 km/h (1 Bft)
06.12.2018 20:04 6,9 °C 88 % 1022,5 hPa 0,0 mm 3,0 km/h (1 Bft) W 267 ° 0 min 0,000 mm 0,0 UV-I 0 W/m² 5,1 °C 6,9 °C 4,8 km/h (1 Bft)
06.12.2018 20:05 6,9 °C 88 % 1022,5 hPa 0,0 mm 1,8 km/h (1 Bft) W 267 ° 0 min 0,000 mm 0,0 UV-I 0 W/m² 5,1 °C 6,9 °C 4,8 km/h (1 Bft)
06.12.2018 20:06 6,9 °C 88 % 1022,5 hPa 0,0 mm 3,2 km/h (1 Bft) W 267 ° 0 min 0,000 mm 0,0 UV-I 0 W/m² 5,1 °C 6,9 °C 4,8 km/h (1 Bft)
06.12.2018 20:07 6,9 °C 88 % 1022,5 hPa 0,0 mm 2,9 km/h (1 Bft) W 267 ° 0 min 0,000 mm 0,0 UV-I 0 W/m² 5,1 °C 6,9 °C 4,8 km/h (1 Bft)
06.12.2018 20:08 6,8 °C 89 % 1022,5 hPa 0,0 mm 2,0 km/h (1 Bft) W 267 ° 0 min 0,000 mm 0,0 UV-I 0 W/m² 5,1 °C 6,8 °C 3,2 km/h (1 Bft)
06.12.2018 20:09 6,9 °C 89 % 1022,5 hPa 0,0 mm 2,1 km/h (1 Bft) W 267 ° 0 min 0,000 mm 0,0 UV-I 0 W/m² 5,2 °C 6,9 °C 3,2 km/h (1 Bft)
06.12.2018 20:10 6,9 °C 89 % 1022,5 hPa 0,0 mm 2,1 km/h (1 Bft) W 267 ° 0 min 0,000 mm 0,0 UV-I 0 W/m² 5,2 °C 6,9 °C 3,2 km/h (1 Bft)
06.12.2018 20:11 6,8 °C 89 % 1022,5 hPa 0,0 mm 3,7 km/h (1 Bft) W 267 ° 0 min 0,000 mm 0,0 UV-I 0 W/m² 5,1 °C 6,8 °C 6,4 km/h (2 Bft)
06.12.2018 20:12 6,8 °C 89 % 1022,4 hPa 0,0 mm 4,6 km/h (1 Bft) S-SW 200 ° 0 min 0,000 mm 0,0 UV-I 0 W/m² 5,1 °C 6,3 °C 6,4 km/h (2 Bft)
06.12.2018 20:13 6,8 °C 89 % 1022,5 hPa 0,0 mm 2,9 km/h (1 Bft) S-SW 200 ° 0 min 0,000 mm 0,0 UV-I 0 W/m² 5,1 °C 6,8 °C 4,8 km/h (1 Bft)
06.12.2018 20:14 6,8 °C 89 % 1022,4 hPa 0,0 mm 5,4 km/h (1 Bft) S 187 ° 0 min 0,000 mm 0,0 UV-I 0 W/m² 5,1 °C 6,0 °C 8,0 km/h (2 Bft)
06.12.2018 20:15 6,8 °C 89 % 1022,4 hPa 0,0 mm 4,4 km/h (1 Bft) S-SW 202 ° 0 min 0,000 mm 0,0 UV-I 0 W/m² 5,1 °C 6,8 °C 8,0 km/h (2 Bft)
06.12.2018 20:16 6,8 °C 89 % 1022,4 hPa 0,0 mm 2,1 km/h (1 Bft) S-SW 202 ° 0 min 0,000 mm 0,0 UV-I 0 W/m² 5,1 °C 6,8 °C 4,8 km/h (1 Bft)
06.12.2018 20:17 6,7 °C 89 % 1022,5 hPa 0,0 mm 2,2 km/h (1 Bft) S-SW 202 ° 0 min 0,000 mm 0,0 UV-I 0 W/m² 5,0 °C 6,7 °C 4,8 km/h (1 Bft)
06.12.2018 20:18 6,7 °C 89 % 1022,4 hPa 0,0 mm 1,8 km/h (1 Bft) S-SW 202 ° 0 min 0,000 mm 0,0 UV-I 0 W/m² 5,0 °C 6,7 °C 4,8 km/h (1 Bft)
06.12.2018 20:19 6,7 °C 89 % 1022,4 hPa 0,0 mm 0,0 km/h (0 Bft) S-SW 202 ° 0 min 0,000 mm 0,0 UV-I 0 W/m² 5,0 °C 6,7 °C 0,0 km/h (0 Bft)
06.12.2018 20:20 6,7 °C 89 % 1022,4 hPa 0,0 mm 0,4 km/h (0 Bft) S-SW 202 ° 0 min 0,000 mm 0,0 UV-I 0 W/m² 5,0 °C 6,7 °C 1,6 km/h (1 Bft)
06.12.2018 20:21 6,7 °C 89 % 1022,3 hPa 0,0 mm 0,1 km/h (0 Bft) S-SW 202 ° 0 min 0,000 mm 0,0 UV-I 0 W/m² 5,0 °C 6,7 °C 1,6 km/h (1 Bft)
06.12.2018 20:22 6,7 °C 89 % 1022,3 hPa 0,0 mm 0,0 km/h (0 Bft) S-SW 202 ° 0 min 0,000 mm 0,0 UV-I 0 W/m² 5,0 °C 6,7 °C 0,0 km/h (0 Bft)
06.12.2018 20:23 6,6 °C 89 % 1022,3 hPa 0,0 mm 0,0 km/h (0 Bft) S-SW 202 ° 0 min 0,000 mm 0,0 UV-I 0 W/m² 4,9 °C 6,6 °C 0,0 km/h (0 Bft)
06.12.2018 20:24 6,6 °C 89 % 1022,3 hPa 0,0 mm 0,8 km/h (0 Bft) S-SW 202 ° 0 min 0,000 mm 0,0 UV-I 0 W/m² 4,9 °C 6,6 °C 3,2 km/h (1 Bft)
06.12.2018 20:25 6,6 °C 89 % 1022,2 hPa 0,0 mm 0,1 km/h (0 Bft) S-SW 202 ° 0 min 0,000 mm 0,0 UV-I 0 W/m² 4,9 °C 6,6 °C 1,6 km/h (1 Bft)
06.12.2018 20:26 6,6 °C 89 % 1022,2 hPa 0,0 mm 0,0 km/h (0 Bft) S-SW 202 ° 0 min 0,000 mm 0,0 UV-I 0 W/m² 4,9 °C 6,6 °C 0,0 km/h (0 Bft)
06.12.2018 20:27 6,6 °C 89 % 1022,2 hPa 0,0 mm 0,0 km/h (0 Bft) S-SW 202 ° 0 min 0,000 mm 0,0 UV-I 0 W/m² 4,9 °C 6,6 °C 0,0 km/h (0 Bft)
06.12.2018 20:28 6,6 °C 89 % 1022,1 hPa 0,0 mm 0,0 km/h (0 Bft) S-SW 202 ° 0 min 0,000 mm 0,0 UV-I 0 W/m² 4,9 °C 6,6 °C 0,0 km/h (0 Bft)
06.12.2018 20:29 6,5 °C 89 % 1022,1 hPa 0,0 mm 0,0 km/h (0 Bft) S-SW 202 ° 0 min 0,000 mm 0,0 UV-I 0 W/m² 4,8 °C 6,5 °C 0,0 km/h (0 Bft)
06.12.2018 20:30 6,5 °C 89 % 1022,2 hPa 0,0 mm 0,0 km/h (0 Bft) S-SW 205 ° 0 min 0,000 mm 0,0 UV-I 0 W/m² 4,8 °C 6,5 °C 0,0 km/h (0 Bft)
06.12.2018 20:31 6,5 °C 89 % 1022,1 hPa 0,0 mm 0,0 km/h (0 Bft) S-SW 205 ° 0 min 0,000 mm 0,0 UV-I 0 W/m² 4,8 °C 6,5 °C 0,0 km/h (0 Bft)
06.12.2018 20:32 6,5 °C 89 % 1022,1 hPa 0,0 mm 0,0 km/h (0 Bft) S-SW 205 ° 0 min 0,000 mm 0,0 UV-I 0 W/m² 4,8 °C 6,5 °C 0,0 km/h (0 Bft)
06.12.2018 20:33 6,4 °C 89 % 1022,1 hPa 0,0 mm 0,0 km/h (0 Bft) S-SW 205 ° 0 min 0,000 mm 0,0 UV-I 0 W/m² 4,7 °C 6,4 °C 0,0 km/h (0 Bft)
06.12.2018 20:34 6,4 °C 89 % 1022,1 hPa 0,0 mm 0,0 km/h (0 Bft) S-SW 205 ° 0 min 0,000 mm 0,0 UV-I 0 W/m² 4,7 °C 6,4 °C 0,0 km/h (0 Bft)
06.12.2018 20:35 6,4 °C 89 % 1022,1 hPa 0,0 mm 0,0 km/h (0 Bft) S-SW 205 ° 0 min 0,000 mm 0,0 UV-I 0 W/m² 4,7 °C 6,4 °C 0,0 km/h (0 Bft)
06.12.2018 20:36 6,4 °C 89 % 1022,2 hPa 0,0 mm 0,0 km/h (0 Bft) S-SW 205 ° 0 min 0,000 mm 0,0 UV-I 0 W/m² 4,7 °C 6,4 °C 0,0 km/h (0 Bft)
06.12.2018 20:37 6,3 °C 89 % 1022,2 hPa 0,0 mm 0,0 km/h (0 Bft) S-SW 205 ° 0 min 0,000 mm 0,0 UV-I 0 W/m² 4,6 °C 6,3 °C 0,0 km/h (0 Bft)
06.12.2018 20:38 6,3 °C 89 % 1022,2 hPa 0,0 mm 0,0 km/h (0 Bft) S-SW 205 ° 0 min 0,000 mm 0,0 UV-I 0 W/m² 4,6 °C 6,3 °C 0,0 km/h (0 Bft)
06.12.2018 20:39 6,3 °C 89 % 1022,2 hPa 0,0 mm 0,0 km/h (0 Bft) S-SW 205 ° 0 min 0,000 mm 0,0 UV-I 0 W/m² 4,6 °C 6,3 °C 0,0 km/h (0 Bft)
06.12.2018 20:40 6,3 °C 89 % 1022,2 hPa 0,0 mm 0,0 km/h (0 Bft) S-SW 205 ° 0 min 0,000 mm 0,0 UV-I 0 W/m² 4,6 °C 6,3 °C 0,0 km/h (0 Bft)
06.12.2018 20:41 6,2 °C 89 % 1022,2 hPa 0,0 mm 0,0 km/h (0 Bft) S-SW 205 ° 0 min 0,000 mm 0,0 UV-I 0 W/m² 4,5 °C 6,2 °C 0,0 km/h (0 Bft)
06.12.2018 20:42 6,2 °C 89 % 1022,2 hPa 0,0 mm 0,0 km/h (0 Bft) S-SW 205 ° 0 min 0,000 mm 0,0 UV-I 0 W/m² 4,5 °C 6,2 °C 0,0 km/h (0 Bft)
06.12.2018 20:43 6,2 °C 89 % 1022,2 hPa 0,0 mm 0,0 km/h (0 Bft) S-SW 205 ° 0 min 0,000 mm 0,0 UV-I 0 W/m² 4,5 °C 6,2 °C 0,0 km/h (0 Bft)
06.12.2018 20:44 6,2 °C 89 % 1022,2 hPa 0,0 mm 0,0 km/h (0 Bft) S-SW 205 ° 0 min 0,000 mm 0,0 UV-I 0 W/m² 4,5 °C 6,2 °C 0,0 km/h (0 Bft)
06.12.2018 20:45 6,2 °C 89 % 1022,2 hPa 0,0 mm 0,0 km/h (0 Bft) S-SW 205 ° 0 min 0,000 mm 0,0 UV-I 0 W/m² 4,5 °C 6,2 °C 0,0 km/h (0 Bft)
06.12.2018 20:46 6,1 °C 89 % 1022,2 hPa 0,0 mm 0,0 km/h (0 Bft) S-SW 205 ° 0 min 0,000 mm 0,0 UV-I 0 W/m² 4,4 °C 6,1 °C 0,0 km/h (0 Bft)
06.12.2018 20:47 6,1 °C 89 % 1022,2 hPa 0,0 mm 0,0 km/h (0 Bft) S-SW 205 ° 0 min 0,000 mm 0,0 UV-I 0 W/m² 4,4 °C 6,1 °C 0,0 km/h (0 Bft)
06.12.2018 20:48 6,1 °C 89 % 1022,2 hPa 0,0 mm 3,3 km/h (1 Bft) S-SW 205 ° 0 min 0,000 mm 0,0 UV-I 0 W/m² 4,4 °C 6,1 °C 6,4 km/h (2 Bft)
06.12.2018 20:49 6,1 °C 89 % 1022,2 hPa 0,0 mm 0,1 km/h (0 Bft) S-SW 205 ° 0 min 0,000 mm 0,0 UV-I 0 W/m² 4,4 °C 6,1 °C 1,6 km/h (1 Bft)
06.12.2018 20:50 5,9 °C 89 % 1022,2 hPa 0,0 mm 0,1 km/h (0 Bft) S-SW 205 ° 0 min 0,000 mm 0,0 UV-I 0 W/m² 4,2 °C 5,9 °C 1,6 km/h (1 Bft)
06.12.2018 20:51 5,9 °C 89 % 1022,3 hPa 0,0 mm 0,1 km/h (0 Bft) S-SW 205 ° 0 min 0,000 mm 0,0 UV-I 0 W/m² 4,2 °C 5,9 °C 1,6 km/h (1 Bft)
06.12.2018 20:52 5,8 °C 89 % 1022,2 hPa 0,0 mm 1,2 km/h (1 Bft) S-SW 205 ° 0 min 0,000 mm 0,0 UV-I 0 W/m² 4,1 °C 5,8 °C 4,8 km/h (1 Bft)
06.12.2018 20:53 5,8 °C 89 % 1022,3 hPa 0,0 mm 0,0 km/h (0 Bft) S-SW 205 ° 0 min 0,000 mm 0,0 UV-I 0 W/m² 4,1 °C 5,8 °C 0,0 km/h (0 Bft)
06.12.2018 20:54 5,8 °C 89 % 1022,3 hPa 0,0 mm 0,0 km/h (0 Bft) S-SW 205 ° 0 min 0,000 mm 0,0 UV-I 0 W/m² 4,1 °C 5,8 °C 0,0 km/h (0 Bft)
06.12.2018 20:55 5,8 °C 89 % 1022,3 hPa 0,0 mm 0,0 km/h (0 Bft) S-SW 205 ° 0 min 0,000 mm 0,0 UV-I 0 W/m² 4,1 °C 5,8 °C 0,0 km/h (0 Bft)
06.12.2018 20:56 5,7 °C 89 % 1022,3 hPa 0,0 mm 0,0 km/h (0 Bft) S-SW 205 ° 0 min 0,000 mm 0,0 UV-I 0 W/m² 4,0 °C 5,7 °C 0,0 km/h (0 Bft)
06.12.2018 20:57 5,7 °C 89 % 1022,4 hPa 0,0 mm 0,0 km/h (0 Bft) S-SW 205 ° 0 min 0,000 mm 0,0 UV-I 0 W/m² 4,0 °C 5,7 °C 0,0 km/h (0 Bft)
06.12.2018 20:58 5,6 °C 89 % 1022,4 hPa 0,0 mm 0,0 km/h (0 Bft) S-SW 205 ° 0 min 0,000 mm 0,0 UV-I 0 W/m² 3,9 °C 5,6 °C 0,0 km/h (0 Bft)
06.12.2018 20:59 5,6 °C 90 % 1022,4 hPa 0,0 mm 0,0 km/h (0 Bft) S-SW 205 ° 0 min 0,000 mm 0,0 UV-I 0 W/m² 4,1 °C 5,6 °C 0,0 km/h (0 Bft)
06.12.2018 21:00 5,6 °C 90 % 1022,4 hPa 0,0 mm 0,0 km/h (0 Bft) S-SW 205 ° 0 min 0,000 mm 0,0 UV-I 0 W/m² 4,1 °C 5,6 °C 0,0 km/h (0 Bft)
06.12.2018 21:01 5,6 °C 89 % 1022,3 hPa 0,0 mm 0,0 km/h (0 Bft) S-SW 205 ° 0 min 0,000 mm 0,0 UV-I 0 W/m² 3,9 °C 5,6 °C 0,0 km/h (0 Bft)
06.12.2018 21:02 5,5 °C 89 % 1022,3 hPa 0,0 mm 0,0 km/h (0 Bft) S-SW 205 ° 0 min 0,000 mm 0,0 UV-I 0 W/m² 3,8 °C 5,5 °C 0,0 km/h (0 Bft)
06.12.2018 21:03 5,4 °C 90 % 1022,4 hPa 0,0 mm 0,0 km/h (0 Bft) S-SW 205 ° 0 min 0,000 mm 0,0 UV-I 0 W/m² 3,9 °C 5,4 °C 0,0 km/h (0 Bft)
06.12.2018 21:04 5,4 °C 90 % 1022,4 hPa 0,0 mm 0,0 km/h (0 Bft) S-SW 205 ° 0 min 0,000 mm 0,0 UV-I 0 W/m² 3,9 °C 5,4 °C 0,0 km/h (0 Bft)
06.12.2018 21:05 5,4 °C 90 % 1022,4 hPa 0,0 mm 0,0 km/h (0 Bft) S-SW 205 ° 0 min 0,000 mm 0,0 UV-I 0 W/m² 3,9 °C 5,4 °C 0,0 km/h (0 Bft)
06.12.2018 21:06 5,4 °C 90 % 1022,4 hPa 0,0 mm 0,0 km/h (0 Bft) S-SW 205 ° 0 min 0,000 mm 0,0 UV-I 0 W/m² 3,9 °C 5,4 °C 0,0 km/h (0 Bft)
06.12.2018 21:07 5,4 °C 90 % 1022,4 hPa 0,0 mm 0,0 km/h (0 Bft) S-SW 205 ° 0 min 0,000 mm 0,0 UV-I 0 W/m² 3,9 °C 5,4 °C 0,0 km/h (0 Bft)
06.12.2018 21:08 5,4 °C 90 % 1022,3 hPa 0,0 mm 0,0 km/h (0 Bft) S-SW 205 ° 0 min 0,000 mm 0,0 UV-I 0 W/m² 3,9 °C 5,4 °C 0,0 km/h (0 Bft)
06.12.2018 21:09 5,4 °C 90 % 1022,3 hPa 0,0 mm 0,0 km/h (0 Bft) S-SW 205 ° 0 min 0,000 mm 0,0 UV-I 0 W/m² 3,9 °C 5,4 °C 0,0 km/h (0 Bft)
06.12.2018 21:10 5,3 °C 90 % 1022,3 hPa 0,0 mm 0,0 km/h (0 Bft) S-SW 205 ° 0 min 0,000 mm 0,0 UV-I 0 W/m² 3,8 °C 5,3 °C 0,0 km/h (0 Bft)
06.12.2018 21:11 5,3 °C 90 % 1022,4 hPa 0,0 mm 0,0 km/h (0 Bft) S-SW 205 ° 0 min 0,000 mm 0,0 UV-I 0 W/m² 3,8 °C 5,3 °C 0,0 km/h (0 Bft)
06.12.2018 21:12 5,3 °C 90 % 1022,4 hPa 0,0 mm 0,0 km/h (0 Bft) S-SW 205 ° 0 min 0,000 mm 0,0 UV-I 0 W/m² 3,8 °C 5,3 °C 0,0 km/h (0 Bft)
06.12.2018 21:13 5,3 °C 90 % 1022,3 hPa 0,0 mm 0,0 km/h (0 Bft) S-SW 205 ° 0 min 0,000 mm 0,0 UV-I 0 W/m² 3,8 °C 5,3 °C 0,0 km/h (0 Bft)
06.12.2018 21:14 5,3 °C 90 % 1022,3 hPa 0,0 mm 0,0 km/h (0 Bft) S-SW 205 ° 0 min 0,000 mm 0,0 UV-I 0 W/m² 3,8 °C 5,3 °C 0,0 km/h (0 Bft)
06.12.2018 21:15 5,2 °C 91 % 1022,2 hPa 0,0 mm 0,0 km/h (0 Bft) S-SW 205 ° 0 min 0,000 mm 0,0 UV-I 0 W/m² 3,9 °C 5,2 °C 0,0 km/h (0 Bft)
06.12.2018 21:16 5,2 °C 91 % 1022,3 hPa 0,0 mm 0,0 km/h (0 Bft) S-SW 205 ° 0 min 0,000 mm 0,0 UV-I 0 W/m² 3,9 °C 5,2 °C 0,0 km/h (0 Bft)
06.12.2018 21:17 5,2 °C 91 % 1022,2 hPa 0,0 mm 0,0 km/h (0 Bft) S-SW 205 ° 0 min 0,000 mm 0,0 UV-I 0 W/m² 3,9 °C 5,2 °C 0,0 km/h (0 Bft)
06.12.2018 21:18 5,2 °C 91 % 1022,3 hPa 0,0 mm 0,0 km/h (0 Bft) S-SW 205 ° 0 min 0,000 mm 0,0 UV-I 0 W/m² 3,9 °C 5,2 °C 0,0 km/h (0 Bft)
06.12.2018 21:19 5,2 °C 91 % 1022,2 hPa 0,0 mm 0,0 km/h (0 Bft) S-SW 205 ° 0 min 0,000 mm 0,0 UV-I 0 W/m² 3,9 °C 5,2 °C 0,0 km/h (0 Bft)
06.12.2018 21:20 5,2 °C 91 % 1022,3 hPa 0,0 mm 0,0 km/h (0 Bft) S-SW 205 ° 0 min 0,000 mm 0,0 UV-I 0 W/m² 3,9 °C 5,2 °C 0,0 km/h (0 Bft)
06.12.2018 21:21 5,1 °C 91 % 1022,3 hPa 0,0 mm 0,0 km/h (0 Bft) S-SW 205 ° 0 min 0,000 mm 0,0 UV-I 0 W/m² 3,8 °C 5,1 °C 0,0 km/h (0 Bft)
06.12.2018 21:22 5,1 °C 91 % 1022,4 hPa 0,0 mm 0,0 km/h (0 Bft) S-SW 205 ° 0 min 0,000 mm 0,0 UV-I 0 W/m² 3,8 °C 5,1 °C 0,0 km/h (0 Bft)
06.12.2018 21:23 5,1 °C 90 % 1022,4 hPa 0,0 mm 0,0 km/h (0 Bft) S-SW 205 ° 0 min 0,000 mm 0,0 UV-I 0 W/m² 3,6 °C 5,1 °C 0,0 km/h (0 Bft)
06.12.2018 21:24 5,1 °C 90 % 1022,4 hPa 0,0 mm 0,0 km/h (0 Bft) S-SW 205 ° 0 min 0,000 mm 0,0 UV-I 0 W/m² 3,6 °C 5,1 °C 0,0 km/h (0 Bft)
06.12.2018 21:25 5,1 °C 90 % 1022,3 hPa 0,0 mm 0,0 km/h (0 Bft) S-SW 205 ° 0 min 0,000 mm 0,0 UV-I 0 W/m² 3,6 °C 5,1 °C 0,0 km/h (0 Bft)
06.12.2018 21:26 5,1 °C 90 % 1022,3 hPa 0,0 mm 0,0 km/h (0 Bft) S-SW 205 ° 0 min 0,000 mm 0,0 UV-I 0 W/m² 3,6 °C 5,1 °C 0,0 km/h (0 Bft)
06.12.2018 21:27 5,0 °C 90 % 1022,2 hPa 0,0 mm 0,0 km/h (0 Bft) S-SW 205 ° 0 min 0,000 mm 0,0 UV-I 0 W/m² 3,5 °C 5,0 °C 0,0 km/h (0 Bft)
06.12.2018 21:28 4,9 °C 90 % 1022,2 hPa 0,0 mm 0,0 km/h (0 Bft) S-SW 205 ° 0 min 0,000 mm 0,0 UV-I 0 W/m² 3,4 °C 4,9 °C 0,0 km/h (0 Bft)
06.12.2018 21:29 4,9 °C 90 % 1022,2 hPa 0,0 mm 0,0 km/h (0 Bft) S-SW 205 ° 0 min 0,000 mm 0,0 UV-I 0 W/m² 3,4 °C 4,9 °C 0,0 km/h (0 Bft)
06.12.2018 21:30 4,9 °C 90 % 1022,2 hPa 0,0 mm 0,0 km/h (0 Bft) S-SW 205 ° 0 min 0,000 mm 0,0 UV-I 0 W/m² 3,4 °C 4,9 °C 0,0 km/h (0 Bft)
06.12.2018 21:31 4,9 °C 90 % 1022,2 hPa 0,0 mm 0,0 km/h (0 Bft) S-SW 205 ° 0 min 0,000 mm 0,0 UV-I 0 W/m² 3,4 °C 4,9 °C 0,0 km/h (0 Bft)
06.12.2018 21:32 4,8 °C 90 % 1022,2 hPa 0,0 mm 0,0 km/h (0 Bft) S-SW 205 ° 0 min 0,000 mm 0,0 UV-I 0 W/m² 3,3 °C 4,8 °C 0,0 km/h (0 Bft)
06.12.2018 21:33 4,8 °C 91 % 1022,2 hPa 0,0 mm 0,2 km/h (0 Bft) S-SW 205 ° 0 min 0,000 mm 0,0 UV-I 0 W/m² 3,5 °C 4,8 °C 1,6 km/h (1 Bft)
06.12.2018 21:34 4,9 °C 91 % 1022,2 hPa 0,0 mm 2,5 km/h (1 Bft) S-SW 205 ° 0 min 0,000 mm 0,0 UV-I 0 W/m² 3,6 °C 4,9 °C 3,2 km/h (1 Bft)
06.12.2018 21:35 4,9 °C 91 % 1022,2 hPa 0,0 mm 2,7 km/h (1 Bft) S-SW 205 ° 0 min 0,000 mm 0,0 UV-I 0 W/m² 3,6 °C 4,9 °C 3,2 km/h (1 Bft)
06.12.2018 21:36 4,9 °C 91 % 1022,2 hPa 0,0 mm 2,0 km/h (1 Bft) S-SW 205 ° 0 min 0,000 mm 0,0 UV-I 0 W/m² 3,6 °C 4,9 °C 3,2 km/h (1 Bft)
06.12.2018 21:37 4,9 °C 91 % 1022,2 hPa 0,0 mm 0,0 km/h (0 Bft) S-SW 205 ° 0 min 0,000 mm 0,0 UV-I 0 W/m² 3,6 °C 4,9 °C 0,0 km/h (0 Bft)
06.12.2018 21:38 4,9 °C 92 % 1022,1 hPa 0,0 mm 1,2 km/h (1 Bft) S-SW 205 ° 0 min 0,000 mm 0,0 UV-I 0 W/m² 3,7 °C 4,9 °C 3,2 km/h (1 Bft)
06.12.2018 21:39 4,9 °C 92 % 1022,1 hPa 0,0 mm 0,2 km/h (0 Bft) S-SW 205 ° 0 min 0,000 mm 0,0 UV-I 0 W/m² 3,7 °C 4,9 °C 1,6 km/h (1 Bft)
06.12.2018 21:40 4,9 °C 92 % 1022,1 hPa 0,0 mm 0,0 km/h (0 Bft) S-SW 205 ° 0 min 0,000 mm 0,0 UV-I 0 W/m² 3,7 °C 4,9 °C 0,0 km/h (0 Bft)
06.12.2018 21:41 5,0 °C 92 % 1022,1 hPa 0,0 mm 0,0 km/h (0 Bft) S-SW 205 ° 0 min 0,000 mm 0,0 UV-I 0 W/m² 3,8 °C 5,0 °C 0,0 km/h (0 Bft)
06.12.2018 21:42 5,0 °C 92 % 1022,0 hPa 0,0 mm 0,5 km/h (0 Bft) S-SW 205 ° 0 min 0,000 mm 0,0 UV-I 0 W/m² 3,8 °C 5,0 °C 1,6 km/h (1 Bft)
06.12.2018 21:43 5,1 °C 92 % 1022,0 hPa 0,0 mm 1,7 km/h (1 Bft) S-SW 205 ° 0 min 0,000 mm 0,0 UV-I 0 W/m² 3,9 °C 5,1 °C 3,2 km/h (1 Bft)
06.12.2018 21:44 5,1 °C 92 % 1021,9 hPa 0,0 mm 0,7 km/h (0 Bft) S-SW 205 ° 0 min 0,000 mm 0,0 UV-I 0 W/m² 3,9 °C 5,1 °C 3,2 km/h (1 Bft)
06.12.2018 21:45 5,1 °C 92 % 1021,9 hPa 0,0 mm 0,0 km/h (0 Bft) S-SW 205 ° 0 min 0,000 mm 0,0 UV-I 0 W/m² 3,9 °C 5,1 °C 0,0 km/h (0 Bft)
06.12.2018 21:46 5,1 °C 92 % 1021,9 hPa 0,0 mm 0,0 km/h (0 Bft) S-SW 205 ° 0 min 0,000 mm 0,0 UV-I 0 W/m² 3,9 °C 5,1 °C 0,0 km/h (0 Bft)
06.12.2018 21:47 5,1 °C 92 % 1021,9 hPa 0,0 mm 0,0 km/h (0 Bft) NW 313 ° 0 min 0,000 mm 0,0 UV-I 0 W/m² 3,9 °C 5,1 °C 0,0 km/h (0 Bft)
06.12.2018 21:48 5,0 °C 92 % 1021,9 hPa 0,0 mm 0,0 km/h (0 Bft) NW 314 ° 0 min 0,000 mm 0,0 UV-I 0 W/m² 3,8 °C 5,0 °C 0,0 km/h (0 Bft)
06.12.2018 21:49 4,9 °C 92 % 1022,0 hPa 0,0 mm 0,0 km/h (0 Bft) NW 313 ° 0 min 0,000 mm 0,0 UV-I 0 W/m² 3,7 °C 4,9 °C 0,0 km/h (0 Bft)
06.12.2018 21:50 4,9 °C 92 % 1021,9 hPa 0,0 mm 0,0 km/h (0 Bft) NW 313 ° 0 min 0,000 mm 0,0 UV-I 0 W/m² 3,7 °C 4,9 °C 0,0 km/h (0 Bft)
06.12.2018 21:51 4,9 °C 92 % 1022,0 hPa 0,0 mm 0,0 km/h (0 Bft) NW 313 ° 0 min 0,000 mm 0,0 UV-I 0 W/m² 3,7 °C 4,9 °C 0,0 km/h (0 Bft)
06.12.2018 21:52 4,9 °C 92 % 1021,9 hPa 0,0 mm 0,0 km/h (0 Bft) NW 313 ° 0 min 0,000 mm 0,0 UV-I 0 W/m² 3,7 °C 4,9 °C 0,0 km/h (0 Bft)
06.12.2018 21:53 4,9 °C 92 % 1022,0 hPa 0,0 mm 0,0 km/h (0 Bft) NW 313 ° 0 min 0,000 mm 0,0 UV-I 0 W/m² 3,7 °C 4,9 °C 0,0 km/h (0 Bft)
06.12.2018 21:54 4,9 °C 92 % 1021,9 hPa 0,0 mm 0,0 km/h (0 Bft) NW 313 ° 0 min 0,000 mm 0,0 UV-I 0 W/m² 3,7 °C 4,9 °C 0,0 km/h (0 Bft)
06.12.2018 21:55 4,9 °C 92 % 1021,9 hPa 0,0 mm 0,0 km/h (0 Bft) NW 313 ° 0 min 0,000 mm 0,0 UV-I 0 W/m² 3,7 °C 4,9 °C 0,0 km/h (0 Bft)
06.12.2018 21:56 4,8 °C 92 % 1021,9 hPa 0,0 mm 0,8 km/h (0 Bft) S-SW 194 ° 0 min 0,000 mm 0,0 UV-I 0 W/m² 3,6 °C 4,8 °C 4,8 km/h (1 Bft)
06.12.2018 21:57 4,8 °C 92 % 1021,9 hPa 0,0 mm 4,8 km/h (1 Bft) S-SW 194 ° 0 min 0,000 mm 0,0 UV-I 0 W/m² 3,6 °C 3,9 °C 6,4 km/h (2 Bft)
06.12.2018 21:58 4,8 °C 92 % 1021,9 hPa 0,0 mm 4,5 km/h (1 Bft) S 188 ° 0 min 0,000 mm 0,0 UV-I 0 W/m² 3,6 °C 4,8 °C 6,4 km/h (2 Bft)
06.12.2018 21:59 4,8 °C 92 % 1021,9 hPa 0,0 mm 4,0 km/h (1 Bft) S 190 ° 0 min 0,000 mm 0,0 UV-I 0 W/m² 3,6 °C 4,8 °C 6,4 km/h (2 Bft)
06.12.2018 22:00 4,9 °C 92 % 1021,9 hPa 0,0 mm 5,2 km/h (1 Bft) S-SW 198 ° 0 min 0,000 mm 0,0 UV-I 0 W/m² 3,7 °C 3,9 °C 8,0 km/h (2 Bft)
06.12.2018 22:01 4,8 °C 92 % 1021,9 hPa 0,0 mm 3,8 km/h (1 Bft) S 181 ° 0 min 0,000 mm 0,0 UV-I 0 W/m² 3,6 °C 4,8 °C 6,4 km/h (2 Bft)
06.12.2018 22:02 4,8 °C 92 % 1022,0 hPa 0,0 mm 3,0 km/h (1 Bft) S 182 ° 0 min 0,000 mm 0,0 UV-I 0 W/m² 3,6 °C 4,8 °C 4,8 km/h (1 Bft)
06.12.2018 22:03 4,9 °C 92 % 1021,9 hPa 0,0 mm 4,8 km/h (1 Bft) S-SW 203 ° 0 min 0,000 mm 0,0 UV-I 0 W/m² 3,7 °C 4,0 °C 6,4 km/h (2 Bft)
06.12.2018 22:04 4,8 °C 92 % 1021,9 hPa 0,0 mm 1,4 km/h (1 Bft) S-SW 203 ° 0 min 0,000 mm 0,0 UV-I 0 W/m² 3,6 °C 4,8 °C 3,2 km/h (1 Bft)
06.12.2018 22:05 4,8 °C 92 % 1021,9 hPa 0,0 mm 1,5 km/h (1 Bft) S-SW 203 ° 0 min 0,000 mm 0,0 UV-I 0 W/m² 3,6 °C 4,8 °C 3,2 km/h (1 Bft)
06.12.2018 22:06 4,9 °C 92 % 1021,9 hPa 0,0 mm 1,4 km/h (1 Bft) S-SW 203 ° 0 min 0,000 mm 0,0 UV-I 0 W/m² 3,7 °C 4,9 °C 3,2 km/h (1 Bft)
06.12.2018 22:07 4,9 °C 92 % 1021,9 hPa 0,0 mm 1,3 km/h (1 Bft) S-SW 203 ° 0 min 0,000 mm 0,0 UV-I 0 W/m² 3,7 °C 4,9 °C 3,2 km/h (1 Bft)
06.12.2018 22:08 4,9 °C 92 % 1021,8 hPa 0,0 mm 0,1 km/h (0 Bft) S-SW 203 ° 0 min 0,000 mm 0,0 UV-I 0 W/m² 3,7 °C 4,9 °C 1,6 km/h (1 Bft)
06.12.2018 22:09 4,9 °C 92 % 1021,8 hPa 0,0 mm 0,4 km/h (0 Bft) S-SW 203 ° 0 min 0,000 mm 0,0 UV-I 0 W/m² 3,7 °C 4,9 °C 1,6 km/h (1 Bft)
06.12.2018 22:10 4,9 °C 92 % 1021,8 hPa 0,0 mm 0,0 km/h (0 Bft) S-SW 203 ° 0 min 0,000 mm 0,0 UV-I 0 W/m² 3,7 °C 4,9 °C 0,0 km/h (0 Bft)
06.12.2018 22:11 4,9 °C 93 % 1021,8 hPa 0,0 mm 0,0 km/h (0 Bft) S-SW 203 ° 0 min 0,000 mm 0,0 UV-I 0 W/m² 3,9 °C 4,9 °C 0,0 km/h (0 Bft)
06.12.2018 22:12 4,9 °C 92 % 1021,7 hPa 0,0 mm 0,0 km/h (0 Bft) S-SW 203 ° 0 min 0,000 mm 0,0 UV-I 0 W/m² 3,7 °C 4,9 °C 0,0 km/h (0 Bft)
06.12.2018 22:13 4,9 °C 92 % 1021,7 hPa 0,0 mm 0,0 km/h (0 Bft) S-SW 203 ° 0 min 0,000 mm 0,0 UV-I 0 W/m² 3,7 °C 4,9 °C 0,0 km/h (0 Bft)
06.12.2018 22:14 4,9 °C 92 % 1021,7 hPa 0,0 mm 0,0 km/h (0 Bft) S-SW 203 ° 0 min 0,000 mm 0,0 UV-I 0 W/m² 3,7 °C 4,9 °C 0,0 km/h (0 Bft)
06.12.2018 22:15 4,9 °C 92 % 1021,7 hPa 0,0 mm 0,0 km/h (0 Bft) S-SW 203 ° 0 min 0,000 mm 0,0 UV-I 0 W/m² 3,7 °C 4,9 °C 0,0 km/h (0 Bft)
06.12.2018 22:16 4,9 °C 92 % 1021,6 hPa 0,0 mm 0,8 km/h (0 Bft) S-SW 203 ° 0 min 0,000 mm 0,0 UV-I 0 W/m² 3,7 °C 4,9 °C 3,2 km/h (1 Bft)
06.12.2018 22:17 4,9 °C 92 % 1021,6 hPa 0,0 mm 0,6 km/h (0 Bft) SW 214 ° 0 min 0,000 mm 0,0 UV-I 0 W/m² 3,7 °C 4,9 °C 1,6 km/h (1 Bft)
06.12.2018 22:18 4,9 °C 93 % 1021,5 hPa 0,0 mm 1,1 km/h (1 Bft) S-SW 211 ° 0 min 0,000 mm 0,0 UV-I 0 W/m² 3,9 °C 4,9 °C 4,8 km/h (1 Bft)
06.12.2018 22:19 4,9 °C 93 % 1021,5 hPa 0,0 mm 1,7 km/h (1 Bft) S 175 ° 0 min 0,000 mm 0,0 UV-I 0 W/m² 3,9 °C 4,9 °C 4,8 km/h (1 Bft)
06.12.2018 22:20 4,9 °C 93 % 1021,6 hPa 0,0 mm 0,1 km/h (0 Bft) S 175 ° 0 min 0,000 mm 0,0 UV-I 0 W/m² 3,9 °C 4,9 °C 1,6 km/h (1 Bft)
06.12.2018 22:21 5,0 °C 93 % 1021,5 hPa 0,0 mm 1,7 km/h (1 Bft) SW 224 ° 0 min 0,000 mm 0,0 UV-I 0 W/m² 4,0 °C 5,0 °C 9,7 km/h (2 Bft)
06.12.2018 22:22 5,0 °C 93 % 1021,5 hPa 0,0 mm 1,8 km/h (1 Bft) W 268 ° 0 min 0,000 mm 0,0 UV-I 0 W/m² 4,0 °C 5,0 °C 6,4 km/h (2 Bft)
06.12.2018 22:23 5,1 °C 93 % 1021,6 hPa 0,0 mm 3,6 km/h (1 Bft) SW 216 ° 0 min 0,000 mm 0,0 UV-I 0 W/m² 4,1 °C 5,1 °C 6,4 km/h (2 Bft)
06.12.2018 22:24 5,1 °C 93 % 1021,5 hPa 0,0 mm 0,7 km/h (0 Bft) SW 216 ° 0 min 0,000 mm 0,0 UV-I 0 W/m² 4,1 °C 5,1 °C 3,2 km/h (1 Bft)
06.12.2018 22:25 5,1 °C 93 % 1021,5 hPa 0,0 mm 0,5 km/h (0 Bft) SW 216 ° 0 min 0,000 mm 0,0 UV-I 0 W/m² 4,1 °C 5,1 °C 1,6 km/h (1 Bft)
06.12.2018 22:26 5,1 °C 93 % 1021,5 hPa 0,0 mm 0,0 km/h (0 Bft) SW 216 ° 0 min 0,000 mm 0,0 UV-I 0 W/m² 4,1 °C 5,1 °C 0,0 km/h (0 Bft)
06.12.2018 22:27 5,2 °C 93 % 1021,5 hPa 0,0 mm 0,1 km/h (0 Bft) SW 236 ° 0 min 0,000 mm 0,0 UV-I 0 W/m² 4,2 °C 5,2 °C 1,6 km/h (1 Bft)
06.12.2018 22:28 5,2 °C 93 % 1021,5 hPa 0,0 mm 0,0 km/h (0 Bft) SW 236 ° 0 min 0,000 mm 0,0 UV-I 0 W/m² 4,2 °C 5,2 °C 0,0 km/h (0 Bft)
06.12.2018 22:29 5,2 °C 93 % 1021,6 hPa 0,0 mm 0,0 km/h (0 Bft) SW 236 ° 0 min 0,000 mm 0,0 UV-I 0 W/m² 4,2 °C 5,2 °C 0,0 km/h (0 Bft)
06.12.2018 22:30 5,2 °C 93 % 1021,6 hPa 0,0 mm 0,0 km/h (0 Bft) SW 236 ° 0 min 0,000 mm 0,0 UV-I 0 W/m² 4,2 °C 5,2 °C 0,0 km/h (0 Bft)
06.12.2018 22:31 5,2 °C 93 % 1021,6 hPa 0,0 mm 0,0 km/h (0 Bft) SW 236 ° 0 min 0,000 mm 0,0 UV-I 0 W/m² 4,2 °C 5,2 °C 0,0 km/h (0 Bft)
06.12.2018 22:32 5,2 °C 93 % 1021,6 hPa 0,0 mm 0,0 km/h (0 Bft) SW 236 ° 0 min 0,000 mm 0,0 UV-I 0 W/m² 4,2 °C 5,2 °C 0,0 km/h (0 Bft)
06.12.2018 22:33 5,2 °C 93 % 1021,6 hPa 0,0 mm 0,0 km/h (0 Bft) SW 236 ° 0 min 0,000 mm 0,0 UV-I 0 W/m² 4,2 °C 5,2 °C 0,0 km/h (0 Bft)
06.12.2018 22:34 5,2 °C 93 % 1021,6 hPa 0,0 mm 0,0 km/h (0 Bft) SW 236 ° 0 min 0,000 mm 0,0 UV-I 0 W/m² 4,2 °C 5,2 °C 0,0 km/h (0 Bft)
06.12.2018 22:35 5,2 °C 93 % 1021,6 hPa 0,0 mm 0,0 km/h (0 Bft) SW 236 ° 0 min 0,000 mm 0,0 UV-I 0 W/m² 4,2 °C 5,2 °C 0,0 km/h (0 Bft)
06.12.2018 22:36 5,2 °C 93 % 1021,6 hPa 0,0 mm 0,0 km/h (0 Bft) SW 236 ° 0 min 0,000 mm 0,0 UV-I 0 W/m² 4,2 °C 5,2 °C 0,0 km/h (0 Bft)
06.12.2018 22:37 5,2 °C 93 % 1021,6 hPa 0,0 mm 0,0 km/h (0 Bft) SW 236 ° 0 min 0,000 mm 0,0 UV-I 0 W/m² 4,2 °C 5,2 °C 0,0 km/h (0 Bft)
06.12.2018 22:38 5,1 °C 93 % 1021,6 hPa 0,0 mm 0,0 km/h (0 Bft) SW 236 ° 0 min 0,000 mm 0,0 UV-I 0 W/m² 4,1 °C 5,1 °C 0,0 km/h (0 Bft)
06.12.2018 22:39 5,1 °C 93 % 1021,6 hPa 0,0 mm 0,0 km/h (0 Bft) SW 236 ° 0 min 0,000 mm 0,0 UV-I 0 W/m² 4,1 °C 5,1 °C 0,0 km/h (0 Bft)
06.12.2018 22:40 5,1 °C 93 % 1021,7 hPa 0,0 mm 0,0 km/h (0 Bft) SW 236 ° 0 min 0,000 mm 0,0 UV-I 0 W/m² 4,1 °C 5,1 °C 0,0 km/h (0 Bft)
06.12.2018 22:41 5,1 °C 92 % 1021,6 hPa 0,0 mm 0,0 km/h (0 Bft) SW 236 ° 0 min 0,000 mm 0,0 UV-I 0 W/m² 3,9 °C 5,1 °C 0,0 km/h (0 Bft)
06.12.2018 22:42 5,1 °C 92 % 1021,6 hPa 0,0 mm 0,9 km/h (0 Bft) SW 226 ° 0 min 0,000 mm 0,0 UV-I 0 W/m² 3,9 °C 5,1 °C 3,2 km/h (1 Bft)
06.12.2018 22:43 5,1 °C 92 % 1021,6 hPa 0,0 mm 1,0 km/h (0 Bft) SW 226 ° 0 min 0,000 mm 0,0 UV-I 0 W/m² 3,9 °C 5,1 °C 3,2 km/h (1 Bft)
06.12.2018 22:44 5,1 °C 92 % 1021,6 hPa 0,0 mm 0,0 km/h (0 Bft) SW 226 ° 0 min 0,000 mm 0,0 UV-I 0 W/m² 3,9 °C 5,1 °C 0,0 km/h (0 Bft)
06.12.2018 22:45 5,1 °C 92 % 1021,6 hPa 0,0 mm 0,0 km/h (0 Bft) SW 226 ° 0 min 0,000 mm 0,0 UV-I 0 W/m² 3,9 °C 5,1 °C 0,0 km/h (0 Bft)
06.12.2018 22:46 5,0 °C 92 % 1021,6 hPa 0,0 mm 0,0 km/h (0 Bft) SW 226 ° 0 min 0,000 mm 0,0 UV-I 0 W/m² 3,8 °C 5,0 °C 0,0 km/h (0 Bft)
06.12.2018 22:47 5,0 °C 92 % 1021,6 hPa 0,0 mm 0,0 km/h (0 Bft) SW 226 ° 0 min 0,000 mm 0,0 UV-I 0 W/m² 3,8 °C 5,0 °C 0,0 km/h (0 Bft)
06.12.2018 22:48 5,0 °C 92 % 1021,6 hPa 0,0 mm 0,8 km/h (0 Bft) SW 226 ° 0 min 0,000 mm 0,0 UV-I 0 W/m² 3,8 °C 5,0 °C 1,6 km/h (1 Bft)
06.12.2018 22:49 5,0 °C 92 % 1021,6 hPa 0,0 mm 0,0 km/h (0 Bft) SW 226 ° 0 min 0,000 mm 0,0 UV-I 0 W/m² 3,8 °C 5,0 °C 0,0 km/h (0 Bft)
06.12.2018 22:50 4,9 °C 92 % 1021,6 hPa 0,0 mm 1,1 km/h (1 Bft) S-SW 202 ° 0 min 0,000 mm 0,0 UV-I 0 W/m² 3,7 °C 4,9 °C 8,0 km/h (2 Bft)
06.12.2018 22:51 4,9 °C 92 % 1021,6 hPa 0,0 mm 4,0 km/h (1 Bft) S 169 ° 0 min 0,000 mm 0,0 UV-I 0 W/m² 3,7 °C 4,9 °C 8,0 km/h (2 Bft)
06.12.2018 22:52 4,9 °C 92 % 1021,6 hPa 0,0 mm 1,5 km/h (1 Bft) S 169 ° 0 min 0,000 mm 0,0 UV-I 0 W/m² 3,7 °C 4,9 °C 3,2 km/h (1 Bft)
06.12.2018 22:53 4,9 °C 92 % 1021,6 hPa 0,0 mm 1,5 km/h (1 Bft) S 169 ° 0 min 0,000 mm 0,0 UV-I 0 W/m² 3,7 °C 4,9 °C 3,2 km/h (1 Bft)
06.12.2018 22:54 4,9 °C 92 % 1021,5 hPa 0,0 mm 0,0 km/h (0 Bft) S 169 ° 0 min 0,000 mm 0,0 UV-I 0 W/m² 3,7 °C 4,9 °C 0,0 km/h (0 Bft)
06.12.2018 22:55 4,9 °C 92 % 1021,6 hPa 0,0 mm 0,0 km/h (0 Bft) S 169 ° 0 min 0,000 mm 0,0 UV-I 0 W/m² 3,7 °C 4,9 °C 0,0 km/h (0 Bft)
06.12.2018 22:56 4,9 °C 92 % 1021,5 hPa 0,0 mm 0,1 km/h (0 Bft) S 169 ° 0 min 0,000 mm 0,0 UV-I 0 W/m² 3,7 °C 4,9 °C 1,6 km/h (1 Bft)
06.12.2018 22:57 4,9 °C 92 % 1021,5 hPa 0,0 mm 0,6 km/h (0 Bft) S 169 ° 0 min 0,000 mm 0,0 UV-I 0 W/m² 3,7 °C 4,9 °C 3,2 km/h (1 Bft)
06.12.2018 22:58 4,9 °C 93 % 1021,5 hPa 0,0 mm 0,0 km/h (0 Bft) S 169 ° 0 min 0,000 mm 0,0 UV-I 0 W/m² 3,9 °C 4,9 °C 0,0 km/h (0 Bft)
06.12.2018 22:59 4,9 °C 92 % 1021,4 hPa 0,0 mm 0,6 km/h (0 Bft) S 169 ° 0 min 0,000 mm 0,0 UV-I 0 W/m² 3,7 °C 4,9 °C 3,2 km/h (1 Bft)
06.12.2018 23:00 4,9 °C 92 % 1021,4 hPa 0,0 mm 0,3 km/h (0 Bft) S 169 ° 0 min 0,000 mm 0,0 UV-I 0 W/m² 3,7 °C 4,9 °C 1,6 km/h (1 Bft)
06.12.2018 23:01 4,9 °C 92 % 1021,4 hPa 0,0 mm 0,0 km/h (0 Bft) S 169 ° 0 min 0,000 mm 0,0 UV-I 0 W/m² 3,7 °C 4,9 °C 0,0 km/h (0 Bft)
06.12.2018 23:02 4,9 °C 92 % 1021,4 hPa 0,0 mm 0,0 km/h (0 Bft) S 169 ° 0 min 0,000 mm 0,0 UV-I 0 W/m² 3,7 °C 4,9 °C 0,0 km/h (0 Bft)
06.12.2018 23:03 4,9 °C 92 % 1021,4 hPa 0,0 mm 0,0 km/h (0 Bft) S 169 ° 0 min 0,000 mm 0,0 UV-I 0 W/m² 3,7 °C 4,9 °C 0,0 km/h (0 Bft)
06.12.2018 23:04 4,9 °C 92 % 1021,5 hPa 0,0 mm 0,0 km/h (0 Bft) S 169 ° 0 min 0,000 mm 0,0 UV-I 0 W/m² 3,7 °C 4,9 °C 0,0 km/h (0 Bft)
06.12.2018 23:05 4,9 °C 92 % 1021,5 hPa 0,0 mm 0,0 km/h (0 Bft) S 169 ° 0 min 0,000 mm 0,0 UV-I 0 W/m² 3,7 °C 4,9 °C 0,0 km/h (0 Bft)
06.12.2018 23:06 4,9 °C 92 % 1021,5 hPa 0,0 mm 0,0 km/h (0 Bft) S 169 ° 0 min 0,000 mm 0,0 UV-I 0 W/m² 3,7 °C 4,9 °C 0,0 km/h (0 Bft)
06.12.2018 23:07 4,8 °C 92 % 1021,5 hPa 0,0 mm 0,0 km/h (0 Bft) S 169 ° 0 min 0,000 mm 0,0 UV-I 0 W/m² 3,6 °C 4,8 °C 0,0 km/h (0 Bft)
06.12.2018 23:08 4,8 °C 92 % 1021,5 hPa 0,0 mm 0,0 km/h (0 Bft) S 169 ° 0 min 0,000 mm 0,0 UV-I 0 W/m² 3,6 °C 4,8 °C 0,0 km/h (0 Bft)
06.12.2018 23:09 4,8 °C 92 % 1021,5 hPa 0,0 mm 0,0 km/h (0 Bft) S 169 ° 0 min 0,000 mm 0,0 UV-I 0 W/m² 3,6 °C 4,8 °C 0,0 km/h (0 Bft)
06.12.2018 23:10 4,8 °C 92 % 1021,5 hPa 0,0 mm 0,0 km/h (0 Bft) S 169 ° 0 min 0,000 mm 0,0 UV-I 0 W/m² 3,6 °C 4,8 °C 0,0 km/h (0 Bft)
06.12.2018 23:11 4,8 °C 92 % 1021,5 hPa 0,0 mm 0,0 km/h (0 Bft) S 169 ° 0 min 0,000 mm 0,0 UV-I 0 W/m² 3,6 °C 4,8 °C 0,0 km/h (0 Bft)
06.12.2018 23:12 4,7 °C 92 % 1021,6 hPa 0,0 mm 0,0 km/h (0 Bft) S 169 ° 0 min 0,000 mm 0,0 UV-I 0 W/m² 3,5 °C 4,7 °C 0,0 km/h (0 Bft)
06.12.2018 23:13 4,8 °C 92 % 1021,5 hPa 0,0 mm 0,0 km/h (0 Bft) S 169 ° 0 min 0,000 mm 0,0 UV-I 0 W/m² 3,6 °C 4,8 °C 0,0 km/h (0 Bft)
06.12.2018 23:14 4,7 °C 92 % 1021,6 hPa 0,0 mm 0,0 km/h (0 Bft) S 169 ° 0 min 0,000 mm 0,0 UV-I 0 W/m² 3,5 °C 4,7 °C 0,0 km/h (0 Bft)
06.12.2018 23:15 4,7 °C 92 % 1021,6 hPa 0,0 mm 0,0 km/h (0 Bft) S 169 ° 0 min 0,000 mm 0,0 UV-I 0 W/m² 3,5 °C 4,7 °C 0,0 km/h (0 Bft)
06.12.2018 23:16 4,7 °C 92 % 1021,6 hPa 0,0 mm 0,0 km/h (0 Bft) S 169 ° 0 min 0,000 mm 0,0 UV-I 0 W/m² 3,5 °C 4,7 °C 0,0 km/h (0 Bft)
06.12.2018 23:17 4,7 °C 92 % 1021,6 hPa 0,0 mm 0,0 km/h (0 Bft) S 169 ° 0 min 0,000 mm 0,0 UV-I 0 W/m² 3,5 °C 4,7 °C 0,0 km/h (0 Bft)
06.12.2018 23:18 4,7 °C 92 % 1021,6 hPa 0,0 mm 0,0 km/h (0 Bft) S 169 ° 0 min 0,000 mm 0,0 UV-I 0 W/m² 3,5 °C 4,7 °C 0,0 km/h (0 Bft)
06.12.2018 23:19 4,7 °C 92 % 1021,6 hPa 0,0 mm 0,0 km/h (0 Bft) S 169 ° 0 min 0,000 mm 0,0 UV-I 0 W/m² 3,5 °C 4,7 °C 0,0 km/h (0 Bft)
06.12.2018 23:20 4,7 °C 92 % 1021,6 hPa 0,0 mm 0,0 km/h (0 Bft) S 169 ° 0 min 0,000 mm 0,0 UV-I 0 W/m² 3,5 °C 4,7 °C 0,0 km/h (0 Bft)
06.12.2018 23:21 4,7 °C 92 % 1021,6 hPa 0,0 mm 0,0 km/h (0 Bft) S 169 ° 0 min 0,000 mm 0,0 UV-I 0 W/m² 3,5 °C 4,7 °C 0,0 km/h (0 Bft)
06.12.2018 23:22 4,6 °C 92 % 1021,5 hPa 0,0 mm 0,0 km/h (0 Bft) S 169 ° 0 min 0,000 mm 0,0 UV-I 0 W/m² 3,4 °C 4,6 °C 0,0 km/h (0 Bft)
06.12.2018 23:23 4,6 °C 92 % 1021,5 hPa 0,0 mm 0,0 km/h (0 Bft) S 169 ° 0 min 0,000 mm 0,0 UV-I 0 W/m² 3,4 °C 4,6 °C 0,0 km/h (0 Bft)
06.12.2018 23:24 4,6 °C 92 % 1021,5 hPa 0,0 mm 0,0 km/h (0 Bft) S 169 ° 0 min 0,000 mm 0,0 UV-I 0 W/m² 3,4 °C 4,6 °C 0,0 km/h (0 Bft)
06.12.2018 23:25 4,6 °C 92 % 1021,5 hPa 0,0 mm 0,0 km/h (0 Bft) S 169 ° 0 min 0,000 mm 0,0 UV-I 0 W/m² 3,4 °C 4,6 °C 0,0 km/h (0 Bft)
06.12.2018 23:26 4,6 °C 92 % 1021,5 hPa 0,0 mm 0,0 km/h (0 Bft) S 169 ° 0 min 0,000 mm 0,0 UV-I 0 W/m² 3,4 °C 4,6 °C 0,0 km/h (0 Bft)
06.12.2018 23:27 4,6 °C 92 % 1021,5 hPa 0,0 mm 0,0 km/h (0 Bft) S 169 ° 0 min 0,000 mm 0,0 UV-I 0 W/m² 3,4 °C 4,6 °C 0,0 km/h (0 Bft)
06.12.2018 23:28 4,6 °C 92 % 1021,6 hPa 0,0 mm 0,0 km/h (0 Bft) S 169 ° 0 min 0,000 mm 0,0 UV-I 0 W/m² 3,4 °C 4,6 °C 0,0 km/h (0 Bft)
06.12.2018 23:29 4,6 °C 92 % 1021,6 hPa 0,0 mm 0,0 km/h (0 Bft) S 169 ° 0 min 0,000 mm 0,0 UV-I 0 W/m² 3,4 °C 4,6 °C 0,0 km/h (0 Bft)
06.12.2018 23:30 4,5 °C 92 % 1021,6 hPa 0,0 mm 0,0 km/h (0 Bft) S 169 ° 0 min 0,000 mm 0,0 UV-I 0 W/m² 3,3 °C 4,5 °C 0,0 km/h (0 Bft)
06.12.2018 23:31 4,5 °C 92 % 1021,6 hPa 0,0 mm 0,0 km/h (0 Bft) S 169 ° 0 min 0,000 mm 0,0 UV-I 0 W/m² 3,3 °C 4,5 °C 0,0 km/h (0 Bft)
06.12.2018 23:32 4,4 °C 92 % 1021,6 hPa 0,0 mm 0,0 km/h (0 Bft) S 169 ° 0 min 0,000 mm 0,0 UV-I 0 W/m² 3,2 °C 4,4 °C 0,0 km/h (0 Bft)
06.12.2018 23:33 4,5 °C 92 % 1021,6 hPa 0,0 mm 0,0 km/h (0 Bft) S 169 ° 0 min 0,000 mm 0,0 UV-I 0 W/m² 3,3 °C 4,5 °C 0,0 km/h (0 Bft)
06.12.2018 23:34 4,4 °C 92 % 1021,6 hPa 0,0 mm 0,0 km/h (0 Bft) S 169 ° 0 min 0,000 mm 0,0 UV-I 0 W/m² 3,2 °C 4,4 °C 0,0 km/h (0 Bft)
06.12.2018 23:35 4,4 °C 92 % 1021,6 hPa 0,0 mm 0,0 km/h (0 Bft) S 169 ° 0 min 0,000 mm 0,0 UV-I 0 W/m² 3,2 °C 4,4 °C 0,0 km/h (0 Bft)
06.12.2018 23:36 4,4 °C 92 % 1021,6 hPa 0,0 mm 0,0 km/h (0 Bft) S 169 ° 0 min 0,000 mm 0,0 UV-I 0 W/m² 3,2 °C 4,4 °C 0,0 km/h (0 Bft)
06.12.2018 23:37 4,4 °C 92 % 1021,5 hPa 0,0 mm 0,0 km/h (0 Bft) S 169 ° 0 min 0,000 mm 0,0 UV-I 0 W/m² 3,2 °C 4,4 °C 0,0 km/h (0 Bft)
06.12.2018 23:38 4,4 °C 92 % 1021,6 hPa 0,0 mm 0,0 km/h (0 Bft) S 169 ° 0 min 0,000 mm 0,0 UV-I 0 W/m² 3,2 °C 4,4 °C 0,0 km/h (0 Bft)
06.12.2018 23:39 4,4 °C 92 % 1021,6 hPa 0,0 mm 0,0 km/h (0 Bft) S 169 ° 0 min 0,000 mm 0,0 UV-I 0 W/m² 3,2 °C 4,4 °C 0,0 km/h (0 Bft)
06.12.2018 23:40 4,4 °C 92 % 1021,6 hPa 0,0 mm 0,9 km/h (0 Bft) S 169 ° 0 min 0,000 mm 0,0 UV-I 0 W/m² 3,2 °C 4,4 °C 3,2 km/h (1 Bft)
06.12.2018 23:41 4,4 °C 92 % 1021,5 hPa 0,0 mm 0,0 km/h (0 Bft) S 169 ° 0 min 0,000 mm 0,0 UV-I 0 W/m² 3,2 °C 4,4 °C 0,0 km/h (0 Bft)
06.12.2018 23:42 4,4 °C 92 % 1021,5 hPa 0,0 mm 0,6 km/h (0 Bft) S 169 ° 0 min 0,000 mm 0,0 UV-I 0 W/m² 3,2 °C 4,4 °C 3,2 km/h (1 Bft)
06.12.2018 23:43 4,4 °C 92 % 1021,5 hPa 0,0 mm 0,0 km/h (0 Bft) S 169 ° 0 min 0,000 mm 0,0 UV-I 0 W/m² 3,2 °C 4,4 °C 0,0 km/h (0 Bft)
06.12.2018 23:44 4,5 °C 92 % 1021,5 hPa 0,0 mm 0,0 km/h (0 Bft) S 169 ° 0 min 0,000 mm 0,0 UV-I 0 W/m² 3,3 °C 4,5 °C 0,0 km/h (0 Bft)
06.12.2018 23:45 4,5 °C 93 % 1021,6 hPa 0,0 mm 0,0 km/h (0 Bft) S 169 ° 0 min 0,000 mm 0,0 UV-I 0 W/m² 3,5 °C 4,5 °C 0,0 km/h (0 Bft)
06.12.2018 23:46 4,5 °C 92 % 1021,5 hPa 0,0 mm 0,0 km/h (0 Bft) S 169 ° 0 min 0,000 mm 0,0 UV-I 0 W/m² 3,3 °C 4,5 °C 0,0 km/h (0 Bft)
06.12.2018 23:47 4,5 °C 92 % 1021,6 hPa 0,0 mm 0,0 km/h (0 Bft) S 169 ° 0 min 0,000 mm 0,0 UV-I 0 W/m² 3,3 °C 4,5 °C 0,0 km/h (0 Bft)
06.12.2018 23:48 4,5 °C 92 % 1021,5 hPa 0,0 mm 0,0 km/h (0 Bft) S 169 ° 0 min 0,000 mm 0,0 UV-I 0 W/m² 3,3 °C 4,5 °C 0,0 km/h (0 Bft)
06.12.2018 23:49 4,5 °C 92 % 1021,5 hPa 0,0 mm 0,0 km/h (0 Bft) S 169 ° 0 min 0,000 mm 0,0 UV-I 0 W/m² 3,3 °C 4,5 °C 0,0 km/h (0 Bft)
06.12.2018 23:50 4,4 °C 92 % 1021,5 hPa 0,0 mm 0,0 km/h (0 Bft) S 169 ° 0 min 0,000 mm 0,0 UV-I 0 W/m² 3,2 °C 4,4 °C 0,0 km/h (0 Bft)
06.12.2018 23:51 4,4 °C 92 % 1021,6 hPa 0,0 mm 0,0 km/h (0 Bft) S 169 ° 0 min 0,000 mm 0,0 UV-I 0 W/m² 3,2 °C 4,4 °C 0,0 km/h (0 Bft)
06.12.2018 23:52 4,4 °C 93 % 1021,5 hPa 0,0 mm 0,0 km/h (0 Bft) S 169 ° 0 min 0,000 mm 0,0 UV-I 0 W/m² 3,4 °C 4,4 °C 0,0 km/h (0 Bft)
06.12.2018 23:53 4,4 °C 93 % 1021,5 hPa 0,0 mm 2,5 km/h (1 Bft) S 169 ° 0 min 0,000 mm 0,0 UV-I 0 W/m² 3,4 °C 4,4 °C 6,4 km/h (2 Bft)
06.12.2018 23:54 4,4 °C 93 % 1021,5 hPa 0,0 mm 2,5 km/h (1 Bft) S 169 ° 0 min 0,000 mm 0,0 UV-I 0 W/m² 3,4 °C 4,4 °C 6,4 km/h (2 Bft)
06.12.2018 23:55 4,4 °C 93 % 1021,5 hPa 0,0 mm 0,2 km/h (0 Bft) S 169 ° 0 min 0,000 mm 0,0 UV-I 0 W/m² 3,4 °C 4,4 °C 1,6 km/h (1 Bft)
06.12.2018 23:56 4,4 °C 93 % 1021,5 hPa 0,0 mm 0,0 km/h (0 Bft) S 169 ° 0 min 0,000 mm 0,0 UV-I 0 W/m² 3,4 °C 4,4 °C 0,0 km/h (0 Bft)
06.12.2018 23:57 4,5 °C 93 % 1021,6 hPa 0,0 mm 0,0 km/h (0 Bft) S 169 ° 0 min 0,000 mm 0,0 UV-I 0 W/m² 3,5 °C 4,5 °C 0,0 km/h (0 Bft)
06.12.2018 23:58 4,4 °C 93 % 1021,6 hPa 0,0 mm 0,0 km/h (0 Bft) S 169 ° 0 min 0,000 mm 0,0 UV-I 0 W/m² 3,4 °C 4,4 °C 0,0 km/h (0 Bft)
06.12.2018 23:59 4,4 °C 93 % 1021,5 hPa 0,0 mm 0,0 km/h (0 Bft) S 169 ° 0 min 0,000 mm 0,0 UV-I 0 W/m² 3,4 °C 4,4 °C 0,0 km/h (0 Bft)
_ Min-Zeit 00:08 15:04 06:10 - 23:59 - - - - - - 00:08 00:55 23:59
Minimum _ 3,7 °C 83 % 1018,3 hPa - 0,0 km/h (0 Bft) - - - - - - 3,0 °C 2,9 °C 0,0 km/h (0 Bft)
_ Max-Zeit 14:51 01:26 20:17 11:09 02:39 - - 23:59 14:00 11:52 13:49 12:57 14:51 02:39
Maximum _ 9,2 °C 96 % 1022,5 hPa 0,2 mm 15,0 km/h
W (3 Bft)
- - 0 min 0,051 mm 1,0 UV-I 225 W/m² 7,0 °C 9,2 °C 25,7 km/h
W (4 Bft)
Durchschnitt _ 6,7 °C 91 % 1020,7 hPa #4,4 mm 3,2 km/h (1 Bft) W-SW - #0 min. #0,254 mm 0,7 UV-I 19 W/m² 5,4 °C 6,4 °C 5,5 km/h (1 Bft)